[[{"header":{"parameterUnit":"m.s-1","parameterCategory":1,"la1":30.6,"la2":29.2853,"lo1":-89.7004,"lo2":-87.6739,"dy":0.0162,"dx":0.0183,"nx":112,"ny":82,"refTime":"2024-04-14T18:00:00:Z","depth":0,"parameterNumber":2,"parameterNumberName":"U-component_of_WINDS"},"data":[0.0,0.0,0.0,0.0,0.0,0.0,0.0,0.0,0.0,0.0,0.0,0.0,0.0,0.0,0.0,0.0,0.0,0.0,0.0,0.0,0.0,0.0,0.0,0.0,0.0,0.0,0.0,0.0,0.0,0.0,0.0,0.0,0.0,0.0,0.0,0.0,0.0,0.0,0.0,0.0,0.0,0.0,0.0,0.0,0.0,0.0,0.0,0.0,0.0,0.0,0.0,0.0,0.0,0.0,0.0,0.0,0.0,0.0,0.0,0.0,0.0,0.0,0.0,0.0,0.0,0.0,0.0,0.0,0.0,0.0,0.0,0.0,0.0,0.0,0.0,0.0,0.0,0.0,0.0,0.0,0.0,0.0,0.0,0.0,0.0,0.0,0.0,0.0,0.0,0.0,-3.4809,-3.4798,-3.4788,-3.4778,-3.4768,-3.4727,-3.4666,-3.4645,0.0,0.0,0.0,0.0,0.0,0.0,0.0,0.0,0.0,0.0,0.0,0.0,0.0,0.0,0.0,0.0,0.0,0.0,0.0,0.0,0.0,0.0,0.0,0.0,0.0,0.0,0.0,0.0,0.0,0.0,0.0,0.0,0.0,0.0,0.0,0.0,0.0,0.0,0.0,0.0,0.0,0.0,0.0,0.0,0.0,0.0,0.0,0.0,0.0,0.0,0.0,0.0,0.0,0.0,0.0,0.0,0.0,0.0,0.0,0.0,0.0,0.0,0.0,0.0,0.0,0.0,0.0,0.0,0.0,0.0,0.0,0.0,0.0,0.0,0.0,0.0,0.0,0.0,0.0,0.0,0.0,0.0,0.0,0.0,0.0,0.0,0.0,0.0,0.0,0.0,0.0,0.0,0.0,0.0,0.0,0.0,0.0,0.0,0.0,0.0,0.0,0.0,0.0,0.0,-3.4868,-3.4817,-3.4758,-3.4687,-3.4634,-3.4623,-3.4539,-3.4363,0.0,0.0,0.0,0.0,0.0,0.0,0.0,0.0,0.0,0.0,0.0,0.0,0.0,0.0,0.0,0.0,0.0,0.0,0.0,0.0,0.0,0.0,0.0,0.0,0.0,0.0,0.0,0.0,0.0,0.0,0.0,0.0,0.0,0.0,0.0,0.0,0.0,0.0,0.0,0.0,0.0,0.0,0.0,0.0,0.0,0.0,0.0,0.0,0.0,0.0,0.0,0.0,0.0,0.0,0.0,0.0,0.0,0.0,0.0,0.0,0.0,0.0,0.0,0.0,0.0,0.0,0.0,0.0,0.0,0.0,0.0,0.0,0.0,0.0,0.0,0.0,0.0,0.0,0.0,0.0,0.0,0.0,0.0,0.0,0.0,0.0,0.0,0.0,0.0,0.0,0.0,0.0,0.0,0.0,0.0,0.0,0.0,0.0,0.0,0.0,0.0,0.0,0.0,-3.4788,-3.4758,-3.4645,-3.4612,-3.4561,-3.4495,-3.4495,-3.4461,-3.4351,-3.4393,0.0,0.0,0.0,0.0,0.0,0.0,0.0,0.0,0.0,0.0,0.0,0.0,0.0,0.0,0.0,0.0,0.0,0.0,0.0,0.0,0.0,0.0,0.0,0.0,0.0,0.0,0.0,0.0,0.0,0.0,0.0,0.0,0.0,0.0,0.0,0.0,0.0,0.0,0.0,0.0,0.0,0.0,0.0,0.0,0.0,0.0,0.0,0.0,0.0,0.0,0.0,0.0,0.0,0.0,0.0,0.0,0.0,0.0,0.0,0.0,0.0,0.0,0.0,0.0,0.0,0.0,0.0,0.0,0.0,0.0,0.0,0.0,0.0,0.0,0.0,0.0,0.0,0.0,0.0,0.0,0.0,0.0,0.0,0.0,0.0,0.0,0.0,0.0,0.0,0.0,0.0,0.0,0.0,0.0,0.0,0.0,0.0,0.0,0.0,0.0,0.0,0.0,-3.4697,-3.4645,-3.4517,-3.4484,-3.445,-3.4374,-3.4393,-3.4363,-3.4351,-3.4328,0.0,0.0,0.0,0.0,0.0,0.0,0.0,0.0,0.0,0.0,0.0,0.0,0.0,0.0,0.0,0.0,0.0,0.0,0.0,0.0,0.0,0.0,0.0,0.0,0.0,0.0,0.0,0.0,0.0,0.0,0.0,0.0,0.0,0.0,0.0,0.0,0.0,0.0,0.0,0.0,0.0,0.0,0.0,0.0,0.0,0.0,0.0,0.0,0.0,0.0,0.0,0.0,0.0,0.0,0.0,0.0,0.0,0.0,0.0,0.0,0.0,0.0,0.0,0.0,0.0,0.0,0.0,0.0,0.0,0.0,0.0,0.0,0.0,0.0,0.0,0.0,0.0,0.0,0.0,0.0,0.0,0.0,0.0,0.0,0.0,0.0,0.0,0.0,0.0,0.0,0.0,0.0,0.0,0.0,0.0,0.0,0.0,0.0,0.0,0.0,0.0,0.0,-3.4747,-3.4645,-3.4517,-3.445,-3.4374,-3.4305,-3.4305,-3.4281,-3.4221,-3.4328,0.0,0.0,0.0,0.0,0.0,0.0,0.0,0.0,0.0,0.0,0.0,0.0,0.0,0.0,0.0,0.0,0.0,0.0,0.0,0.0,0.0,0.0,0.0,0.0,0.0,0.0,0.0,0.0,0.0,0.0,0.0,0.0,0.0,0.0,0.0,0.0,0.0,0.0,0.0,0.0,0.0,0.0,0.0,0.0,0.0,0.0,0.0,0.0,0.0,0.0,0.0,0.0,0.0,0.0,0.0,0.0,0.0,0.0,0.0,0.0,0.0,0.0,0.0,0.0,0.0,0.0,0.0,0.0,0.0,0.0,0.0,0.0,0.0,0.0,0.0,0.0,0.0,0.0,0.0,0.0,0.0,0.0,0.0,0.0,0.0,0.0,0.0,0.0,0.0,0.0,0.0,0.0,0.0,0.0,0.0,0.0,0.0,0.0,0.0,0.0,0.0,0.0,-3.4697,-3.4591,-3.4461,-3.4393,-3.4305,-3.4245,-3.4233,-3.4221,-3.4197,0.0,0.0,0.0,0.0,0.0,0.0,0.0,0.0,0.0,0.0,0.0,0.0,0.0,0.0,0.0,0.0,0.0,0.0,0.0,0.0,0.0,0.0,0.0,0.0,0.0,0.0,0.0,0.0,0.0,0.0,0.0,0.0,0.0,0.0,0.0,0.0,0.0,0.0,0.0,0.0,0.0,0.0,0.0,0.0,0.0,0.0,0.0,0.0,0.0,0.0,0.0,0.0,0.0,0.0,0.0,0.0,0.0,0.0,0.0,0.0,0.0,0.0,0.0,0.0,0.0,0.0,0.0,0.0,0.0,0.0,0.0,0.0,0.0,0.0,0.0,0.0,0.0,0.0,0.0,0.0,0.0,0.0,0.0,0.0,0.0,0.0,0.0,0.0,0.0,0.0,0.0,0.0,0.0,0.0,0.0,0.0,0.0,0.0,0.0,0.0,0.0,0.0,-3.4809,-3.4747,-3.4623,-3.4427,-3.4393,-3.4328,-3.4245,-3.4233,-3.4233,-3.4233,0.0,0.0,0.0,0.0,0.0,0.0,0.0,0.0,0.0,0.0,0.0,0.0,0.0,0.0,0.0,0.0,0.0,0.0,0.0,0.0,0.0,0.0,0.0,0.0,0.0,0.0,0.0,0.0,0.0,0.0,0.0,0.0,0.0,0.0,0.0,0.0,0.0,0.0,0.0,0.0,0.0,0.0,0.0,0.0,0.0,0.0,0.0,0.0,0.0,0.0,0.0,0.0,0.0,0.0,0.0,0.0,0.0,0.0,0.0,0.0,0.0,0.0,0.0,0.0,0.0,0.0,0.0,0.0,0.0,0.0,0.0,0.0,0.0,0.0,0.0,0.0,0.0,0.0,0.0,0.0,0.0,0.0,0.0,0.0,0.0,0.0,0.0,0.0,0.0,0.0,0.0,0.0,0.0,0.0,0.0,0.0,0.0,0.0,0.0,0.0,0.0,0.0,-3.4809,-3.4858,-3.4768,-3.4439,-3.4461,-3.445,-3.4305,-3.4293,-3.4293,0.0,0.0,0.0,0.0,0.0,0.0,0.0,0.0,0.0,0.0,0.0,0.0,0.0,0.0,0.0,0.0,0.0,0.0,0.0,0.0,0.0,0.0,0.0,0.0,0.0,0.0,0.0,0.0,0.0,0.0,0.0,0.0,0.0,0.0,0.0,0.0,0.0,0.0,0.0,0.0,0.0,0.0,0.0,0.0,0.0,0.0,0.0,0.0,0.0,0.0,0.0,0.0,0.0,0.0,0.0,0.0,0.0,0.0,0.0,0.0,0.0,0.0,0.0,0.0,0.0,0.0,0.0,0.0,0.0,0.0,0.0,0.0,0.0,0.0,0.0,0.0,0.0,0.0,0.0,0.0,0.0,0.0,0.0,0.0,0.0,0.0,0.0,0.0,0.0,0.0,0.0,0.0,0.0,0.0,0.0,0.0,0.0,0.0,0.0,0.0,0.0,0.0,0.0,-3.4877,-3.4768,-3.4655,-3.4539,-3.4473,-3.4397,-3.4363,-3.4363,-3.4363,-3.4363,0.0,0.0,0.0,0.0,0.0,0.0,0.0,0.0,0.0,0.0,0.0,0.0,0.0,0.0,0.0,0.0,0.0,0.0,0.0,0.0,0.0,0.0,0.0,0.0,0.0,0.0,0.0,0.0,0.0,0.0,0.0,0.0,0.0,0.0,0.0,0.0,0.0,0.0,0.0,0.0,0.0,0.0,0.0,0.0,0.0,0.0,0.0,0.0,0.0,0.0,0.0,0.0,0.0,0.0,0.0,0.0,0.0,0.0,0.0,0.0,0.0,0.0,0.0,0.0,0.0,0.0,0.0,0.0,0.0,0.0,0.0,0.0,0.0,0.0,0.0,0.0,0.0,0.0,0.0,0.0,0.0,0.0,0.0,0.0,0.0,0.0,0.0,0.0,0.0,0.0,0.0,0.0,0.0,0.0,0.0,0.0,0.0,0.0,0.0,0.0,0.0,0.0,-3.4897,-3.479,-3.4689,-3.4612,-3.455,-3.4495,-3.445,-3.445,-3.445,-3.445,0.0,0.0,0.0,0.0,0.0,0.0,0.0,0.0,0.0,0.0,0.0,0.0,0.0,0.0,0.0,0.0,0.0,0.0,0.0,0.0,0.0,0.0,0.0,0.0,0.0,0.0,0.0,0.0,0.0,0.0,0.0,0.0,0.0,0.0,0.0,0.0,0.0,0.0,0.0,0.0,0.0,0.0,0.0,0.0,0.0,0.0,0.0,0.0,0.0,0.0,0.0,0.0,0.0,0.0,0.0,0.0,0.0,0.0,0.0,0.0,0.0,0.0,0.0,0.0,0.0,0.0,0.0,0.0,0.0,0.0,0.0,0.0,0.0,0.0,0.0,0.0,0.0,0.0,0.0,0.0,0.0,0.0,0.0,0.0,0.0,0.0,0.0,0.0,0.0,0.0,0.0,0.0,0.0,0.0,0.0,0.0,0.0,0.0,0.0,0.0,0.0,0.0,-3.4907,-3.4898,-3.4831,-3.4645,-3.4666,-3.4645,-3.4517,-3.4506,-3.4506,-3.4506,0.0,0.0,0.0,0.0,0.0,0.0,0.0,0.0,0.0,0.0,0.0,0.0,0.0,0.0,0.0,0.0,0.0,0.0,0.0,0.0,0.0,0.0,0.0,0.0,0.0,0.0,0.0,0.0,0.0,0.0,0.0,0.0,0.0,0.0,0.0,0.0,0.0,0.0,0.0,0.0,0.0,0.0,0.0,0.0,0.0,0.0,0.0,0.0,0.0,0.0,0.0,0.0,0.0,0.0,0.0,0.0,0.0,0.0,0.0,0.0,-3.6092,-3.5856,0.0,0.0,0.0,0.0,0.0,0.0,0.0,0.0,0.0,0.0,0.0,0.0,0.0,0.0,0.0,0.0,0.0,0.0,0.0,0.0,0.0,0.0,0.0,0.0,0.0,0.0,0.0,0.0,0.0,0.0,0.0,0.0,0.0,0.0,0.0,0.0,0.0,0.0,0.0,0.0,-3.4898,-3.4907,-3.4859,-3.4768,-3.4708,-3.4666,-3.4591,-3.4591,-3.4591,-3.4591,-3.376,0.0,0.0,0.0,0.0,0.0,0.0,0.0,0.0,0.0,0.0,0.0,0.0,0.0,0.0,0.0,0.0,0.0,0.0,0.0,0.0,0.0,0.0,0.0,0.0,0.0,0.0,0.0,0.0,0.0,0.0,0.0,0.0,0.0,0.0,0.0,0.0,0.0,0.0,0.0,0.0,0.0,0.0,0.0,0.0,0.0,0.0,0.0,0.0,0.0,0.0,0.0,0.0,0.0,0.0,0.0,0.0,0.0,0.0,0.0,-3.7301,-3.6852,0.0,0.0,0.0,0.0,0.0,0.0,0.0,0.0,0.0,0.0,0.0,0.0,0.0,0.0,0.0,0.0,0.0,0.0,0.0,0.0,0.0,0.0,0.0,0.0,0.0,0.0,0.0,0.0,0.0,0.0,0.0,0.0,0.0,0.0,0.0,0.0,0.0,0.0,0.0,0.0,-3.4908,-3.4908,-3.4888,-3.4858,-3.4788,-3.4727,-3.4655,-3.4266,-3.402,-3.402,-3.2854,0.0,0.0,0.0,0.0,0.0,0.0,0.0,0.0,0.0,0.0,0.0,0.0,0.0,0.0,0.0,0.0,0.0,0.0,0.0,0.0,0.0,0.0,0.0,0.0,0.0,0.0,0.0,0.0,0.0,0.0,0.0,0.0,0.0,0.0,0.0,0.0,0.0,0.0,0.0,0.0,0.0,0.0,0.0,0.0,0.0,0.0,0.0,0.0,0.0,0.0,0.0,0.0,0.0,-3.8311,-3.8736,-3.8727,-3.8873,-3.8948,-3.8944,-3.89,-3.8312,-3.7397,-3.6932,0.0,0.0,0.0,0.0,0.0,0.0,0.0,0.0,0.0,0.0,0.0,0.0,0.0,0.0,0.0,0.0,0.0,0.0,0.0,0.0,0.0,0.0,0.0,0.0,-3.5634,-3.5623,-3.5548,0.0,0.0,0.0,0.0,0.0,0.0,0.0,0.0,0.0,0.0,0.0,-3.4908,-3.4908,-3.4832,-3.4689,-3.4621,-3.4485,-3.4283,-3.36,-3.3175,-3.3175,-3.1869,-3.1034,0.0,0.0,0.0,0.0,0.0,0.0,0.0,0.0,0.0,0.0,0.0,0.0,0.0,0.0,0.0,0.0,0.0,0.0,0.0,0.0,0.0,0.0,0.0,0.0,0.0,0.0,0.0,0.0,0.0,0.0,0.0,0.0,-3.7596,-3.693,0.0,0.0,0.0,0.0,0.0,0.0,0.0,0.0,0.0,0.0,0.0,0.0,0.0,-3.8152,-3.8157,-3.8389,-3.8447,-3.8336,-3.9204,-3.9638,-3.9641,-4.0409,-4.0755,-4.0758,-4.0758,0.0,-3.8145,-3.5882,0.0,0.0,0.0,0.0,0.0,0.0,0.0,0.0,0.0,0.0,0.0,0.0,0.0,0.0,0.0,0.0,0.0,0.0,0.0,0.0,0.0,0.0,-3.4575,-3.5549,-3.5778,-3.5769,0.0,-3.5513,-3.5302,-3.5302,-3.5296,-3.5235,0.0,0.0,0.0,0.0,0.0,0.0,-3.4908,-3.4908,-3.4605,-3.3847,-3.3705,-3.3363,-3.2588,-3.2379,-3.2274,-3.2274,-3.2067,-3.1625,-3.0921,-3.0742,0.0,0.0,0.0,0.0,0.0,0.0,0.0,0.0,0.0,0.0,0.0,0.0,0.0,0.0,0.0,0.0,0.0,0.0,0.0,0.0,0.0,0.0,0.0,0.0,0.0,0.0,0.0,0.0,0.0,-3.6966,-3.7269,-3.6429,-3.6782,-3.6779,0.0,0.0,0.0,0.0,0.0,0.0,0.0,0.0,0.0,-3.7935,-3.8772,-3.9474,-3.9961,-4.0406,-4.0874,-4.1361,-4.176,-4.1944,-4.1953,-4.2334,-4.2522,-4.2529,-4.2039,-4.14,-4.0523,-3.8398,-3.6891,-3.5873,0.0,0.0,0.0,0.0,-3.4389,-3.4087,-3.4478,-3.4601,-3.4516,-3.3985,0.0,0.0,0.0,0.0,0.0,0.0,0.0,-3.3526,0.0,0.0,-3.4711,-3.5581,-3.5795,-3.5791,-3.5801,-3.5684,-3.5568,-3.5538,-3.5457,-3.5395,-3.5333,-3.5258,0.0,0.0,0.0,-3.4925,-3.4418,-3.4352,-3.3985,-3.3023,-3.2893,-3.2723,-3.2336,-3.1798,-3.1506,-3.159,-3.1138,-3.0722,-3.0404,-3.0377,-3.0137,0.0,0.0,0.0,0.0,0.0,0.0,0.0,0.0,0.0,0.0,0.0,0.0,0.0,0.0,0.0,0.0,0.0,0.0,0.0,0.0,0.0,0.0,0.0,0.0,0.0,0.0,0.0,0.0,-3.7017,-3.7353,-3.6261,-3.6903,-3.709,0.0,0.0,0.0,0.0,0.0,0.0,-3.7857,-3.8694,-3.926,-3.9474,-4.0328,-4.1088,-4.1731,-4.2335,-4.2958,-4.3601,-4.3601,-4.3608,-4.3581,-4.3392,-4.3323,-4.3314,-4.2449,-4.2182,-4.2247,-4.0305,-3.8378,-3.6639,-3.642,-3.5544,-3.4492,-3.5351,-3.5642,-3.5578,-3.5338,-3.527,-3.5082,-3.3982,-3.3487,-3.3309,-3.33,0.0,0.0,0.0,0.0,-3.4187,-3.5197,-3.5158,-3.5002,-3.5639,-3.5795,-3.5795,-3.5795,-3.5797,-3.579,0.0,-3.5623,-3.5547,-3.5515,-3.5416,0.0,-3.5001,-3.4963,-3.4646,-3.3731,-3.3595,-3.3195,-3.2258,-3.2096,-3.1984,-3.1793,-3.1155,-3.0785,-3.0905,-3.03,-2.9972,-2.9992,-3.0,-2.995,-2.9841,0.0,0.0,0.0,0.0,0.0,0.0,0.0,0.0,0.0,0.0,0.0,0.0,0.0,0.0,0.0,0.0,0.0,0.0,0.0,0.0,0.0,0.0,0.0,0.0,0.0,0.0,0.0,0.0,0.0,-3.7236,-3.7801,0.0,0.0,0.0,0.0,-3.8303,-3.8413,-3.8792,-3.963,-4.0506,-4.1322,-4.2081,-4.2958,-4.3426,-4.3465,-4.3504,-4.3562,-4.3601,-4.3601,-4.3601,-4.3565,-4.2802,-4.246,-4.2423,-4.1537,-4.1649,-4.2208,-3.9683,-3.8576,-3.8384,-3.7565,-3.7182,-3.7207,-3.8008,-3.83,-3.8183,-3.7358,-3.7066,-3.6796,-3.5086,-3.397,-3.3295,-3.3306,-3.3881,0.0,0.0,-3.447,-3.5503,-3.475,-3.5158,-3.5756,-3.5795,-3.5795,-3.5795,-3.5795,-3.5797,-3.5775,0.0,-3.5679,-3.5646,-3.5509,0.0,-3.5174,-3.4203,-3.4074,-3.376,-3.2967,-3.2737,-3.2343,-3.1543,-3.1292,-3.0882,-3.0186,-3.0079,-3.0087,-3.0144,-3.0113,-3.006,-3.0,-3.0,-2.9996,-2.9999,-2.9071,0.0,0.0,0.0,0.0,0.0,0.0,0.0,0.0,0.0,0.0,0.0,0.0,0.0,0.0,0.0,0.0,0.0,0.0,0.0,0.0,0.0,0.0,0.0,0.0,0.0,0.0,0.0,0.0,-3.8018,-3.8702,0.0,-3.8026,-3.8474,-3.8944,-3.9256,-4.0315,-4.1088,-4.138,-4.2237,-4.2841,-4.3133,-4.3445,-4.3874,-4.4423,-4.4442,-4.4715,-4.526,-4.526,-4.526,-4.526,-4.4975,-4.4842,-4.4764,-4.3337,-4.2897,-4.3022,-4.1033,-4.0207,-4.0175,-3.9863,-3.9086,-3.8173,-3.8466,-3.8563,-3.8524,-3.8217,-3.8064,-3.7929,-3.7301,-3.6522,-3.581,-3.5817,-3.5596,-3.5302,-3.4991,-3.5345,-3.5736,-3.543,-3.5562,-3.5795,-3.5795,-3.5795,-3.5795,-3.5795,-3.581,-3.5797,-3.5775,-3.5737,-3.5678,-3.5635,-3.5631,-3.5319,-3.4395,-3.4254,-3.3729,-3.2275,-3.2039,-3.1686,-3.0795,-3.0624,-3.0476,-3.0213,-3.0147,-3.0187,-3.0292,-3.026,-3.0241,-3.026,-3.0254,-3.0227,-3.0133,-2.9711,-2.9161,0.0,0.0,0.0,0.0,0.0,0.0,0.0,0.0,0.0,0.0,0.0,0.0,0.0,0.0,0.0,0.0,0.0,0.0,0.0,0.0,0.0,0.0,0.0,0.0,0.0,-3.7991,-3.8829,-3.8829,-3.9587,-3.9994,-3.9708,-4.0205,-4.0672,-4.0996,-4.2096,-4.2873,-4.3156,-4.3721,-4.4169,-4.4481,-4.4481,-4.4754,-4.5322,-4.5342,-4.5634,-4.6199,-4.6199,-4.6199,-4.6199,-4.5907,-4.5771,-4.5673,-4.4238,-4.3604,-4.3515,-4.2425,-4.1798,-4.1514,-4.1205,-4.0426,-3.943,-3.943,-3.943,-3.9391,-3.9118,-3.8794,-3.8531,-3.8516,-3.8101,-3.7639,-3.7642,-3.7194,-3.6709,-3.6681,-3.6464,-3.6234,-3.6246,-3.6028,-3.5795,-3.5795,-3.5795,-3.5795,-3.5795,-3.5795,-3.5791,-3.5797,-3.5761,-3.5728,-3.5693,-3.5692,-3.541,-3.4529,-3.4156,-3.342,-3.1932,-3.1455,-3.103,-3.0406,-3.0311,-3.0305,-3.0336,-3.0286,-3.031,-3.0425,-3.0396,-3.0396,-3.0428,-3.039,-3.0324,-3.0247,-3.0053,-2.9439,-2.8424,0.0,0.0,0.0,0.0,0.0,0.0,0.0,0.0,0.0,0.0,0.0,0.0,0.0,0.0,0.0,0.0,0.0,0.0,0.0,0.0,0.0,0.0,0.0,-3.689,-3.8537,-3.9757,-3.9815,-4.0495,-4.1315,-4.2155,-4.2271,-4.2663,-4.3564,-4.3658,-4.4047,-4.489,-4.4933,-4.5322,-4.618,-4.6199,-4.6199,-4.6199,-4.6199,-4.6199,-4.6199,-4.6199,-4.6199,-4.618,-4.5322,-4.4933,-4.4894,-4.4014,-4.3634,-4.3632,-4.3685,-4.321,-4.2344,-4.1477,-4.1129,-4.1109,-4.1109,-4.1109,-4.0973,-4.0132,-3.9331,-3.8672,-3.8608,-3.8552,-3.8535,-3.8537,-3.8516,-3.8497,-3.8429,-3.7794,-3.7133,-3.7148,-3.6518,-3.5872,-3.5872,-3.5853,-3.5834,-3.5834,-3.5814,-3.5795,-3.5795,-3.5797,-3.5785,-3.5718,-3.5707,-3.5407,-3.4534,-3.3654,0.0,-3.1908,-3.0972,-3.0398,-3.0398,-3.0355,-3.0336,-3.0386,-3.0398,-3.0425,-3.0491,-3.0496,-3.0505,-3.0504,-3.0367,-3.0292,-3.0286,-2.9964,-2.9305,-2.8297,0.0,0.0,0.0,0.0,0.0,0.0,0.0,0.0,0.0,0.0,0.0,0.0,0.0,0.0,0.0,0.0,0.0,0.0,0.0,0.0,0.0,-3.8074,-3.9376,-3.9415,-4.0037,-4.0945,-4.2166,-4.2595,-4.2889,-4.3122,-4.3709,-4.4195,-4.4452,-4.5058,-4.555,-4.5827,-4.5846,-4.5951,-4.6196,-4.6199,-4.6199,-4.6199,-4.6199,-4.6199,-4.6199,-4.6199,-4.6199,-4.6199,-4.5946,-4.5848,-4.579,-4.491,-4.4543,-4.4491,-4.3883,-4.3482,-4.3195,-4.2368,-4.1654,-4.1109,-4.1109,-4.1109,-4.107,-4.0821,-4.0605,-4.0408,-4.0397,-3.9955,-3.9433,-3.9448,-3.9,-3.8497,-3.8429,-3.8237,-3.8043,-3.8041,-3.7858,-3.7683,-3.7683,-3.7197,-3.6751,-3.6751,-3.6241,-3.5795,-3.5795,-3.581,-3.5797,-3.5785,-3.5733,-3.5398,-3.4541,-3.3664,0.0,-3.1908,-3.1062,-3.0505,-3.0403,-3.0469,-3.0499,-3.0417,-3.049,-3.055,-3.0564,-3.0525,-3.0491,-3.0505,-3.0417,-3.0279,-3.0085,-2.9845,-2.9259,0.0,0.0,0.0,0.0,0.0,0.0,0.0,0.0,0.0,0.0,0.0,0.0,0.0,0.0,0.0,0.0,0.0,0.0,0.0,0.0,0.0,0.0,-3.9103,-4.0715,-4.1769,-4.1821,-4.2286,-4.3673,-4.3903,-4.4128,-4.4515,-4.5002,-4.5308,-4.5337,-4.5803,-4.6137,-4.6205,-4.6209,-4.6197,-4.6196,-4.6199,-4.6199,-4.6199,-4.6199,-4.6199,-4.6199,-4.6199,-4.6199,-4.6199,-4.6199,-4.6199,-4.618,-4.5654,-4.5244,-4.4855,-4.4341,-4.3938,0.0,0.0,0.0,0.0,0.0,-4.1109,-4.1109,-4.1094,-4.1093,-4.1091,-4.1097,-4.0751,-4.0348,-4.0331,-3.9986,-3.9583,-3.9504,-3.9221,-3.8937,-3.8935,-3.8678,-3.8406,-3.8406,-3.8018,-3.7644,-3.7644,-3.6964,-3.6339,-3.6339,-3.6047,0.0,-3.5797,-3.5766,-3.5558,-3.5035,-3.4201,-3.3335,-3.2449,-3.1618,-3.0946,-3.0534,-3.055,-3.0579,-3.0495,-3.0554,0.0,0.0,0.0,-3.051,-3.0414,-3.0321,0.0,0.0,0.0,-2.9383,-2.8792,-2.8705,0.0,0.0,-2.6739,-2.595,0.0,0.0,0.0,0.0,0.0,0.0,0.0,0.0,0.0,0.0,0.0,0.0,0.0,0.0,0.0,0.0,-3.9957,-4.1485,-4.3682,-4.3614,-4.3678,-4.4581,-4.4731,-4.5079,-4.5903,-4.5997,-4.6012,-4.6071,-4.6095,-4.6114,-4.6197,-4.6181,0.0,0.0,0.0,-4.6199,-4.6199,-4.6199,-4.6199,-4.6199,-4.6199,-4.6199,-4.6199,-4.6199,-4.6199,-4.6199,-4.6199,-4.5771,-4.505,-4.5043,-4.4523,-4.3668,-4.2858,-4.2555,-4.2459,-4.167,-4.1324,-4.1246,-4.1246,0.0,0.0,-4.1097,-4.1098,-4.1103,-4.1094,-4.1104,-4.1081,-4.1011,-4.0446,-3.9831,-3.9844,-3.9256,-3.8678,-3.8678,-3.862,-3.8542,-3.8542,-3.7858,-3.7256,-3.7256,-3.6537,-3.595,-3.595,-3.5875,-3.5785,-3.5723,-3.4957,-3.4115,-3.3349,-3.2391,-3.1521,-3.0796,0.0,0.0,-3.0583,-3.0593,-3.0598,-3.0598,-3.0598,-3.0525,-3.0334,-3.019,-3.0063,-2.9937,-2.9738,-2.9598,-2.9502,-2.9433,-2.9401,-2.9351,-2.7761,-2.6646,0.0,0.0,0.0,0.0,0.0,0.0,0.0,0.0,0.0,0.0,0.0,0.0,0.0,0.0,0.0,-3.8861,-4.1389,-4.3452,-4.393,-4.4507,-4.4988,-4.5297,-4.5517,-4.5712,-4.5906,-4.5978,-4.6002,-4.6026,-4.6026,-4.6042,-4.6114,-4.6113,-4.6134,-4.6193,-4.6208,-4.6199,-4.6199,-4.6199,-4.6199,-4.6199,-4.6199,0.0,-4.6199,-4.6199,-4.6199,-4.6199,-4.6199,-4.6102,-4.5946,-4.5946,-4.543,-4.4565,-4.3756,-4.3455,-4.3437,-4.3251,-4.2747,-4.2142,-4.215,-4.1699,-4.1091,-4.1097,-4.1098,-4.1102,-4.1093,-4.1107,0.0,-4.1011,-4.0878,-4.0749,-4.0679,-4.0538,-4.0422,-4.0422,-3.9917,-3.9451,-3.9451,-3.8751,-3.8154,-3.8154,-3.743,-3.6848,-3.6848,-3.6263,-3.5799,-3.579,-3.4982,-3.4333,-3.4173,-3.2774,-3.1709,-3.151,-3.0945,-3.0554,-3.0444,-3.054,-3.0598,-3.0598,-3.0598,-3.0559,-3.0465,-3.0321,-3.0208,-3.0064,-2.9857,-2.9701,-2.9588,-2.9453,-2.9402,-2.9373,-2.8357,-2.778,0.0,0.0,0.0,0.0,0.0,0.0,0.0,0.0,0.0,0.0,0.0,-3.6178,-3.6755,0.0,-3.9715,-4.0642,-4.256,-4.4109,-4.4579,-4.5029,-4.535,-4.5485,-4.5627,-4.5731,-4.5791,-4.5893,-4.5955,-4.5955,-4.5975,-4.6032,-4.6095,-4.609,-4.6132,-4.6205,-4.6197,-4.6403,-4.6839,-4.6414,-4.6414,-4.6842,-4.6414,-4.6199,-4.6199,-4.6199,-4.6199,-4.6199,-4.6199,-4.6199,-4.6199,-4.6199,-4.5949,-4.5511,-4.5106,-4.4438,-4.371,-4.3695,-4.3427,-4.304,-4.3045,-4.2771,-4.2319,-4.1897,-4.1743,-4.1668,-4.1228,-4.1092,-4.1097,-4.1053,-4.1022,-4.0996,-4.0964,-4.0935,-4.0907,-4.0907,-4.0597,-4.0305,-4.0305,-3.9645,-3.9043,-3.9043,-3.8343,-3.7605,-3.7178,-3.6742,-3.6302,-3.5862,-3.5364,-3.489,-3.4454,-3.3635,-3.2749,-3.1857,-3.1424,-3.1004,-3.0544,-3.0554,-3.0598,-3.0598,-3.0598,-3.0564,-3.0496,-3.0367,-3.0228,-3.0099,-2.9937,-2.9771,-2.9645,-2.9521,-2.9433,-2.9384,-2.8952,-2.8523,0.0,0.0,0.0,0.0,0.0,0.0,0.0,-3.5878,-3.622,-3.7114,-3.7435,-3.7812,-3.8636,-3.9741,-4.0999,-4.2463,-4.3533,-4.4442,-4.5201,-4.5307,-4.5329,-4.5438,-4.5485,-4.5549,-4.566,-4.5805,-4.59,-4.59,-4.5953,-4.6032,-4.6071,-4.6095,-4.6119,-4.6181,-4.6185,-4.6625,-4.7482,-4.6647,-4.6647,-4.7482,-4.6628,-4.6199,-4.6199,-4.6199,-4.6199,-4.6199,-4.6199,-4.6199,-4.6199,-4.6199,-4.6199,-4.6199,-4.6193,-4.5379,-4.419,-4.4194,-4.4105,-4.3956,-4.3957,-4.384,-4.3588,-4.2872,-4.264,-4.2487,-4.1616,-4.1348,-4.1321,-4.1141,-4.1042,-4.1009,-4.1009,-4.0941,-4.0907,-4.0907,-4.0907,-4.0907,-4.0907,-4.0383,-3.9932,-3.9932,-3.9237,-3.8421,-3.7722,-3.7314,-3.68,-3.5929,-3.5747,-3.5452,-3.4735,-3.4497,-3.3857,-3.2454,-3.2005,-3.1463,-3.0675,-3.0598,-3.0598,-3.0598,-3.0598,-3.0588,-3.0525,-3.04,-3.029,-3.0137,-3.0019,-2.9891,-2.9756,-2.9608,-2.9492,-2.9433,-2.9419,-2.9016,-3.3658,-3.4233,-3.5114,-3.5169,-3.5969,-3.681,0.0,-3.7114,-3.7219,-3.7281,-3.791,-3.8512,-3.869,-4.0682,-4.2383,-4.2656,-4.4081,-4.5182,-4.5277,-4.5307,-4.5307,-4.5328,-4.5438,-4.5504,-4.5522,-4.5754,-4.59,-4.59,-4.5953,-4.6002,-4.6007,-4.6066,-4.609,-4.6117,-4.6177,-4.6625,-4.7482,-4.6647,-4.6647,-4.7482,-4.6628,-4.6199,-4.6199,-4.6199,-4.6199,-4.6199,-4.6199,-4.6199,-4.6199,-4.6199,-4.6199,-4.6199,-4.6199,-4.6096,-4.5939,-4.5984,-4.5523,-4.4842,-4.4852,-4.4348,-4.3686,-4.3588,-4.3554,-4.3382,-4.2526,-4.2245,-4.2084,-4.1322,-4.1048,-4.1009,-4.1009,-4.0941,-4.0907,-4.0907,-4.0907,-4.0907,-4.0907,-4.083,-4.0771,-4.0771,-4.0111,-3.9528,-3.9427,-3.813,-3.6809,-3.5926,-3.5793,-3.5732,-3.5573,-3.489,-3.4323,-3.4123,-3.2725,-3.1463,-3.0675,-3.0598,-3.0598,-3.0598,-3.0598,-3.0598,-3.0593,-3.052,-3.0406,-3.0283,-3.0144,-3.0041,-2.9975,-2.9764,-2.9636,-2.9578,-2.9461,-2.9345,-3.559,-3.5999,-3.6452,-3.6652,-3.7205,-3.7751,-3.7909,-3.8007,-3.8315,-3.9309,-3.9837,-4.0423,-4.1483,-4.2585,-4.3526,-4.4067,-4.4336,-4.4681,-4.522,-4.4857,-4.4723,-4.5239,-4.535,-4.54,-4.5495,-4.5676,-4.5831,-4.5893,-4.5953,-4.6002,-4.6002,-4.6032,-4.628,-4.6849,-4.6876,-4.7564,-4.8947,-4.7634,-4.7384,-4.8241,-4.6862,-4.6199,-4.6199,-4.6199,-4.6199,-4.6199,-4.6199,-4.6199,-4.6199,-4.6199,-4.6199,-4.6199,-4.6199,-4.6203,-4.6193,-4.6234,-4.6014,-4.5709,-4.574,-4.551,-4.5121,-4.4619,-4.4467,-4.4294,-4.342,-4.2805,-4.2323,-4.1953,-4.1479,-4.1062,-4.1058,-4.1011,-4.0964,-4.0953,-4.0939,-4.0907,-4.0907,-4.0941,-4.095,-4.095,-4.0697,-4.0308,-3.9784,-3.911,-3.8149,-3.677,-3.6127,-3.5799,-3.5766,-3.5403,-3.4961,-3.4452,-3.2841,-3.1657,-3.1328,-3.0868,-3.0598,-3.0598,-3.0598,-3.0598,-3.0598,-3.0569,-3.0505,-3.0361,-3.0253,-3.0137,-3.0007,-2.9839,-2.9718,-2.9645,-2.9472,-2.9392,-3.6364,-3.682,-3.7184,-3.775,-3.8208,-3.8633,-3.9081,-3.9195,-3.9645,-4.115,-4.17,-4.2287,-4.3567,-4.4041,-4.444,-4.5096,-4.4456,-4.423,-4.5182,-4.4551,-4.4312,-4.5201,-4.5307,-4.535,-4.5485,-4.5627,-4.5754,-4.5893,-4.5953,-4.6099,-4.6346,-4.6366,-4.6789,-4.7704,-4.7729,-4.8457,-4.9986,-4.8324,-4.7926,-4.8787,-4.7287,-4.6569,-4.6569,-4.6803,-4.692,-4.6897,-4.6667,-4.6569,-4.655,-4.6297,-4.6199,-4.6199,-4.6199,-4.6199,-4.6199,-4.6193,-4.6209,-4.6203,-4.6255,-4.6282,-4.6208,-4.5551,-4.5359,-4.5207,-4.4315,-4.3459,-4.2701,-4.247,-4.1776,-4.1091,-4.1109,-4.1044,-4.0992,-4.1003,-4.0961,-4.092,-4.0893,-4.095,-4.1006,-4.1006,-4.0991,-4.08,-4.0178,-3.9866,-3.9265,-3.8002,-3.6878,-3.606,-3.5823,-3.5737,-3.5373,-3.4482,-3.3272,-3.2411,-3.2179,-3.1405,-3.0926,-3.0926,-3.0714,-3.0598,-3.0598,-3.0598,-3.055,-3.0455,-3.0373,-3.0247,-3.0078,-2.9931,-2.9794,-2.971,-2.956,-2.9453,-3.4779,-3.5577,-3.6452,-3.7752,-3.8689,-3.9563,-4.0671,-4.0967,-4.1283,-4.2181,-4.3084,-4.3738,-4.3795,-4.4498,-4.5087,-4.5192,-4.4456,-4.423,-4.5182,-4.4551,-4.4312,-4.5201,-4.5307,-4.535,-4.5485,-4.5627,-4.5754,-4.5893,-4.5953,-4.6366,-4.722,-4.7254,-4.7658,-4.854,-4.8564,-4.9036,-4.9986,-4.8269,-4.7868,-4.8787,-4.7891,-4.7462,-4.7482,-4.8339,-4.8729,-4.867,-4.7832,-4.7462,-4.7404,-4.655,-4.6199,-4.6199,-4.6199,-4.6199,-4.6199,-4.6199,-4.619,-4.6206,-4.6203,-4.6255,-4.6303,-4.6267,-4.6253,-4.6105,-4.5226,-4.4353,-4.348,-4.2642,-4.1776,-4.1092,-4.1092,-4.1044,-4.1,-4.1006,-4.101,-4.099,-4.0906,-4.095,-4.1006,-4.1006,-4.1003,-4.0996,-4.0976,-4.026,-3.968,-3.9621,-3.8166,-3.6762,-3.59,-3.5737,-3.5378,-3.4487,-3.4351,-3.3982,-3.3126,-3.2256,-3.1753,-3.1753,-3.1023,-3.0598,-3.0598,-3.0598,-3.0598,-3.0593,-3.046,-3.0365,-3.0286,-3.0085,-2.9883,-2.9708,-2.9682,-2.9598,-3.7092,-3.8194,-3.9179,-4.0386,-4.0566,-4.066,-4.1581,-4.1403,-4.1427,-4.2837,-4.2967,-4.2976,-4.3564,-4.4022,-4.4314,-4.4337,-4.3677,-4.3671,-4.5105,-4.4093,-4.373,-4.5125,-4.5307,-4.535,-4.5485,-4.5627,-4.5754,-4.5893,-4.649,-4.6987,-4.7273,-4.7842,-4.8566,-4.9432,-4.9468,-4.963,-4.9999,-4.9428,-4.9021,-4.8806,-4.8495,-4.8358,-4.8378,-4.867,-4.8806,-4.8787,-4.8495,-4.8358,-4.828,-4.7423,-4.7053,-4.7014,-4.6433,-4.6199,-4.6199,-4.6199,-4.6203,-4.6209,-4.6206,-4.6215,-4.6242,-4.6299,-4.6308,-4.6253,-4.5947,-4.5247,-4.4371,-4.3513,-4.2622,-4.1828,-4.1245,-4.1074,-4.107,-4.1078,-4.1025,-4.1001,-4.0971,-4.099,-4.099,-4.0995,-4.0995,-4.0999,-4.0999,-4.0766,-4.0377,-3.9781,-3.8225,-3.6781,-3.59,-3.5785,-3.565,-3.5306,-3.4754,-3.4279,-3.3988,-3.3165,-3.2662,-3.2662,-3.1869,-3.1405,-3.1405,-3.0888,-3.0598,-3.0598,-3.0479,-3.0371,-3.0312,-3.0092,-2.9942,-2.9834,-3.0302,-3.0452,-3.8442,-3.9373,-4.0049,-4.0946,-4.0848,-4.0784,-4.1908,-4.1543,-4.1442,-4.319,-4.288,-4.2463,-4.303,-4.3274,-4.3406,-4.3406,-4.2787,-4.2888,-4.4609,-4.3654,-4.3424,-4.5097,-4.5307,-4.5329,-4.5429,-4.5558,-4.5808,-4.623,-4.6862,-4.7499,-4.8114,-4.8738,-4.9454,-5.0328,-5.0365,-5.0392,-5.0427,-5.0135,-4.9733,-4.9235,-4.9235,-4.9391,-4.9683,-4.9683,-4.9683,-4.9683,-4.9352,-4.9235,-4.9157,-4.83,-4.7949,-4.7871,-4.6995,-4.6667,-4.6628,-4.6316,-4.6199,-4.6199,-4.619,-4.62,-4.6209,-4.6248,-4.6255,-4.626,-4.6269,-4.5668,-4.4889,-4.4323,-4.331,-4.2279,-4.1719,-4.1339,-4.1092,-4.1093,-4.107,-4.1039,-4.1009,-4.0998,-4.1008,-4.1,-4.1026,-4.1036,-4.1036,-4.1022,-4.0708,-3.9824,-3.8758,-3.759,-3.6418,-3.6254,-3.612,-3.5747,-3.519,-3.4865,-3.4858,-3.4079,-3.3552,-3.3552,-3.2739,-3.2256,-3.2256,-3.1463,-3.1023,-3.1023,-3.0935,-3.0843,-3.0727,-3.0906,-3.0925,-3.0793,-3.1242,-3.1402,-3.8835,-3.9138,-3.9175,-3.9677,-3.9745,-4.0134,-4.1719,-4.15,-4.1456,-4.317,-4.2848,-4.2224,-4.2167,-4.231,-4.2427,-4.237,-4.1859,-4.2047,-4.371,-4.3319,-4.3463,-4.5048,-4.5258,-4.5297,-4.5297,-4.5457,-4.5944,-4.6874,-4.7074,-4.79,-4.9604,-4.9866,-5.0348,-5.1163,-5.1202,-5.1173,-5.1128,-5.0374,-5.0027,-5.0073,-5.0073,-5.0502,-5.13,-5.13,-5.13,-5.1242,-5.0424,-5.0073,-4.9995,-4.9196,-4.8865,-4.8787,-4.791,-4.754,-4.7404,-4.6569,-4.6238,-4.6199,-4.6199,-4.6209,-4.6203,-4.6203,-4.6195,-4.6206,-4.6209,-4.567,-4.5052,-4.5016,-4.3773,-4.2453,-4.2415,-4.1752,-4.1097,-4.1093,-4.1094,-4.1074,-4.102,-4.1019,-4.1003,-4.102,-4.1056,-4.1091,-4.111,-4.1039,-4.0723,-3.9886,-3.9762,-3.9151,-3.7396,-3.7122,-3.6769,-3.5868,-3.5723,-3.5697,-3.569,-3.4935,-3.4471,-3.4471,-3.3654,-3.3165,-3.3165,-3.2333,-3.1869,-3.1869,-3.1864,-3.1766,-3.157,-3.2401,-3.2672,-3.2409,-3.2437,-3.2374,-4.0188,-4.021,-3.9986,-4.1016,-4.1207,-4.1319,-4.1957,-4.1952,-4.1927,-4.2454,-4.1857,-4.1072,-4.0479,-4.0992,-4.1309,-4.0664,-4.1622,-4.2563,-4.291,-4.3332,-4.3781,-4.4206,-4.4797,-4.5148,-4.5148,-4.5808,-4.6598,-4.7433,-4.7757,-4.8431,-4.9635,-5.0356,-5.0875,-5.1196,-5.1202,-5.0889,-5.0247,-5.0072,-5.0341,-5.0969,-5.0969,-5.1086,-5.13,-5.13,-5.13,-5.13,-5.1067,-5.0969,-5.0891,-5.0053,-4.9683,-4.9605,-4.8787,-4.8066,-4.7462,-4.7248,-4.6764,-4.6199,-4.6199,-4.6199,-4.6206,-4.62,-4.6206,-4.6215,-4.6255,-4.6099,-4.5767,-4.5178,-4.4204,-4.3226,-4.257,-4.1752,-4.1091,-4.1098,-4.11,-4.1104,-4.1074,-4.1074,-4.1072,-4.1062,-4.1081,-4.1091,-4.1097,-4.1039,-4.0928,-4.0703,-4.0676,-4.0045,-3.8289,-3.7504,-3.7005,-3.6769,-3.612,-3.5708,-3.5702,-3.5507,-3.538,-3.538,-3.4543,-3.406,-3.406,-3.3223,-3.2778,-3.2778,-3.2726,-3.2675,-3.2627,-3.275,-3.2701,-3.257,-3.3164,-3.3353,-4.0441,-4.0354,-4.0099,-4.0556,-4.0658,-4.0806,-4.1437,-4.1011,-4.059,-4.1028,-4.0125,-3.9265,-3.9226,-3.9705,-4.0076,-4.0005,-4.0888,-4.1721,-4.2023,-4.2804,-4.346,-4.3858,-4.4608,-4.5103,-4.5103,-4.5917,-4.6797,-4.7605,-4.8287,-4.9073,-4.9991,-5.056,-5.0944,-5.1115,-5.1115,-5.09,-5.047,-5.0544,-5.0828,-5.1308,-5.1296,-5.13,-5.13,-5.13,-5.13,-5.13,-5.13,-5.13,-5.1261,-5.0774,-5.0579,-5.0482,-4.9644,-4.9021,-4.8514,-4.7774,-4.7189,-4.6725,-4.6336,-4.6199,-4.6199,-4.6209,-4.6193,-4.6216,-4.6234,-4.6237,-4.6106,-4.5655,-4.4918,-4.4159,-4.3661,-4.2611,-4.1674,-4.1674,-4.1382,-4.1093,-4.1102,-4.1108,-4.1093,-4.111,-4.1093,-4.1107,-4.1106,-4.1078,-4.1036,-4.1009,-4.1011,-4.0653,-3.9671,-3.878,-3.7946,-3.7186,-3.6629,-3.614,-3.5747,-3.5702,-3.5706,-3.5706,-3.525,-3.4974,-3.4974,-3.4137,-3.3673,-3.3673,-3.3636,-3.3591,-3.3524,-3.3846,-3.3885,-3.3713,-3.4164,-3.4298,-4.0065,-3.9902,-3.9755,-3.9403,-3.94,-3.9718,-4.0679,-3.9693,-3.8768,-3.9418,-3.832,-3.7434,-3.815,-3.8506,-3.8929,-3.9638,-4.0039,-4.0526,-4.1281,-4.2174,-4.3036,-4.3778,-4.4597,-4.5091,-4.5061,-4.5966,-4.6834,-4.7526,-4.8726,-4.9717,-5.0448,-5.0615,-5.0758,-5.0944,-5.0998,-5.1056,-5.1173,-5.1254,-5.1282,-5.131,-5.1308,-5.1296,-5.13,-5.13,-5.13,-5.13,-5.13,-5.13,-5.13,-5.13,-5.13,-5.1222,-5.0463,-5.0092,-4.982,-4.8378,-4.7696,-4.7384,-4.6628,-4.6297,-4.6199,-4.6199,-4.6199,-4.6199,-4.6199,-4.619,-4.6206,-4.6203,-4.5609,-4.4994,-4.5006,-4.3798,-4.2568,-4.257,-4.1908,-4.1264,-4.1264,-4.1181,-4.1092,-4.1092,-4.1099,-4.1104,-4.1101,-4.1093,-4.1084,-4.1026,-4.1,-4.1006,-4.1003,-4.0231,-3.9116,-3.7617,-3.7244,-3.6769,-3.5965,-3.5761,-3.5707,-3.5707,-3.5701,-3.5704,-3.5704,-3.4974,-3.4568,-3.4568,-3.4568,-3.4524,-3.4398,-3.5155,-3.5402,-3.5155,-3.5138,-3.5054,-3.9674,-3.9318,-3.908,-3.9767,-4.0165,-4.0476,-4.081,-4.015,-3.9342,-3.8901,-3.798,-3.7149,-3.6697,-3.775,-3.8529,-3.7952,-3.9723,-4.1199,-4.1236,-4.2587,-4.3624,-4.3718,-4.4486,-4.501,-4.4931,-4.6414,-4.7419,-4.7504,-4.9047,-5.0087,-5.0404,-5.0488,-5.0596,-5.075,-5.0914,-5.1015,-5.103,-5.1161,-5.1249,-5.131,-5.1291,-5.1304,-5.13,-5.13,-5.13,-5.13,-5.13,0.0,-5.13,-5.13,-5.13,-5.1281,-5.1125,-5.0638,-4.9956,-4.9664,-4.869,-4.7482,-4.7326,-4.6803,-4.6199,-4.6199,-4.6199,-4.6199,-4.6196,-4.6193,-4.6209,-4.6201,-4.5574,-4.4928,-4.4992,-4.425,-4.3468,-4.3466,-4.2818,-4.2171,-4.218,-4.1618,-4.11,-4.1092,-4.1094,-4.1093,-4.1105,-4.1101,-4.1093,-4.1087,-4.1033,-4.0992,-4.1006,-4.0245,-3.9589,-3.9271,-3.7952,-3.7026,-3.6866,-3.6144,-3.5707,-3.5707,-3.5701,-3.5704,-3.5704,-3.5549,-3.5477,-3.5477,-3.5477,-3.5466,-3.545,-3.5585,-3.559,-3.543,-3.533,-3.5187,-3.9124,-3.9252,-3.9494,-3.9563,-4.0122,-4.0478,-3.9799,-3.9029,-3.8203,-3.7373,-3.6562,-3.6027,-3.6128,-3.6831,-3.7553,-3.805,-3.9171,-4.0129,-4.0523,-4.2022,-4.3054,-4.3038,-4.4196,-4.4998,-4.4962,-4.6547,-4.7571,-4.7498,-4.9119,-5.0139,-5.024,-5.0361,-5.0477,-5.0538,-5.0733,-5.0894,-5.0995,-5.1063,-5.1156,-5.1249,-5.1278,-5.1295,-5.1304,-5.1296,-5.13,-5.1296,-5.1263,-5.1249,-5.1244,-5.1161,-5.119,-5.1249,-5.1249,-5.1018,-5.0618,-5.017,-4.9235,-4.8105,-4.7657,-4.6936,-4.6199,-4.6199,-4.6199,-4.6199,-4.6209,-4.6206,-4.6203,-4.6209,-4.5897,-4.5585,-4.5626,-4.4982,-4.4317,-4.4328,-4.3335,-4.2401,-4.2405,-4.1729,-4.1093,-4.1101,-4.1108,-4.1093,-4.1094,-4.1091,-4.1105,-4.1097,-4.108,-4.1037,-4.0989,-4.0639,-4.021,-3.9745,-3.8941,-3.8267,-3.7825,-3.6958,-3.6406,-3.6372,-3.5959,-3.5701,-3.5709,-3.5704,-3.5704,-3.5704,-3.5704,-3.5704,-3.5704,-3.5704,-3.562,-3.5509,-3.543,-3.5289,-3.8638,-3.9197,-3.9851,-3.9458,-3.9922,-4.0152,-3.8952,-3.7954,-3.7033,-3.6039,-3.5283,-3.5016,-3.5719,-3.5883,-3.6425,-3.7994,-3.8353,-3.8795,-3.9842,-4.1374,-4.2458,-4.2659,-4.4045,-4.4991,-4.4967,-4.6566,-4.7547,-4.7485,-4.9081,-5.007,-5.0095,-5.0245,-5.0347,-5.0347,-5.0529,-5.0715,-5.0874,-5.0905,-5.1004,-5.1113,-5.1164,-5.119,-5.1201,-5.1201,-5.121,-5.1234,-5.1169,-5.1161,-5.1156,-5.1037,-5.105,-5.1161,-5.1161,-5.1185,-5.1161,-5.0493,-4.9741,-4.8923,-4.8062,-4.7209,-4.6452,-4.6258,-4.6199,-4.6199,-4.6199,-4.6199,-4.6199,-4.6196,-4.62,-4.6203,-4.6198,-4.5691,-4.5123,-4.4936,-4.3892,-4.2848,-4.2477,-4.1862,-4.1322,-4.1145,-4.11,-4.1108,-4.1108,-4.1093,-4.1092,-4.1091,-4.1102,-4.1085,-4.1022,-4.1009,-4.0737,-4.005,-3.9812,-3.9425,-3.8749,-3.7888,-3.7361,-3.7303,-3.6643,-3.6167,-3.5991,-3.5961,-3.5878,-3.5704,-3.5704,-3.5704,-3.5704,-3.5878,-3.5902,-3.5791,-3.5965,-3.5914,-3.8342,-3.8792,-3.9276,-4.0016,-3.9935,-3.9626,-3.9308,-3.8235,-3.6971,-3.5869,-3.5187,-3.4846,-3.4982,-3.5031,-3.5334,-3.6273,-3.704,-3.8073,-3.9683,-4.1351,-4.2685,-4.3493,-4.4424,-4.4986,-4.4926,-4.6486,-4.7485,-4.7409,-4.8977,-4.9978,-5.0095,-5.012,-5.0133,-5.0133,-5.0317,-5.0446,-5.0457,-5.0633,-5.0748,-5.0835,-5.0844,-5.0871,-5.0944,-5.0944,-5.0965,-5.103,-5.1017,-5.1017,0.0,-5.1004,-5.1004,-5.1017,-5.1017,-5.1024,-5.1024,-5.1075,-5.0538,-4.9693,-4.8943,-4.8105,-4.7248,-4.6452,-4.6199,-4.6199,-4.6199,-4.6199,-4.6199,-4.6199,-4.6199,-4.6206,-4.6203,-4.6138,-4.5878,-4.5086,-4.4829,-4.4333,-4.2735,-4.2331,-4.2041,-4.1254,-4.1104,-4.1093,-4.1093,-4.1094,-4.1101,-4.1092,-4.1093,-4.1092,-4.1099,-4.104,-4.0975,-4.0893,-4.0167,-3.9665,-3.9587,-3.8777,-3.8285,-3.8261,-3.8137,-3.7707,-3.6913,-3.6823,-3.6458,-3.5704,-3.5704,-3.5704,-3.5704,-3.6439,-3.6781,-3.6789,-3.7463,-3.7756,-3.842,-3.9232,-3.9779,-3.9565,-3.9429,-3.907,-3.797,-3.6889,-3.5843,-3.4992,-3.4686,-3.4594,-3.4758,-3.4384,-3.4499,-3.5901,-3.6005,-3.6489,-3.8167,-3.9418,-4.0669,-4.2033,-4.2963,-4.3878,-4.4861,-4.6535,-4.7953,-4.8884,-4.9546,-4.9711,-4.9276,-4.9752,-5.0044,-5.0044,-5.0163,-5.0256,-5.0331,-5.0458,-5.0577,-5.0678,-5.0758,-5.0835,-5.0898,-5.0901,-5.0949,-5.0997,-5.0905,-5.0875,0.0,-5.0833,-5.085,-5.0875,-5.0875,-5.092,-5.1004,-5.1069,-5.0539,-4.9677,-4.8934,-4.8102,-4.725,-4.6458,-4.6199,-4.6199,-4.6199,-4.6199,-4.6199,-4.6199,-4.6199,-4.6199,-4.6206,-4.6203,-4.6105,-4.5764,-4.5292,-4.4757,-4.4055,-4.311,-4.2301,-4.195,-4.1468,-4.1103,-4.1108,-4.1109,-4.1093,-4.11,-4.1108,-4.1093,-4.1092,-4.1083,-4.1064,-4.1069,-4.0705,-4.049,-4.049,-3.9677,-3.9178,-3.9185,-3.8674,-3.818,-3.7802,-3.7767,-3.7586,-3.7265,-3.7224,-3.7193,-3.7212,-3.7541,-3.7671,-3.769,-3.7983,-3.8074,-3.815,-3.9106,-3.9758,-3.9122,-3.8855,-3.8366,-3.6891,-3.5909,-3.5082,-3.429,-3.4269,-3.445,-3.4591,-3.3812,-3.3628,-3.5084,-3.4868,-3.5001,-3.6461,-3.7816,-3.9123,-4.0328,-4.1442,-4.2671,-4.4094,-4.6238,-4.8226,-4.9846,-4.9711,-4.9305,-4.8736,-4.9041,-4.9352,-4.9618,-4.9683,-4.9879,-5.0214,-5.0291,-5.0372,-5.0489,-5.0577,-5.0672,-5.0754,-5.0741,-5.0803,-5.0871,-5.078,-5.0745,0.0,-5.0712,-5.073,-5.0763,-5.0763,-5.0822,-5.0902,-5.094,-5.054,-4.9877,-4.8881,-4.8133,-4.7464,-4.6461,-4.6135,-4.6154,-4.6192,-4.6199,-4.6199,-4.6199,-4.6199,-4.6199,-4.6199,-4.6199,-4.6199,-4.6206,-4.5725,-4.5205,-4.4952,-4.3797,-4.2717,-4.2446,-4.1692,-4.1095,-4.1103,-4.1108,-4.1109,-4.1109,-4.1101,-4.1108,-4.1092,-4.1094,-4.1108,-4.1109,-4.1052,-4.1029,-4.1034,-4.0443,-4.0085,-4.0073,-3.9497,-3.901,-3.8723,-3.8695,-3.8554,-3.8315,-3.8244,-3.8241,-3.823,-3.8475,-3.8586,-3.8586,-3.8856,-3.8884,-3.7334,-3.8158,-3.8822,-3.8896,-3.8297,-3.7456,-3.6448,-3.5739,-3.4992,-3.3931,-3.4074,-3.4386,-3.4397,-3.326,-3.2572,-3.3383,-3.3524,-3.3846,-3.4793,-3.7053,-3.8637,-3.8727,-4.0195,-4.1529,-4.2356,-4.5445,-4.8111,-4.9779,-4.9153,-4.8717,-4.8698,-4.7902,-4.7826,-4.8698,-4.8783,-4.9188,-4.9986,-5.007,-5.0145,-5.02,-5.02,-5.0278,-5.0412,-5.0412,-5.0478,-5.0603,-5.0603,-5.0633,0.0,-5.0693,-5.0693,-5.0693,-5.0693,-5.0693,-5.0712,-5.0771,-5.0803,-5.0549,-4.8954,-4.8393,-4.8115,-4.6517,-4.6003,-4.6036,-4.6162,-4.6199,-4.6199,-4.6199,-4.6199,-4.6199,-4.6199,-4.6199,-4.6203,-4.62,-4.6183,-4.5952,-4.5094,-4.4267,-4.3431,-4.2579,-4.17,-4.1094,-4.1094,-4.1103,-4.1109,-4.1109,-4.1109,-4.1097,-4.1091,-4.1092,-4.1094,-4.1108,-4.1107,-4.1093,-4.1097,-4.1036,-4.0986,-4.0986,-4.0914,-4.052,-3.9719,-3.9624,-3.9174,-3.8311,-3.8302,-3.8296,-3.8308,-3.9093,-3.9481,-3.9501,-4.0371,-4.0681,-3.6384,-3.674,-3.6956,-3.6908,-3.6304,-3.5611,-3.5254,-3.4607,-3.3991,-3.3753,-3.3374,-3.3179,-3.3469,-3.2219,-3.165,-3.3238,-3.3004,-3.3335,-3.5436,-3.6391,-3.7774,-4.0127,-4.2375,-4.4061,-4.4914,-4.5956,-4.7018,-4.8098,-4.7959,-4.758,-4.7018,-4.6733,-4.6961,-4.7776,-4.782,-4.8251,-4.9104,-4.9169,-4.9505,-5.005,-5.012,-5.0207,-5.0325,-5.0325,-5.0435,-5.0603,-5.0603,-5.0633,-5.0712,-5.0712,-5.0712,-5.0712,-5.0712,-5.0712,-5.0693,-5.0721,-5.072,-5.0508,-4.8879,-4.8326,-4.807,-4.6441,-4.5958,-4.6008,-4.605,-4.6127,-4.6199,-4.6199,-4.6199,-4.6199,-4.6199,-4.6199,-4.6199,-4.6206,-4.6206,-4.6128,-4.5855,-4.465,-4.3542,-4.3275,-4.2078,-4.1093,-4.1092,-4.1095,-4.1101,-4.1108,-4.1109,-4.1093,-4.1098,-4.1099,-4.1105,-4.1093,-4.1094,-4.111,-4.1103,-4.1074,-4.1078,-4.1065,-4.1052,-4.0905,-4.0602,-4.056,-4.0403,-4.0071,-4.0083,-4.0072,-4.0086,-4.0289,-4.0389,-4.041,-4.0681,-4.0778,-3.5373,-3.5861,-3.6035,-3.6009,-3.5377,-3.4746,-3.472,-3.4058,-3.3404,-3.3176,-3.2798,-3.2583,-3.2841,-3.1634,-3.1096,-3.2614,-3.2471,-3.2862,-3.4876,-3.568,-3.7213,-4.0344,-4.264,-4.4421,-4.5596,-4.6013,-4.6525,-4.734,-4.7112,-4.6733,-4.6222,-4.588,-4.5937,-4.643,-4.6771,-4.734,-4.8206,-4.8586,-4.9029,-4.9549,-4.9892,-5.012,-5.0231,-5.0255,-5.0337,-5.0489,-5.0532,-5.0603,0.0,-5.0683,-5.0712,-5.0712,-5.0712,-5.0712,-5.0712,-5.0712,-5.0712,-5.0452,-4.8801,-4.8229,-4.7965,-4.6355,-4.5879,-4.5958,-4.5958,-4.6069,-4.6199,-4.6199,-4.6199,-4.6199,-4.6199,-4.6199,-4.6199,-4.6199,-4.6199,-4.6199,-4.6199,-4.4832,-4.3604,-4.3595,-4.2239,-4.11,-4.1098,-4.1103,-4.1092,-4.1103,-4.1103,-4.1104,-4.1108,-4.1109,-4.1094,-4.1105,-4.1106,-4.1092,-4.1104,-4.1095,-4.1097,-4.11,-4.1098,-4.1087,-4.1039,-4.1045,-4.1011,-4.0933,-4.093,-4.0937,-4.0898,-4.0834,-4.0808,-4.079,-4.0803,-4.0797,0.0,-3.5122,-3.5647,-3.5647,-3.5056,-3.4433,-3.444,-3.3814,0.0,-3.227,-3.2215,-3.2326,-3.2394,-3.1406,-3.0833,-3.1652,-3.2046,-3.2604,-3.3609,-3.5318,-3.737,-3.9859,-4.1586,-4.3178,-4.4731,-4.5634,-4.6411,-4.7169,-4.6525,-4.6108,-4.6108,-4.5331,-4.4895,-4.4895,-4.5691,-4.6506,-4.7302,-4.8168,-4.8668,-4.8808,-4.9606,-5.0031,-5.0095,-5.017,-5.0212,-5.0302,-5.0416,-5.0521,-5.0603,-5.0682,-5.0683,-5.0683,-5.0712,-5.0702,-5.0683,-5.0712,-5.0654,-5.0366,-4.8682,-4.8067,-4.7758,-4.6206,-4.5782,-4.588,-4.5905,-4.6027,-4.6192,-4.6192,-4.6196,-4.6199,-4.6199,-4.6199,-4.6199,-4.6199,-4.6199,-4.6199,-4.6199,-4.4832,-4.3601,-4.3601,-4.2253,-4.1095,-4.1095,-4.1106,-4.1096,-4.109,-4.1094,-4.1097,-4.1106,-4.1109,-4.1109,-4.1109,-4.1109,-4.1097,-4.109,-4.1093,-4.1102,-4.1099,-4.1095,-4.1098,-4.1097,-4.1091,-4.1062,-4.1009,-4.1007,-4.0975,-4.0893,-4.0832,-4.0806,-4.08,-4.079,-4.0797,-3.1887,0.0,-3.2329,-3.2329,-3.2129,-3.196,0.0,-3.1788,-3.1574,-3.1324,-3.0821,-3.0665,-3.1446,-3.0833,-3.0532,-3.1485,-3.2857,-3.4128,-3.5146,-3.8527,-4.1363,-4.2576,-4.3665,-4.4454,-4.4783,-4.506,-4.5274,-4.5464,-4.5312,-4.5217,-4.5217,-4.5009,-4.4895,-4.4895,-4.5103,-4.5615,-4.6468,-4.7302,-4.8054,-4.8731,-4.9527,-4.9965,-5.0031,-5.0044,-5.0101,-5.0243,-5.0314,-5.0404,-5.0521,-5.0603,-5.0623,-5.0623,-5.0673,-5.0663,-5.0623,-5.0673,-5.0289,-4.9548,-4.8471,-4.7702,-4.7027,-4.6013,-4.5725,-4.5768,-4.5867,-4.5972,-4.6046,-4.6046,-4.6123,-4.6199,-4.6199,-4.6199,-4.6199,-4.6199,-4.6199,-4.6199,-4.6199,-4.4832,-4.3601,-4.3601,-4.2241,-4.11,-4.1095,-4.1098,-4.1106,-4.1096,-4.1107,-4.1094,-4.1097,-4.1104,-4.1109,-4.1109,-4.1109,-4.1091,-4.1097,-4.109,-4.1093,-4.1103,-4.1106,-4.1109,-4.11,-4.1109,-4.1088,-4.1085,-4.1029,-4.0961,-4.09,-4.0878,-4.0888,-4.0881,-4.0812,-4.0808,-3.0547,-3.0833,-3.1124,-3.1146,-3.1106,-3.1066,-3.1079,-3.1079,-3.0943,-3.0527,-3.011,-3.0082,-3.0992,-3.0586,-3.065,-3.2309,-3.3543,-3.4934,-3.6742,-3.975,-4.2073,-4.2905,-4.3774,-4.4461,-4.4808,-4.487,-4.4895,-4.4895,-4.4895,-4.4895,-4.4895,-4.4895,-4.4895,-4.4895,-4.4895,-4.5122,-4.5596,-4.643,-4.7264,-4.8111,-4.8964,-4.9565,-4.9965,-4.9992,-5.0044,-5.0101,-5.02,-5.0302,-5.0371,-5.0468,-5.05,-5.0511,-5.0573,-5.0613,-5.0603,-5.0633,-5.0125,-4.9279,-4.8394,-4.7317,-4.6238,-4.5795,-4.5645,-4.5673,-4.5742,-4.5802,-4.5871,-4.5936,-4.6022,-4.6119,-4.6119,-4.6158,-4.6199,-4.6199,-4.6199,-4.6199,-4.6199,-4.4832,-4.3601,-4.3601,-4.2257,-4.1091,-4.1103,-4.1103,-4.1109,-4.1103,-4.1093,-4.11,-4.1092,-4.1099,-4.1104,-4.1108,-4.1109,-4.1109,-4.1109,-4.1099,-4.111,-4.1093,-4.1109,-4.1099,-4.1094,-4.1093,-4.1092,-4.111,-4.1036,-4.0979,-4.0957,-4.0924,-4.0897,-4.0903,-4.0867,-4.0829,-2.9849,-3.035,-3.0812,-3.0747,-3.078,-3.0794,-3.0747,-3.078,-3.0618,-2.9947,-2.9893,-3.0237,-3.1034,-3.0878,-3.1274,-3.3323,-3.4181,-3.5596,-3.8524,-4.0219,-4.1536,-4.2564,-4.3345,-4.4089,-4.4814,-4.4883,-4.4895,-4.4895,-4.4895,-4.4895,-4.4895,-4.4895,-4.4895,-4.4895,-4.4895,-4.4895,-4.4895,-4.5767,-4.6544,-4.7226,-4.8092,-4.8926,-4.9722,-4.9775,-4.9878,-5.0005,-5.0133,0.0,-5.0207,-5.0325,-5.0371,-5.0401,-5.0478,-5.0445,-5.0361,-5.0381,-4.9807,-4.8885,-4.8029,-4.6778,-4.5594,-4.5594,-4.5594,-4.5594,-4.5594,-4.5632,-4.5703,-4.5822,-4.5927,-4.5983,-4.5983,-4.6069,-4.6154,-4.6162,-4.6165,-4.6189,-4.6196,-4.4832,-4.3601,-4.3601,-4.2257,-4.1107,-4.1107,-4.1107,-4.1094,-4.1109,-4.1095,-4.1106,-4.1105,-4.1109,-4.1095,-4.1106,-4.1106,-4.1108,-4.1109,-4.1109,-4.1097,-4.1109,-4.1091,-4.1093,-4.1103,-4.1095,-4.1098,-4.11,-4.1042,-4.1013,-4.1013,-4.0957,-4.0917,-4.0917,-4.0903,-4.0868,-2.9634,-2.9906,-2.9847,-2.9289,-2.9572,-2.9816,-2.9208,-2.9533,-2.9947,-2.9821,-3.0346,-3.1057,-3.1872,-3.2498,-3.3002,-3.3383,-3.4832,-3.7188,-4.0843,-4.1636,-4.2485,-4.4216,-4.4581,-4.4726,-4.4808,-4.4858,-4.4895,-4.4895,-4.4895,-4.4895,-4.4895,-4.4895,-4.4895,-4.4895,-4.4895,-4.4895,-4.4895,-4.5767,-4.6259,-4.6392,-4.7207,-4.8054,-4.8888,-4.8901,-4.928,-4.9925,0.0,-5.005,-5.0133,-5.0267,-5.0314,-5.0325,-5.0438,-5.0019,-4.9335,-4.9468,-4.8529,-4.7088,-4.6269,-4.5825,-4.5594,-4.5594,-4.5594,-4.5594,-4.5594,-4.5612,-4.5629,-4.5646,-4.5778,-4.591,-4.591,-4.5922,-4.595,-4.6022,-4.6036,-4.6054,-4.6189,-4.4832,-4.3601,-4.3601,-4.2257,-4.1107,-4.1107,-4.1107,-4.111,-4.1094,-4.1106,-4.1098,-4.11,-4.1091,-4.1103,-4.1095,-4.1095,-4.1099,-4.1108,-4.1109,-4.1091,-4.1094,-4.1107,-4.1094,-4.1104,-4.1106,-4.1092,-4.1105,-4.1089,-4.1085,-4.1085,-4.1029,-4.0979,-4.0979,-4.0937,-4.0896,-2.9047,-2.9789,-3.0377,-3.0067,-3.0549,-3.0998,-3.0663,-3.1193,-3.1618,-3.1197,-3.1397,-3.189,-3.2705,-3.3158,-3.3854,-3.5293,-3.6595,-3.8265,-4.0591,-4.0956,-4.1694,-4.3649,-4.3922,-4.4171,-4.4795,-4.487,-4.4895,-4.4895,-4.4895,-4.4895,-4.4895,-4.4895,-4.4895,-4.4895,-4.4895,-4.4895,-4.4895,-4.5293,-4.5729,-4.6203,-4.6563,-4.7188,-4.7984,-4.7984,-4.8193,-4.8547,0.0,-4.8599,-4.8656,-4.8756,-4.8793,-4.8786,-4.8934,-4.8761,-4.8351,-4.8017,-4.7424,-4.6685,-4.5829,-4.5568,-4.5594,-4.5594,-4.5594,-4.5594,-4.5594,-4.5594,-4.5594,-4.5594,-4.5696,-4.5789,-4.5789,-4.5848,-4.5904,-4.5944,-4.5956,-4.5977,-4.6074,-4.474,-4.3561,-4.3594,-4.2257,-4.1107,-4.1107,-4.1107,-4.1107,-4.1107,-4.1097,-4.1106,-4.1095,-4.11,-4.1108,-4.1103,-4.1109,-4.1095,-4.1101,-4.1106,-4.1109,-4.1109,-4.1106,-4.1093,-4.1094,-4.1105,-4.1109,-4.1094,-4.1096,-4.1095,-4.1107,-4.1062,-4.1059,-4.1059,-4.0995,-4.0957,-2.8835,-2.9916,-3.1053,-3.122,-3.1727,-3.2252,-3.2433,-3.2958,-3.3284,-3.285,-3.2904,-3.323,-3.3846,-3.4117,-3.4972,-3.714,-3.8193,-3.9077,-4.0151,-4.0477,-4.1258,-4.3075,-4.3287,-4.3657,-4.463,-4.4713,-4.4713,-4.4739,-4.4796,-4.4821,-4.4821,-4.487,-4.4895,-4.4895,-4.4895,-4.4895,-4.4895,-4.4895,-4.5236,-4.5899,-4.5899,-4.6335,-4.7112,-4.7112,-4.7226,-4.7397,-4.7397,-4.7397,-4.7409,-4.7473,-4.7498,-4.751,-4.7619,-4.7598,-4.742,-4.6673,-4.6426,-4.6378,-4.5725,-4.5522,-4.5559,-4.5586,-4.5586,-4.5577,-4.5605,-4.5594,-4.5594,-4.5594,-4.5651,-4.5685,-4.5685,-4.5752,-4.5822,-4.5848,-4.5854,-4.588,-4.5958,-4.4647,-4.3481,-4.3569,-4.222,-4.1055,-4.1088,-4.1107,-4.1107,-4.1107,-4.1107,-4.1094,-4.1109,-4.1109,-4.1095,-4.1108,-4.11,-4.1107,-4.1094,-4.1103,-4.1109,-4.1109,-4.1103,-4.1108,-4.1108,-4.1094,-4.1107,-4.1094,-4.1101,-4.11,-4.1106,-4.1094,-4.1107,-4.1107,-4.1059,-4.1025,-2.9513,-3.0346,-3.1179,-3.1926,-3.2162,-3.2397,-3.314,-3.3357,-3.361,-3.4298,-3.5007,-3.555,-3.5623,-3.6236,-3.7049,-3.7972,-3.8805,-3.9704,-4.0781,-4.1583,-4.2507,-4.3711,-4.3835,-4.3937,-4.4136,-4.4151,-4.4181,-4.4236,-4.4472,-4.4619,-4.4619,-4.4815,-4.4895,-4.4895,-4.4895,-4.4895,-4.4895,-4.4895,-4.4933,-4.499,-4.499,-4.5445,-4.6278,-4.6278,-4.6676,-4.7397,-4.7397,-4.7397,-4.7409,-4.7473,-4.7498,-4.751,-4.7577,-4.7194,-4.6511,-4.5771,-4.5505,-4.5496,-4.5505,-4.5457,-4.5429,-4.5559,-4.5559,-4.5513,-4.5577,-4.5594,-4.5594,-4.5594,-4.5603,-4.5612,-4.5612,-4.5612,-4.5635,-4.5696,-4.5699,-4.5754,-4.588,-4.4541,-4.3341,-4.3476,-4.2095,-4.0953,-4.1081,-4.1107,-4.1107,-4.1107,-4.1107,-4.111,-4.1091,-4.1091,-4.1097,-4.1095,-4.1098,-4.1108,-4.1092,-4.1103,-4.1109,-4.1109,-4.1091,-4.1091,-4.1091,-4.1108,-4.1092,-4.1093,-4.1098,-4.1092,-4.1109,-4.1092,-4.1107,-4.1107,-4.1107,-4.1088,-2.8974,-3.0369,-3.1818,-3.2125,-3.294,-3.39,-3.47,-3.5276,-3.5745,-3.6035,-3.6327,-3.6544,-3.6544,-3.7212,-3.7846,-3.8154,-3.8879,-3.9693,-4.0575,-4.1376,-4.2318,-4.3448,-4.359,-4.3689,-4.3946,-4.3977,-4.3977,-4.4008,-4.4099,-4.4265,-4.4448,-4.4544,-4.4681,-4.4883,-4.4895,-4.4895,-4.4895,-4.4895,-4.4895,-4.4895,-4.4895,-4.5066,-4.5388,-4.5388,-4.5558,-4.5843,-4.5843,-4.5843,-4.5843,-4.5867,-4.588,-4.5892,-4.5965,-4.5845,-4.56,-4.535,-4.5277,-4.5279,-4.536,-4.539,-4.54,-4.5458,-4.5486,-4.5495,-4.5485,-4.5504,-4.555,-4.555,-4.555,-4.5559,-4.5586,-4.5594,-4.5603,-4.5635,-4.5632,-4.5665,-4.5766,-4.4433,-4.326,-4.3355,-4.1999,-4.0845,-4.0893,-4.0956,-4.098,-4.098,-4.1048,-4.1107,-4.1107,-4.1107,-4.1091,-4.11,-4.1109,-4.1108,-4.1092,-4.1097,-4.1103,-4.1109,-4.1109,-4.1109,-4.1109,-4.1097,-4.1105,-4.1092,-4.1093,-4.1103,-4.1094,-4.11,-4.1098,-4.1107,-4.1107,-4.1107,-2.898,-3.0568,-3.2252,-3.2524,-3.361,-3.4878,-3.5946,-3.6399,-3.6777,-3.7267,-3.7375,-3.7375,-3.7375,-3.7828,-3.8209,-3.8209,-3.9061,-3.993,-4.042,-4.1397,-4.2359,-4.314,-4.3231,-4.3355,-4.3627,-4.366,-4.366,-4.3675,-4.3756,-4.3915,-4.4143,-4.4246,-4.4421,-4.4648,-4.4757,-4.4815,-4.4815,-4.4858,-4.4895,-4.4895,-4.4895,-4.4895,-4.4895,-4.4895,-4.4895,-4.4895,-4.4895,-4.4895,-4.4895,-4.4895,-4.4895,-4.4907,-4.4967,-4.5033,-4.508,-4.5148,-4.517,-4.5181,-4.5254,-4.5286,-4.5317,-4.5348,-4.5399,-4.54,-4.538,-4.54,-4.5429,-4.5467,-4.5477,-4.5486,-4.5513,-4.5568,-4.5594,-4.5594,-4.5594,-4.5543,-4.5306,-4.4157,-4.3113,-4.2892,-4.1736,-4.0773,-4.0801,-4.084,-4.0873,-4.0873,-4.0968,-4.1045,-4.1038,-4.1075,-4.1107,-4.1107,-4.1106,-4.1103,-4.11,-4.1105,-4.1094,-4.1104,-4.1104,-4.1106,-4.1109,-4.1109,-4.1097,-4.1107,-4.1091,-4.1094,-4.1098,-4.1103,-4.11,-4.1092,-4.1097,-4.1107,-2.9784,-3.098,-3.2397,-3.3194,-3.4009,-3.5041,-3.6633,-3.6381,-3.6272,-3.7866,-3.8209,-3.8209,-3.8209,-3.8209,-3.8209,-3.8209,-3.9496,-4.0492,-4.0492,-4.1886,-4.2901,-4.2901,-4.2901,-4.2938,-4.3086,-4.3104,-4.3141,-4.3196,-4.3443,-4.3579,-4.3595,-4.3905,-4.4109,-4.4091,-4.4421,-4.4592,-4.4592,-4.4783,-4.4883,-4.4883,-4.4883,-4.4895,-4.4895,-4.4895,-4.4895,-4.4895,-4.4895,-4.4895,-4.4895,-4.4895,-4.4895,-4.4907,-4.4967,-4.501,-4.4991,-4.5061,-4.5103,-4.5114,-4.517,-4.5159,-4.5125,-4.5246,-4.5246,-4.5203,-4.5286,-4.5297,-4.5317,-4.5388,-4.5408,-4.5399,-4.539,-4.5504,-4.5594,-4.5594,-4.5594,-4.5344,-4.4489,-4.3662,-4.2848,-4.2044,-4.1254,-4.0713,-4.079,-4.0807,-4.0807,-4.0807,-4.0859,-4.0896,-4.0893,-4.1023,-4.1107,-4.1107,-4.1106,-4.1095,-4.1095,-4.1106,-4.1098,-4.1092,-4.1094,-4.1099,-4.1109,-4.1109,-4.1109,-4.1109,-4.1106,-4.1092,-4.1092,-4.1099,-4.1094,-4.1092,-4.1092,-4.111,-2.9119,-3.0966,-3.2977,-3.2632,-3.4443,-3.6415,-3.6886,-3.6832,-3.6941,-3.7991,-3.8209,-3.8209,-3.8209,-3.8209,-3.8209,-3.8209,-3.9496,-4.0492,-4.0492,-4.1886,-4.2901,-4.2901,-4.2901,-4.2919,-4.2975,-4.2957,-4.2957,-4.2994,-4.3069,-4.3214,-4.3458,-4.3627,-4.3857,-4.4091,-4.424,-4.4312,-4.4312,-4.4383,-4.4412,-4.4412,-4.4412,-4.4576,-4.4895,-4.4895,-4.4895,-4.4895,-4.4895,-4.4895,-4.4895,-4.4895,-4.4895,-4.4883,-4.4776,-4.4725,-4.4738,-4.4783,-4.4783,-4.4789,-4.4998,-4.5057,-4.5045,-4.508,-4.5148,-4.5192,-4.517,-4.5192,-4.5235,-4.5307,-4.5328,-4.5348,-4.5381,-4.5429,-4.5476,-4.5513,-4.5099,-4.4608,-4.4365,-4.3181,-4.2112,-4.1882,-4.1139,-4.0576,-4.0593,-4.0662,-4.0726,-4.0726,-4.0748,-4.0784,-4.0815,-4.0948,-4.103,-4.103,-4.1032,-4.1029,-4.1039,-4.1073,-4.1106,-4.1098,-4.1109,-4.1099,-4.1109,-4.1109,-4.1109,-4.1109,-4.1095,-4.1104,-4.1092,-4.1094,-4.1105,-4.1094,-4.1103,-4.11,-3.0079,-3.1908,-3.3846,-3.3665,-3.5328,-3.7085,-3.7393,-3.7484,-3.7611,-3.81,-3.8209,-3.8209,-3.8209,-3.8209,-3.8209,-3.8209,-3.9496,-4.0492,-4.0492,-4.1886,-4.2901,-4.2901,-4.2901,-4.2901,-4.2901,-4.2901,-4.2901,-4.2901,-4.2901,-4.2995,-4.3195,-4.3339,-4.3495,-4.3747,-4.3902,-4.403,-4.4079,-4.4166,-4.4192,-4.4192,-4.4192,-4.4336,-4.4616,-4.4616,-4.4616,-4.4635,-4.4745,-4.477,-4.4802,-4.4858,-4.4846,-4.4757,-4.4646,-4.4592,-4.4592,-4.4532,-4.4546,-4.4619,-4.4802,-4.4883,-4.4955,-4.4955,-4.5003,-4.5061,-4.5026,-4.5057,-4.5084,-4.5159,-4.5181,-4.5203,-4.53,-4.5063,-4.4834,-4.4949,-4.4603,-4.4075,-4.341,-4.2477,-4.1662,-4.1316,-4.0817,-4.046,-4.046,-4.055,-4.061,-4.061,-4.0635,-4.0681,-4.0789,-4.0878,-4.0935,-4.0992,-4.1007,-4.0999,-4.1009,-4.1049,-4.1064,-4.1056,-4.1091,-4.1107,-4.1103,-4.1108,-4.1109,-4.1109,-4.1109,-4.1095,-4.1105,-4.109,-4.1094,-4.1102,-4.1104,-4.1103,-3.1799,-3.3212,-3.4679,-3.5478,-3.6399,-3.7303,-3.8028,-3.8209,-3.8209,-3.8209,-3.8209,-3.8209,-3.8209,-3.8209,-3.8209,-3.8209,-3.9441,-4.042,-4.0492,-4.1814,-4.2829,-4.2901,-4.2901,-4.2901,-4.2901,-4.2901,-4.2901,-4.2901,-4.2901,-4.2901,-4.2901,-4.303,-4.3087,-4.3087,-4.3385,-4.3601,-4.3645,-4.3806,-4.3927,-4.3927,-4.3983,-4.402,-4.402,-4.4158,-4.4192,-4.4206,-4.4463,-4.4565,-4.4592,-4.4757,-4.4732,-4.4565,-4.4551,-4.4537,-4.451,-4.4254,-4.4331,-4.4537,-4.4565,-4.468,-4.4846,-4.4846,-4.4858,-4.487,-4.487,-4.4902,-4.4907,-4.4967,-4.4991,-4.4995,-4.5063,-4.4494,-4.3916,-4.3944,-4.3943,-4.355,-4.2026,-4.1642,-4.1355,-4.0541,-4.0407,-4.0407,-4.0407,-4.0449,-4.0493,-4.0474,-4.0546,-4.0633,-4.0751,-4.0787,-4.0844,-4.0971,-4.0988,-4.0992,-4.0992,-4.0991,-4.0993,-4.1007,-4.1064,-4.1086,-4.1109,-4.1103,-4.1108,-4.1109,-4.1109,-4.1109,-4.1109,-4.1105,-4.1091,-4.1092,-4.11,-4.1095,-3.0437,-3.1944,-3.3846,-3.4661,-3.6399,-3.7991,-3.8172,-3.8209,-3.8209,-3.8209,-3.8209,-3.8209,-3.8209,-3.8209,-3.8209,-3.8209,-3.9007,-3.984,-4.042,-4.1343,-4.2194,-4.2829,-4.2901,-4.2901,-4.2901,-4.2901,-4.2901,-4.2901,-4.2901,-4.2901,-4.2901,-4.303,-4.2814,-4.2196,-4.239,-4.2234,-4.1644,-4.1721,-4.177,-4.177,-4.2396,-4.2726,-4.2726,-4.3747,-4.4192,-4.4192,-4.4269,-4.4283,-4.4298,-4.4322,-4.4327,-4.4269,-4.4113,-4.4055,-4.4036,-4.3992,-4.3989,-4.4067,-4.4225,-4.4308,-4.4336,-4.4336,-4.45,-4.4672,-4.4672,-4.477,-4.4907,-4.4967,-4.4991,-4.4881,-4.4333,-4.404,-4.3586,-4.2305,-4.2078,-4.2067,-4.1768,-4.1163,-4.0618,-4.0445,-4.0407,-4.0407,-4.0407,-4.0415,-4.0396,-4.0342,-4.0452,-4.0512,-4.0488,-4.0675,-4.0818,-4.0846,-4.0946,-4.0995,-4.0995,-4.0992,-4.0991,-4.0993,-4.101,-4.1045,-4.1103,-4.1107,-4.1101,-4.1109,-4.1109,-4.1109,-4.1109,-4.1094,-4.1103,-4.1092,-4.109,-4.1094,-3.0853,-3.2144,-3.3773,-3.5349,-3.6979,-3.8209,-3.8209,-3.8209,-3.8209,-3.8209,-3.8209,-3.8209,-3.8209,-3.8209,-3.8209,-3.8209,-3.8879,-3.9532,-3.993,-4.0637,-4.127,-4.1705,-4.1759,-4.1759,-4.1759,-4.1759,-4.1759,-4.1759,-4.1759,-4.1759,-4.1759,-4.1814,-4.1687,-4.1342,-4.1429,-4.1333,-4.1014,-4.1029,-4.1062,-4.1113,-4.1534,-4.1937,-4.234,-4.3393,-4.3921,-4.4064,-4.4064,-4.4064,-4.4064,-4.4166,-4.4151,-4.4048,-4.3945,-4.3897,-4.3881,-4.3751,-4.3783,-4.3913,-4.4036,-4.4121,-4.4192,-4.4192,-4.4298,-4.443,-4.4565,-4.4672,-4.477,-4.4926,-4.4659,-4.4303,-4.3943,-4.3262,-4.2436,-4.1594,-4.1455,-4.1409,-4.1055,-4.0615,-4.0281,-4.0253,-4.0253,-4.0281,-4.0309,-4.0326,-4.0334,-4.0307,-4.0349,-4.0408,-4.0397,-4.0515,-4.0648,-4.0788,-4.0856,-4.0927,-4.0945,-4.0991,-4.1007,-4.1,-4.1006,-4.1026,-4.1045,-4.1086,-4.1103,-4.1094,-4.1094,-4.1097,-4.1103,-4.1103,-4.1091,-4.1104,-4.1093,-4.1092,-3.1419,-3.2687,-3.4117,-3.627,-3.7502,-3.8209,-3.8209,-3.8209,-3.8209,-3.8209,-3.8209,-3.8209,-3.8209,-3.8209,-3.8209,-3.8209,-3.877,-3.9224,-3.9369,-3.993,-4.0347,-4.0474,-4.0492,-4.0492,-4.0492,-4.0492,-4.0492,-4.0492,-4.0492,-4.0492,-4.0492,-4.0492,-4.0491,-4.047,-4.0488,-4.0519,-4.0544,-4.056,-4.0592,-4.0657,-4.082,-4.1313,-4.2121,-4.2928,-4.3505,-4.3832,-4.3832,-4.3832,-4.3849,-4.3999,-4.3986,-4.3832,-4.3832,-4.3832,-4.38,-4.3565,-4.3651,-4.3832,-4.3832,-4.3939,-4.4072,-4.4072,-4.4121,-4.4181,-4.4407,-4.4416,-4.4366,-4.4537,-4.4026,-4.34,-4.3291,-4.2234,-4.1206,-4.1087,-4.1043,-4.0886,-4.03,-4.0186,-4.0166,-4.0117,-4.0106,-4.0127,-4.0176,-4.0244,-4.028,-4.028,-4.0289,-4.0325,-4.0375,-4.0389,-4.0485,-4.0707,-4.0776,-4.0829,-4.0883,-4.0941,-4.0982,-4.1006,-4.1,-4.1006,-4.1,-4.1058,-4.1073,-4.1081,-4.1086,-4.1096,-4.1107,-4.1107,-4.1095,-4.1108,-4.1106,-4.1091,-3.0003,-3.2234,-3.4679,-3.5711,-3.7087,-3.8209,-3.8209,-3.8209,-3.8209,-3.8209,-3.8209,-3.8209,-3.8209,-3.8209,-3.8209,-3.8209,-3.8299,-3.8607,-3.9297,-3.9478,-3.9786,-4.042,-4.0492,-4.0492,-4.0492,-4.0492,-4.0492,-4.0492,-4.0492,-4.0492,-4.0492,-4.0492,-4.022,-3.9603,-3.9619,-3.9343,-3.8667,-3.8777,-3.8839,-3.8855,-3.9667,-4.0487,-4.1279,-4.2084,-4.2854,-4.3548,-4.3548,-4.3548,-4.3566,-4.3582,-4.3582,-4.3548,-4.3548,-4.3548,-4.3549,-4.3496,-4.3513,-4.3548,-4.3548,-4.3565,-4.3599,-4.3599,-4.3749,-4.3945,-4.3992,-4.3625,-4.3236,-4.3264,-4.2801,-4.2128,-4.1246,-4.0986,-4.0746,-3.9883,-3.9671,-3.9743,-4.0045,-4.0117,-4.0117,-4.0106,-4.0106,-4.0087,-4.0117,-4.0176,-4.0215,-4.0215,-4.0253,-4.0301,-4.031,-4.0368,-4.0414,-4.0454,-4.0655,-4.08,-4.0812,-4.0868,-4.0941,-4.1006,-4.0991,-4.1003,-4.1003,-4.1006,-4.1009,-4.1011,-4.1078,-4.11,-4.11,-4.11,-4.1093,-4.1095,-4.1101,-4.1109,-3.0184,-3.2162,-3.4244,-3.5478,-3.6671,-3.7647,-3.81,-3.8209,-3.8209,-3.8209,-3.8209,-3.8209,-3.8209,-3.8209,-3.8209,-3.8209,-3.8209,-3.8317,-3.868,-3.8734,-3.8861,-3.917,-3.9206,-3.9206,-3.9206,-3.9206,-3.9206,-3.9206,-3.9206,-3.9206,-3.9206,-3.9206,-3.9061,-3.8752,-3.8768,-3.862,-3.8307,-3.8354,-3.8433,-3.851,-3.8991,-3.9643,-4.0432,-4.0781,-4.1644,-4.2837,-4.3313,-4.3515,-4.3515,-4.3515,-4.3515,-4.3515,-4.3515,-4.3515,-4.3515,-4.3515,-4.3515,-4.3515,-4.3515,-4.3515,-4.3515,-4.3515,-4.3583,-4.3625,-4.3328,-4.3045,-4.2757,-4.2417,-4.1804,-4.1164,-4.0715,-4.0306,-3.9895,-3.9457,-3.9337,-3.9401,-3.9599,-3.9781,-3.9911,-3.9965,-4.0026,-4.0046,-4.0046,-4.0098,-4.0157,-4.0196,-4.0234,-4.0253,-4.0301,-4.0327,-4.036,-4.0397,-4.05,-4.0635,-4.0788,-4.0834,-4.0863,-4.0941,-4.0978,-4.0991,-4.0999,-4.1,-4.1,-4.0999,-4.1029,-4.1036,-4.1042,-4.1042,-4.1059,-4.1103,-4.1097,-4.1108,-3.0274,-3.1709,-3.3176,-3.479,-3.5783,-3.6651,-3.7665,-3.7901,-3.7955,-3.8172,-3.8209,-3.8209,-3.8209,-3.8209,-3.8209,-3.8209,-3.8209,-3.8209,-3.8209,-3.8209,-3.8209,-3.8209,-3.8209,-3.8209,-3.8209,-3.8209,-3.8209,-3.8209,-3.8209,-3.8209,-3.8209,-3.8209,-3.8209,-3.8209,-3.8209,-3.8207,-3.8274,-3.8323,-3.8368,-3.8478,-3.8593,-3.8954,-3.9541,-3.9777,-4.0529,-4.1721,-4.2745,-4.3185,-4.3221,-4.3423,-4.3515,-4.3515,-4.3515,-4.3515,-4.3515,-4.3515,-4.3515,-4.3515,-4.3515,-4.3515,-4.3515,-4.3515,-4.3368,-4.3126,-4.2717,-4.23,-4.1884,-4.143,-4.077,-4.0183,-4.0128,-3.9676,-3.9205,-3.917,-3.9156,-3.9178,-3.935,-3.9539,-3.9717,-3.9878,-3.9943,-3.9975,-3.9975,-4.0036,-4.0087,-4.0128,-4.0186,-4.0215,-4.0263,-4.0301,-4.0328,-4.0377,-4.0381,-4.0477,-4.0688,-4.077,-4.0829,-4.0873,-4.0936,-4.0978,-4.0978,-4.0995,-4.0999,-4.0978,-4.0996,-4.0999,-4.0993,-4.0997,-4.1036,-4.1064,-4.1089,-4.1096,-2.9587,-3.0473,-3.1524,-3.3121,-3.4135,-3.515,-3.6705,-3.7067,-3.7285,-3.8046,-3.8209,-3.8209,-3.8209,-3.8209,-3.8209,-3.8209,-3.8209,-3.8209,-3.8209,-3.8209,-3.8209,-3.8209,-3.8209,-3.8209,-3.8209,-3.8209,-3.8209,-3.8209,-3.8209,-3.8209,-3.8209,-3.8209,-3.8209,-3.8209,-3.8209,-3.8209,-3.8209,-3.832,-3.8399,-3.8399,-3.8478,-3.8496,-3.8506,-3.9392,-3.9845,-4.001,-4.1647,-4.2359,-4.2415,-4.3185,-4.3515,-4.3515,-4.3515,-4.3515,-4.3515,-4.3515,-4.3515,-4.3515,-4.3515,-4.3515,-4.3515,-4.3515,-4.2983,-4.2359,-4.2321,-4.1273,-4.0042,-4.0003,-3.9564,-3.9048,-3.885,-3.8899,-3.896,-3.878,-3.8719,-3.8896,-3.9452,-3.9587,-3.9647,-3.9867,-3.99,-3.99,-3.99,-3.9954,-4.0007,-4.0007,-4.0118,-4.0196,-4.0206,-4.0263,-4.031,-4.0291,-4.036,-4.0406,-4.0422,-4.0648,-4.08,-4.0806,-4.0868,-4.0907,-4.0907,-4.0974,-4.0978,-4.0912,-4.0978,-4.0991,-4.0991,-4.1007,-4.0999,-4.1013,-4.107,-4.1103,-2.9318,-2.9913,-3.0618,-3.2234,-3.323,-3.4117,-3.5204,-3.5856,-3.6453,-3.7267,-3.743,-3.7593,-3.81,-3.8209,-3.8209,-3.8209,-3.8209,-3.8209,-3.8209,-3.8209,-3.8209,-3.8209,-3.8209,-3.8209,-3.8209,-3.8209,-3.8209,-3.8209,-3.8209,-3.8209,-3.8209,-3.8209,-3.8209,-3.8209,-3.8209,-3.8209,-3.8209,-3.8204,-3.8219,-3.8219,-3.8234,-3.8234,-3.8219,-3.8694,-3.8887,-3.8976,-4.0172,-4.1026,-4.1589,-4.2396,-4.2727,-4.2782,-4.3313,-4.3515,-4.3515,-4.3515,-4.3515,-4.3515,-4.3515,-4.3515,-4.3423,-4.2892,-4.2525,-4.2103,-4.1075,-4.0359,-3.979,-3.9276,-3.897,-3.8777,-3.8723,-3.875,-3.8777,-3.8723,-3.8707,-3.8777,-3.9137,-3.9324,-3.9464,-3.9677,-3.9712,-3.9747,-3.9878,-3.9922,-3.9954,-3.9986,-4.0027,-4.0087,-4.0137,-4.0186,-4.0244,-4.0244,-4.03,-4.0342,-4.0397,-4.0485,-4.0621,-4.0788,-4.0829,-4.0853,-4.0907,-4.0917,-4.0917,-4.0907,-4.0917,-4.095,-4.1006,-4.0995,-4.1,-4.0997,-4.1023,-4.1061,-2.8671,-2.8997,-2.9426,-3.0783,-3.1505,-3.2275,-3.3728,-3.4465,-3.5151,-3.6347,-3.6598,-3.6761,-3.7305,-3.7629,-3.7901,-3.8172,-3.8209,-3.8209,-3.8209,-3.8209,-3.8209,-3.8209,-3.8209,-3.8209,-3.8209,-3.8209,-3.8209,-3.8209,-3.8157,-3.8157,-3.8209,-3.8157,-3.8157,-3.8209,-3.8209,-3.8209,-3.8209,-3.8119,-3.8085,-3.8086,-3.8086,-3.8052,-3.8035,-3.8186,-3.8269,-3.8305,-3.9002,-3.9812,-4.0732,-4.1469,-4.1815,-4.1922,-4.2454,-4.2673,-4.269,-4.269,-4.269,-4.269,-4.269,-4.269,-4.2598,-4.2066,-4.1717,-4.1295,-4.0212,-3.9698,-3.9386,-3.8854,-3.8707,-3.8707,-3.8707,-3.8707,-3.8707,-3.8707,-3.8707,-3.8753,-3.8862,-3.9059,-3.9259,-3.9464,-3.9551,-3.9635,-3.977,-3.9856,-3.9911,-3.9954,-3.9986,-4.0026,-4.0057,-4.0118,-4.0176,-4.0196,-4.0244,-4.0291,-4.036,-4.04,-4.0492,-4.072,-4.0782,-4.084,-4.0903,-4.0907,-4.0907,-4.0907,-4.0907,-4.0917,-4.0974,-4.0982,-4.1003,-4.1007,-4.1002,-4.1042,0.0,0.0,0.0,-2.875,-2.8931,-2.9594,-3.2266,-3.2836,-3.3369,-3.5325,-3.5698,-3.5731,-3.5786,-3.6435,-3.723,-3.8009,-3.8172,-3.8209,-3.8209,-3.8209,-3.8209,-3.8209,-3.8209,-3.8209,-3.8209,-3.8209,-3.8209,-3.8209,-3.8088,-3.8053,-3.8192,-3.8053,-3.8053,-3.8192,-3.8192,-3.8192,-3.8192,-3.8121,-3.8069,-3.7984,-3.7984,-3.795,-3.7881,-3.7967,-3.8001,-3.8001,-3.8206,-3.8844,-3.9811,-4.0475,-4.0839,-4.0961,-4.0996,-4.1029,-4.1095,-4.1095,-4.1095,-4.1095,-4.1095,-4.1095,-4.1095,-4.1058,-4.0543,-3.99,-3.9863,-3.9313,-3.8707,-3.8707,-3.8707,-3.8707,-3.8707,-3.8707,-3.8707,-3.8707,-3.8707,-3.8707,-3.8707,-3.8848,-3.9059,-3.9259,-3.9452,-3.9575,-3.9587,-3.9758,-3.9889,-3.99,-3.9954,-3.9996,-3.9996,-4.0057,-4.0127,-4.0186,-4.0196,-4.0215,-4.0301,-4.0351,-4.0454,-4.0581,-4.072,-4.0815,-4.0883,-4.0907,-4.0907,-4.0907,-4.0907,-4.0907,-4.0907,-4.0974,-4.1006,-4.1006,-4.0991,-4.1036,-2.7396,0.0,0.0,0.0,0.0,0.0,-2.9869,-3.0468,-3.1397,-3.3251,-3.3669,-3.4125,-3.5473,-3.5919,-3.6152,-3.6419,-3.7431,-3.8209,-3.8209,-3.8209,-3.8209,-3.8209,-3.8209,-3.8209,-3.8209,-3.8209,-3.8209,0.0,-3.8088,-3.8019,-3.8053,-3.7968,-3.7933,-3.7969,-3.7969,-3.7969,-3.7969,-3.788,-3.781,-3.7774,-3.7721,-3.7703,-3.7685,-3.7846,-3.7934,-3.7933,-3.8036,-3.8281,-3.8636,-3.9571,-3.9949,-4.0055,-4.0725,-4.1014,-4.1029,-4.1079,-4.1095,-4.1095,-4.1095,-4.1095,-4.1003,-4.0414,-4.0084,-3.979,-3.9203,-3.8891,-3.8707,-3.8707,-3.8707,-3.8707,-3.8707,-3.8707,-3.8707,-3.8707,-3.8707,-3.8707,-3.8707,-3.8735,-3.8851,-3.9045,-3.9124,-3.9259,-3.9551,-3.9654,-3.9735,-3.9878,-3.9911,-3.9922,-3.9922,-3.9994,-4.0057,-4.0127,-4.0137,-4.0157,-4.0215,-4.0196,-4.0243,-4.0367,-4.0511,-4.0649,-4.0809,-4.0878,-4.0907,-4.0907,-4.0907,-4.0907,-4.0907,-4.0917,-4.095,-4.1006,-4.0991,-4.1036,-2.7051,-2.7147,-2.7289,-2.7338,0.0,0.0,-2.8617,-2.9297,-3.0287,-3.1828,-3.2505,-3.3148,-3.4259,-3.4805,-3.5119,-3.5169,-3.6248,-3.722,-3.7631,-3.7991,-3.8209,-3.8209,-3.8209,-3.8174,-3.8122,-3.8105,-3.8088,-3.809,-3.795,-3.788,-3.788,-3.7881,-3.7899,-3.7899,-3.7899,-3.7899,-3.7899,-3.7775,-3.7703,-3.7703,-3.7631,-3.7595,-3.7595,-3.7721,-3.7757,-3.7793,-3.7845,-3.7932,-3.8072,-3.8677,-3.8978,-3.9117,-3.9659,-3.9908,-3.9971,-4.0004,-4.002,-4.002,-4.002,-4.002,-3.9928,-3.9467,-3.9337,-3.9313,-3.8836,-3.8707,-3.8707,-3.8707,-3.8707,-3.8707,-3.8707,-3.8707,-3.8707,-3.8707,-3.8707,-3.8707,-3.8707,-3.8707,-3.8735,-3.8848,-3.8931,-3.9069,-3.9311,-3.9489,-3.9635,-3.9758,-3.9856,-3.99,-3.99,-3.9933,-3.9975,-4.0057,-4.0057,-4.0077,-4.0157,-4.0127,-4.0158,-4.0285,-4.0367,-4.0496,-4.0668,-4.0784,-4.0858,-4.0858,-4.0888,-4.0907,-4.0907,-4.0907,-4.0921,-4.1006,-4.1,-4.1025,-2.6708,-2.6691,-2.6742,-2.6842,-2.6724,0.0,-2.7936,-2.859,-2.928,-3.0516,-3.1464,-3.2157,-3.2351,-3.3168,-3.3813,-3.3829,-3.4564,-3.5526,-3.6675,-3.7451,-3.7922,-3.803,-3.803,-3.8015,-3.7984,-3.7984,-3.7967,-3.7899,-3.7775,-3.7703,-3.7685,-3.781,-3.7864,-3.7864,-3.7864,-3.7864,-3.7864,-3.7757,-3.7685,-3.7685,-3.7631,-3.7595,-3.7595,-3.7595,-3.7595,-3.7595,-3.7649,-3.7757,-3.7881,-3.795,-3.8087,-3.8274,-3.829,-3.8352,-3.8444,-3.8494,-3.851,-3.8494,-3.851,-3.851,-3.8494,-3.851,-3.8575,-3.8673,-3.8692,-3.8707,-3.8707,-3.8707,-3.8707,-3.8707,-3.8707,-3.8707,-3.8707,-3.8707,-3.8707,-3.8707,-3.8707,-3.8707,-3.8707,-3.8707,-3.8833,-3.8974,-3.9003,-3.9298,-3.9551,-3.9587,-3.9747,-3.9878,-3.99,-3.99,-3.9922,-3.9986,-3.9986,-4.0026,-4.0077,-4.0077,-4.0138,-4.0262,-4.0276,-4.0351,-4.0462,-4.0668,-4.0782,-4.0794,-4.0868,-4.0907,-4.0907,-4.0907,-4.0921,-4.1006,-4.1003,-4.1003,-2.686,-2.6691,-2.6708,-2.6742,-2.6268,0.0,-2.6111,-2.5821,-2.5951,-2.7625,-2.8183,-2.8778,-3.0195,-3.0611,-3.0781,-3.0912,-3.1995,-3.3525,-3.5524,-3.5932,-3.6276,-3.6925,-3.6997,-3.7249,-3.7862,-3.7934,-3.7916,-3.7899,-3.7775,-3.7667,-3.7613,-3.7631,-3.7667,-3.7667,-3.7667,-3.7667,-3.7667,-3.7631,-3.7613,-3.7613,-3.7613,-3.7595,-3.7595,-3.7595,-3.7595,-3.7595,-3.7613,-3.7667,-3.7739,-3.7757,-3.788,-3.8087,-3.8239,-3.8238,-3.8201,-3.8412,-3.8478,-3.843,-3.8478,-3.8462,-3.843,-3.8494,-3.8525,-3.8559,-3.8658,-3.8707,-3.8707,-3.8707,-3.8707,-3.8707,-3.8707,-3.8707,-3.8707,-3.8707,-3.8707,-3.8707,-3.8707,-3.8707,-3.8707,-3.8707,-3.8719,-3.8807,-3.8974,-3.9073,-3.9232,-3.9551,-3.9623,-3.9724,-3.9878,-3.99,-3.9922,-3.9986,-3.9954,-3.9943,-4.0007,-3.9965,-3.9975,-4.0058,-4.0158,-4.0258,-4.0342,-4.0488,-4.0629,-4.0794,-4.0868,-4.0907,-4.0907,-4.0907,-4.0921,-4.1006,-4.0991,-4.0992,-2.6894,-2.6691,-2.6691,-2.6691,-2.642,0.0,0.0,-2.5862,-2.5843,-2.6771,-2.7103,-2.7623,-2.886,-2.9215,-2.9433,-2.9884,-3.085,-3.181,-3.255,-3.4188,-3.5449,-3.5843,-3.6016,-3.6246,-3.6608,-3.6644,-3.6788,-3.713,-3.7095,-3.7202,-3.7577,-3.7595,-3.7595,-3.7595,-3.7595,-3.7595,-3.7595,-3.7595,-3.7595,-3.7595,-3.7595,-3.7595,-3.7595,-3.7595,-3.7595,-3.7595,-3.7595,-3.7631,-3.7703,-3.7703,-3.7757,-3.7862,-3.8037,-3.8088,-3.8086,-3.8234,-3.8267,-3.8251,-3.8368,-3.8368,-3.837,-3.8385,-3.8415,-3.8462,-3.8559,-3.8658,-3.8707,-3.8707,-3.8707,-3.8707,-3.8707,-3.8707,-3.8707,-3.8707,-3.8707,-3.8707,-3.8707,-3.8707,-3.8707,-3.8707,-3.8707,-3.8719,-3.8837,-3.8917,-3.9073,-3.9272,-3.9477,-3.9642,-3.9735,-3.9845,-3.9911,-3.9943,-3.9922,-3.9911,-3.9943,-3.9922,-3.9911,-3.9943,-4.0039,-4.0129,-4.0139,-4.0302,-4.0485,-4.0655,-4.0732,-4.0742,-4.0742,-4.0826,-4.0873,-4.095,-4.0982,-4.1003,-2.6911,-2.6691,0.0,0.0,-2.659,-2.6488,0.0,0.0,0.0,-2.6454,-2.66,-2.6898,-2.7635,-2.7847,-2.8041,-2.8494,-2.9311,-2.9659,-2.9068,-3.1755,-3.3915,-3.4269,-3.4741,-3.5039,-3.5008,-3.5008,-3.5329,-3.6114,-3.5989,-3.6328,-3.7327,-3.7381,-3.7398,-3.7503,-3.7576,-3.754,-3.7411,-3.7466,-3.7503,-3.7503,-3.7448,-3.7485,-3.7595,-3.754,-3.754,-3.7613,-3.7522,-3.7577,-3.7667,-3.7523,-3.7541,-3.7613,-3.781,-3.7916,-3.7949,-3.8052,-3.8068,-3.8103,-3.8188,-3.8239,-3.8239,-3.8256,-3.832,-3.8415,-3.8462,-3.8559,-3.8658,-3.8643,-3.8658,-3.8692,-3.8658,-3.8673,-3.8707,-3.8707,-3.8707,-3.8707,-3.8707,-3.8707,-3.8707,-3.8707,-3.8707,-3.8707,-3.8707,-3.8837,-3.8946,-3.9003,-3.9272,-3.9514,-3.9587,-3.9747,-3.9867,-3.99,-3.99,-3.99,-3.99,-3.99,-3.99,-3.99,-3.9954,-3.9986,-3.9996,-4.0187,-4.0358,-4.0458,-4.0545,-4.0581,-4.0581,-4.0688,-4.0798,-4.0883,-4.0945,-4.0991,-2.6995,0.0,0.0,0.0,-2.6201,-2.5711,-2.5711,0.0,-2.4948,-2.5592,0.0,-2.5028,-2.5775,0.0,0.0,-2.4224,-2.5296,-2.6163,-2.6095,-2.7806,-2.9676,-3.127,-3.2651,-3.3474,-3.3527,-3.3545,-3.404,-3.5258,-3.4516,-3.4747,-3.6453,-3.6542,-3.6719,-3.7131,-3.7448,-3.7318,-3.6716,-3.6993,-3.7166,-3.7166,-3.6873,-3.7013,-3.7577,-3.728,-3.7318,-3.7577,-3.728,-3.7318,-3.7558,-3.6974,-3.6895,-3.7223,-3.7703,-3.7828,-3.7757,-3.7949,-3.8018,-3.8018,-3.8018,-3.8035,-3.8035,-3.8085,-3.8252,-3.8399,-3.8415,-3.8462,-3.851,-3.8446,-3.8562,-3.8673,-3.8559,-3.8609,-3.8707,-3.8707,-3.8707,-3.8707,-3.8707,-3.8707,-3.8707,-3.8707,-3.8707,-3.8707,-3.8707,-3.8723,-3.8792,-3.8974,-3.9045,-3.9192,-3.9551,-3.9611,-3.9712,-3.9878,-3.99,-3.99,-3.99,-3.99,-3.99,-3.99,-3.9911,-3.9933,-3.9996,-4.0187,-4.0316,-4.0323,-4.0462,-4.0518,-4.0518,-4.0588,-4.0681,-4.0818,-4.0878,-4.0945,0.0,0.0,0.0,0.0,0.0,0.0,-2.6286,0.0,-2.522,0.0,0.0,0.0,0.0,0.0,0.0,0.0,-2.5203,-2.5456,-2.5017,-2.6349,-2.8049,-2.9851,-3.0768,0.0,-3.1865,-3.1899,-3.2511,-3.3935,-3.3248,-3.3494,-3.515,-3.5661,-3.5972,-3.6173,-3.6726,-3.6876,-3.6594,-3.6736,-3.6796,-3.6796,-3.6673,-3.6736,-3.7013,-3.7089,-3.7185,-3.7318,-3.7373,-3.7355,-3.728,-3.7011,-3.6856,-3.6816,-3.7069,-3.7242,-3.7375,-3.7721,-3.7827,-3.7827,-3.7898,-3.7951,-3.7933,-3.8018,-3.8136,-3.8252,-3.832,-3.8401,-3.843,-3.8399,-3.8465,-3.8512,-3.8446,-3.851,-3.8575,-3.8575,-3.864,-3.8707,-3.8707,-3.8707,-3.8707,-3.8707,-3.8707,-3.8707,-3.8707,-3.8707,-3.8719,-3.8807,-3.8935,-3.9073,-3.9232,-3.935,-3.9502,-3.9712,-3.9724,-3.977,-3.9889,-3.99,-3.99,-3.99,-3.99,-3.9911,-3.9943,-4.0068,-4.0128,-4.0128,-4.0252,-4.0323,-4.0323,-4.043,-4.0508,-4.0559,-4.0769,-4.0898,-2.8811,0.0,0.0,0.0,0.0,0.0,0.0,0.0,0.0,0.0,0.0,0.0,0.0,0.0,0.0,-2.4678,0.0,-2.4746,-2.4,-2.4983,-2.6351,-2.7878,-2.8403,-2.9053,0.0,-2.992,-3.0526,-3.2439,-3.1829,-3.2159,-3.3972,-3.4582,-3.5031,-3.535,-3.5966,-3.6304,-3.6326,-3.6409,-3.6471,-3.6471,-3.6367,-3.6409,-3.6612,-3.6756,-3.6876,-3.6954,-3.7129,-3.7091,-3.6935,-3.6776,-3.6615,-3.6471,-3.6471,-3.6615,-3.6878,-3.7356,-3.7613,-3.7703,-3.7793,-3.7828,-3.7846,-3.7915,-3.7914,-3.7931,-3.8053,-3.8069,-3.805,-3.8153,-3.8219,-3.8251,-3.8283,-3.8399,-3.8478,-3.8478,-3.8559,-3.8658,-3.8658,-3.8658,-3.8658,-3.8658,-3.8627,-3.8611,-3.858,-3.8627,-3.8658,-3.8692,-3.8788,-3.8902,-3.8989,-3.9124,-3.9324,-3.9575,-3.9599,-3.9689,-3.9878,-3.99,-3.99,-3.99,-3.99,-3.99,-3.99,-3.9943,-3.9975,-3.9975,-4.0087,-4.0157,-4.0157,-4.0252,-4.0339,-4.0378,-4.0662,-4.0846,0.0,0.0,0.0,-2.8081,0.0,0.0,0.0,0.0,-2.6279,0.0,0.0,0.0,0.0,0.0,0.0,0.0,0.0,0.0,0.0,-2.3038,-2.3797,-2.4574,-2.5302,-2.6433,0.0,-2.7436,-2.7981,0.0,-3.0041,-3.0576,-3.3101,-3.3276,-3.3804,-3.4967,-3.5344,-3.5583,-3.5627,-3.5963,-3.6118,-3.6118,-3.5783,-3.5963,-3.6574,-3.6284,-3.6308,-3.6594,-3.6287,-3.6346,-3.6553,-3.5915,-3.5832,-3.6118,-3.6118,-3.6118,-3.6203,-3.6876,-3.7374,-3.7685,-3.7631,-3.7649,-3.7703,-3.7703,-3.7577,-3.7449,-3.7577,-3.7339,-3.7133,-3.7522,-3.7721,-3.7861,-3.8068,-3.8269,-3.8399,-3.8399,-3.8462,-3.851,-3.851,-3.851,-3.851,-3.851,-3.8446,-3.8401,-3.8322,-3.8417,-3.8559,-3.8673,-3.8609,-3.8631,-3.896,-3.9017,-3.9165,-3.9551,-3.9599,-3.9689,-3.9878,-3.99,-3.99,-3.99,-3.99,-3.99,-3.99,-3.99,-3.99,-3.99,-3.9965,-4.0007,-4.0007,-4.0077,-4.0177,-4.0317,-4.0629,-4.08,0.0,0.0,-3.0564,-2.9603,0.0,0.0,0.0,0.0,0.0,0.0,0.0,0.0,0.0,0.0,0.0,0.0,0.0,0.0,0.0,-2.2835,-2.2767,-2.3004,-2.456,-2.5844,-2.645,0.0,0.0,0.0,-2.9345,0.0,-3.1775,-3.2342,-3.3017,-3.3896,-3.4516,-3.5083,-3.56,-3.5717,-3.5783,-3.5783,-3.565,-3.5717,-3.5937,-3.6049,-3.6161,-3.6284,-3.6388,-3.6367,-3.6245,-3.6028,-3.5854,-3.5783,-3.5783,-3.5898,-3.6161,-3.6615,-3.6856,-3.7013,-3.7204,-3.743,-3.7595,-3.7431,-3.732,-3.7245,-3.7169,-3.7036,-3.696,-3.7111,-3.717,-3.7266,-3.7559,-3.7792,-3.7966,-3.8152,-3.8334,-3.8415,-3.8368,-3.837,-3.837,-3.837,-3.8354,-3.8322,-3.8289,-3.8271,-3.8302,-3.8481,-3.8494,-3.8572,-3.8777,-3.8792,-3.8906,-3.9178,-3.9272,-3.9376,-3.9489,-3.9611,-3.9758,-3.9889,-3.99,-3.99,-3.99,-3.99,-3.99,-3.99,-3.9965,-3.9996,-3.9996,-4.0067,-4.0147,-4.0243,-4.0406,-4.0588,-3.1981,-3.1901,0.0,-3.0672,-3.019,0.0,-2.8517,0.0,-2.7322,0.0,0.0,0.0,0.0,0.0,0.0,0.0,0.0,0.0,0.0,-2.262,-2.2194,-2.2296,-2.3547,-2.4629,-2.5152,-2.5406,0.0,0.0,0.0,0.0,0.0,-3.1379,-3.2357,-3.3372,-3.3863,-3.459,-3.5583,-3.56,-3.56,-3.56,-3.56,-3.56,-3.56,-3.581,-3.592,-3.5941,-3.6156,-3.6114,-3.592,-3.592,-3.5788,-3.56,-3.56,-3.5739,-3.5963,-3.6305,-3.6492,-3.6615,-3.6853,-3.7052,-3.7223,-3.7034,-3.6917,-3.6781,-3.6719,-3.6577,-3.6457,-3.6638,-3.6698,-3.6759,-3.7092,-3.7394,-3.7632,-3.7809,-3.8085,-3.8285,-3.8238,-3.8239,-3.8239,-3.829,-3.8224,-3.8157,-3.8157,-3.8088,-3.8086,-3.8269,-3.8316,-3.8399,-3.8549,-3.8611,-3.8716,-3.8931,-3.9031,-3.9142,-3.9245,-3.9452,-3.9623,-3.9781,-3.9867,-3.99,-3.99,-3.99,-3.99,-3.99,-3.9943,-3.9965,-3.9965,-4.0015,-4.0057,-4.0128,-4.0167,-4.0353]},{"header":{"parameterUnit":"m.s-1","parameterCategory":1,"la1":30.6,"la2":29.2853,"lo1":-89.7004,"lo2":-87.6739,"dy":0.0162,"dx":0.0183,"nx":112,"ny":82,"refTime":"2024-04-14T18:00:00:Z","depth":0,"parameterNumber":3,"parameterNumberName":"V-component_of_WINDS"},"data":[0.0,0.0,0.0,0.0,0.0,0.0,0.0,0.0,0.0,0.0,0.0,0.0,0.0,0.0,0.0,0.0,0.0,0.0,0.0,0.0,0.0,0.0,0.0,0.0,0.0,0.0,0.0,0.0,0.0,0.0,0.0,0.0,0.0,0.0,0.0,0.0,0.0,0.0,0.0,0.0,0.0,0.0,0.0,0.0,0.0,0.0,0.0,0.0,0.0,0.0,0.0,0.0,0.0,0.0,0.0,0.0,0.0,0.0,0.0,0.0,0.0,0.0,0.0,0.0,0.0,0.0,0.0,0.0,0.0,0.0,0.0,0.0,0.0,0.0,0.0,0.0,0.0,0.0,0.0,0.0,0.0,0.0,0.0,0.0,0.0,0.0,0.0,0.0,0.0,0.0,-0.9246,-0.9284,-0.9322,-0.9359,-0.9397,-0.9549,-0.9695,-0.9771,0.0,0.0,0.0,0.0,0.0,0.0,0.0,0.0,0.0,0.0,0.0,0.0,0.0,0.0,0.0,0.0,0.0,0.0,0.0,0.0,0.0,0.0,0.0,0.0,0.0,0.0,0.0,0.0,0.0,0.0,0.0,0.0,0.0,0.0,0.0,0.0,0.0,0.0,0.0,0.0,0.0,0.0,0.0,0.0,0.0,0.0,0.0,0.0,0.0,0.0,0.0,0.0,0.0,0.0,0.0,0.0,0.0,0.0,0.0,0.0,0.0,0.0,0.0,0.0,0.0,0.0,0.0,0.0,0.0,0.0,0.0,0.0,0.0,0.0,0.0,0.0,0.0,0.0,0.0,0.0,0.0,0.0,0.0,0.0,0.0,0.0,0.0,0.0,0.0,0.0,0.0,0.0,0.0,0.0,0.0,0.0,0.0,0.0,0.0,0.0,0.0,0.0,0.0,0.0,-0.9099,-0.9289,-0.9435,-0.962,-0.9809,-0.9846,-1.0067,-1.0588,0.0,0.0,0.0,0.0,0.0,0.0,0.0,0.0,0.0,0.0,0.0,0.0,0.0,0.0,0.0,0.0,0.0,0.0,0.0,0.0,0.0,0.0,0.0,0.0,0.0,0.0,0.0,0.0,0.0,0.0,0.0,0.0,0.0,0.0,0.0,0.0,0.0,0.0,0.0,0.0,0.0,0.0,0.0,0.0,0.0,0.0,0.0,0.0,0.0,0.0,0.0,0.0,0.0,0.0,0.0,0.0,0.0,0.0,0.0,0.0,0.0,0.0,0.0,0.0,0.0,0.0,0.0,0.0,0.0,0.0,0.0,0.0,0.0,0.0,0.0,0.0,0.0,0.0,0.0,0.0,0.0,0.0,0.0,0.0,0.0,0.0,0.0,0.0,0.0,0.0,0.0,0.0,0.0,0.0,0.0,0.0,0.0,0.0,0.0,0.0,0.0,0.0,0.0,-0.9322,-0.9435,-0.9771,-0.9884,-0.9992,-1.0218,-1.0218,-1.0331,-1.0625,-1.0556,0.0,0.0,0.0,0.0,0.0,0.0,0.0,0.0,0.0,0.0,0.0,0.0,0.0,0.0,0.0,0.0,0.0,0.0,0.0,0.0,0.0,0.0,0.0,0.0,0.0,0.0,0.0,0.0,0.0,0.0,0.0,0.0,0.0,0.0,0.0,0.0,0.0,0.0,0.0,0.0,0.0,0.0,0.0,0.0,0.0,0.0,0.0,0.0,0.0,0.0,0.0,0.0,0.0,0.0,0.0,0.0,0.0,0.0,0.0,0.0,0.0,0.0,0.0,0.0,0.0,0.0,0.0,0.0,0.0,0.0,0.0,0.0,0.0,0.0,0.0,0.0,0.0,0.0,0.0,0.0,0.0,0.0,0.0,0.0,0.0,0.0,0.0,0.0,0.0,0.0,0.0,0.0,0.0,0.0,0.0,0.0,0.0,0.0,0.0,0.0,0.0,0.0,-0.9582,-0.9771,-1.0143,-1.0255,-1.0368,-1.055,-1.0556,-1.0588,-1.0625,-1.07,0.0,0.0,0.0,0.0,0.0,0.0,0.0,0.0,0.0,0.0,0.0,0.0,0.0,0.0,0.0,0.0,0.0,0.0,0.0,0.0,0.0,0.0,0.0,0.0,0.0,0.0,0.0,0.0,0.0,0.0,0.0,0.0,0.0,0.0,0.0,0.0,0.0,0.0,0.0,0.0,0.0,0.0,0.0,0.0,0.0,0.0,0.0,0.0,0.0,0.0,0.0,0.0,0.0,0.0,0.0,0.0,0.0,0.0,0.0,0.0,0.0,0.0,0.0,0.0,0.0,0.0,0.0,0.0,0.0,0.0,0.0,0.0,0.0,0.0,0.0,0.0,0.0,0.0,0.0,0.0,0.0,0.0,0.0,0.0,0.0,0.0,0.0,0.0,0.0,0.0,0.0,0.0,0.0,0.0,0.0,0.0,0.0,0.0,0.0,0.0,0.0,0.0,-0.9473,-0.9771,-1.0143,-1.0368,-1.055,-1.0775,-1.0775,-1.085,-1.1037,-1.07,0.0,0.0,0.0,0.0,0.0,0.0,0.0,0.0,0.0,0.0,0.0,0.0,0.0,0.0,0.0,0.0,0.0,0.0,0.0,0.0,0.0,0.0,0.0,0.0,0.0,0.0,0.0,0.0,0.0,0.0,0.0,0.0,0.0,0.0,0.0,0.0,0.0,0.0,0.0,0.0,0.0,0.0,0.0,0.0,0.0,0.0,0.0,0.0,0.0,0.0,0.0,0.0,0.0,0.0,0.0,0.0,0.0,0.0,0.0,0.0,0.0,0.0,0.0,0.0,0.0,0.0,0.0,0.0,0.0,0.0,0.0,0.0,0.0,0.0,0.0,0.0,0.0,0.0,0.0,0.0,0.0,0.0,0.0,0.0,0.0,0.0,0.0,0.0,0.0,0.0,0.0,0.0,0.0,0.0,0.0,0.0,0.0,0.0,0.0,0.0,0.0,0.0,-0.9582,-0.996,-1.0331,-1.0556,-1.0775,-1.0962,-1.0999,-1.1037,-1.1111,0.0,0.0,0.0,0.0,0.0,0.0,0.0,0.0,0.0,0.0,0.0,0.0,0.0,0.0,0.0,0.0,0.0,0.0,0.0,0.0,0.0,0.0,0.0,0.0,0.0,0.0,0.0,0.0,0.0,0.0,0.0,0.0,0.0,0.0,0.0,0.0,0.0,0.0,0.0,0.0,0.0,0.0,0.0,0.0,0.0,0.0,0.0,0.0,0.0,0.0,0.0,0.0,0.0,0.0,0.0,0.0,0.0,0.0,0.0,0.0,0.0,0.0,0.0,0.0,0.0,0.0,0.0,0.0,0.0,0.0,0.0,0.0,0.0,0.0,0.0,0.0,0.0,0.0,0.0,0.0,0.0,0.0,0.0,0.0,0.0,0.0,0.0,0.0,0.0,0.0,0.0,0.0,0.0,0.0,0.0,0.0,0.0,0.0,0.0,0.0,0.0,0.0,-0.9246,-0.9473,-0.9846,-1.0443,-1.0556,-1.07,-1.0962,-1.0999,-1.0999,-1.0999,0.0,0.0,0.0,0.0,0.0,0.0,0.0,0.0,0.0,0.0,0.0,0.0,0.0,0.0,0.0,0.0,0.0,0.0,0.0,0.0,0.0,0.0,0.0,0.0,0.0,0.0,0.0,0.0,0.0,0.0,0.0,0.0,0.0,0.0,0.0,0.0,0.0,0.0,0.0,0.0,0.0,0.0,0.0,0.0,0.0,0.0,0.0,0.0,0.0,0.0,0.0,0.0,0.0,0.0,0.0,0.0,0.0,0.0,0.0,0.0,0.0,0.0,0.0,0.0,0.0,0.0,0.0,0.0,0.0,0.0,0.0,0.0,0.0,0.0,0.0,0.0,0.0,0.0,0.0,0.0,0.0,0.0,0.0,0.0,0.0,0.0,0.0,0.0,0.0,0.0,0.0,0.0,0.0,0.0,0.0,0.0,0.0,0.0,0.0,0.0,0.0,0.0,-0.9246,-0.9137,-0.9397,-1.0406,-1.0331,-1.0368,-1.0775,-1.0812,-1.0812,0.0,0.0,0.0,0.0,0.0,0.0,0.0,0.0,0.0,0.0,0.0,0.0,0.0,0.0,0.0,0.0,0.0,0.0,0.0,0.0,0.0,0.0,0.0,0.0,0.0,0.0,0.0,0.0,0.0,0.0,0.0,0.0,0.0,0.0,0.0,0.0,0.0,0.0,0.0,0.0,0.0,0.0,0.0,0.0,0.0,0.0,0.0,0.0,0.0,0.0,0.0,0.0,0.0,0.0,0.0,0.0,0.0,0.0,0.0,0.0,0.0,0.0,0.0,0.0,0.0,0.0,0.0,0.0,0.0,0.0,0.0,0.0,0.0,0.0,0.0,0.0,0.0,0.0,0.0,0.0,0.0,0.0,0.0,0.0,0.0,0.0,0.0,0.0,0.0,0.0,0.0,0.0,0.0,0.0,0.0,0.0,0.0,0.0,0.0,0.0,0.0,0.0,0.0,-0.9061,-0.9397,-0.9733,-1.0067,-1.0293,-1.0475,-1.0588,-1.0588,-1.0588,-1.0588,0.0,0.0,0.0,0.0,0.0,0.0,0.0,0.0,0.0,0.0,0.0,0.0,0.0,0.0,0.0,0.0,0.0,0.0,0.0,0.0,0.0,0.0,0.0,0.0,0.0,0.0,0.0,0.0,0.0,0.0,0.0,0.0,0.0,0.0,0.0,0.0,0.0,0.0,0.0,0.0,0.0,0.0,0.0,0.0,0.0,0.0,0.0,0.0,0.0,0.0,0.0,0.0,0.0,0.0,0.0,0.0,0.0,0.0,0.0,0.0,0.0,0.0,0.0,0.0,0.0,0.0,0.0,0.0,0.0,0.0,0.0,0.0,0.0,0.0,0.0,0.0,0.0,0.0,0.0,0.0,0.0,0.0,0.0,0.0,0.0,0.0,0.0,0.0,0.0,0.0,0.0,0.0,0.0,0.0,0.0,0.0,0.0,0.0,0.0,0.0,0.0,0.0,-0.8984,-0.9241,-0.9539,-0.9884,-1.003,-1.0218,-1.0368,-1.0368,-1.0368,-1.0368,0.0,0.0,0.0,0.0,0.0,0.0,0.0,0.0,0.0,0.0,0.0,0.0,0.0,0.0,0.0,0.0,0.0,0.0,0.0,0.0,0.0,0.0,0.0,0.0,0.0,0.0,0.0,0.0,0.0,0.0,0.0,0.0,0.0,0.0,0.0,0.0,0.0,0.0,0.0,0.0,0.0,0.0,0.0,0.0,0.0,0.0,0.0,0.0,0.0,0.0,0.0,0.0,0.0,0.0,0.0,0.0,0.0,0.0,0.0,0.0,0.0,0.0,0.0,0.0,0.0,0.0,0.0,0.0,0.0,0.0,0.0,0.0,0.0,0.0,0.0,0.0,0.0,0.0,0.0,0.0,0.0,0.0,0.0,0.0,0.0,0.0,0.0,0.0,0.0,0.0,0.0,0.0,0.0,0.0,0.0,0.0,0.0,0.0,0.0,0.0,0.0,0.0,-0.8946,-0.8822,-0.9008,-0.9771,-0.9695,-0.9771,-1.0143,-1.018,-1.018,-1.018,0.0,0.0,0.0,0.0,0.0,0.0,0.0,0.0,0.0,0.0,0.0,0.0,0.0,0.0,0.0,0.0,0.0,0.0,0.0,0.0,0.0,0.0,0.0,0.0,0.0,0.0,0.0,0.0,0.0,0.0,0.0,0.0,0.0,0.0,0.0,0.0,0.0,0.0,0.0,0.0,0.0,0.0,0.0,0.0,0.0,0.0,0.0,0.0,0.0,0.0,0.0,0.0,0.0,0.0,0.0,0.0,0.0,0.0,0.0,0.0,-0.2405,-0.294,0.0,0.0,0.0,0.0,0.0,0.0,0.0,0.0,0.0,0.0,0.0,0.0,0.0,0.0,0.0,0.0,0.0,0.0,0.0,0.0,0.0,0.0,0.0,0.0,0.0,0.0,0.0,0.0,0.0,0.0,0.0,0.0,0.0,0.0,0.0,0.0,0.0,0.0,0.0,0.0,-0.8742,-0.8865,-0.9056,-0.9397,-0.9544,-0.9695,-0.996,-0.996,-0.996,-0.996,-0.988,0.0,0.0,0.0,0.0,0.0,0.0,0.0,0.0,0.0,0.0,0.0,0.0,0.0,0.0,0.0,0.0,0.0,0.0,0.0,0.0,0.0,0.0,0.0,0.0,0.0,0.0,0.0,0.0,0.0,0.0,0.0,0.0,0.0,0.0,0.0,0.0,0.0,0.0,0.0,0.0,0.0,0.0,0.0,0.0,0.0,0.0,0.0,0.0,0.0,0.0,0.0,0.0,0.0,0.0,0.0,0.0,0.0,0.0,0.0,-0.2159,-0.2981,0.0,0.0,0.0,0.0,0.0,0.0,0.0,0.0,0.0,0.0,0.0,0.0,0.0,0.0,0.0,0.0,0.0,0.0,0.0,0.0,0.0,0.0,0.0,0.0,0.0,0.0,0.0,0.0,0.0,0.0,0.0,0.0,0.0,0.0,0.0,0.0,0.0,0.0,0.0,0.0,-0.8703,-0.8784,-0.8941,-0.9137,-0.9322,-0.9549,-0.9733,-0.9745,-0.9755,-0.9755,-0.9498,0.0,0.0,0.0,0.0,0.0,0.0,0.0,0.0,0.0,0.0,0.0,0.0,0.0,0.0,0.0,0.0,0.0,0.0,0.0,0.0,0.0,0.0,0.0,0.0,0.0,0.0,0.0,0.0,0.0,0.0,0.0,0.0,0.0,0.0,0.0,0.0,0.0,0.0,0.0,0.0,0.0,0.0,0.0,0.0,0.0,0.0,0.0,0.0,0.0,0.0,0.0,0.0,0.0,0.1924,0.203,0.1818,0.1612,0.1147,0.034,-0.1869,-0.2847,-0.2779,-0.2421,0.0,0.0,0.0,0.0,0.0,0.0,0.0,0.0,0.0,0.0,0.0,0.0,0.0,0.0,0.0,0.0,0.0,0.0,0.0,0.0,0.0,0.0,0.0,0.0,-0.481,-0.4888,-0.5273,0.0,0.0,0.0,0.0,0.0,0.0,0.0,0.0,0.0,0.0,0.0,-0.8703,-0.8703,-0.8765,-0.8931,-0.9115,-0.9321,-0.9467,-0.9516,-0.9513,-0.9513,-0.9176,-0.8972,0.0,0.0,0.0,0.0,0.0,0.0,0.0,0.0,0.0,0.0,0.0,0.0,0.0,0.0,0.0,0.0,0.0,0.0,0.0,0.0,0.0,0.0,0.0,0.0,0.0,0.0,0.0,0.0,0.0,0.0,0.0,0.0,0.4866,0.4371,0.0,0.0,0.0,0.0,0.0,0.0,0.0,0.0,0.0,0.0,0.0,0.0,0.0,0.2626,0.2543,0.26,0.2604,0.2513,0.2398,0.2338,0.2294,0.1279,0.0756,0.0578,-0.0534,0.0,-0.1207,-0.1096,0.0,0.0,0.0,0.0,0.0,0.0,0.0,0.0,0.0,0.0,0.0,0.0,0.0,0.0,0.0,0.0,0.0,0.0,0.0,0.0,0.0,0.0,-0.3634,-0.3893,-0.3958,-0.4036,0.0,-0.5506,-0.6623,-0.6623,-0.6861,-0.7169,0.0,0.0,0.0,0.0,0.0,0.0,-0.8703,-0.8703,-0.8708,-0.8753,-0.8913,-0.9057,-0.9076,-0.917,-0.9254,-0.9254,-0.9195,-0.9106,-0.894,-0.8997,0.0,0.0,0.0,0.0,0.0,0.0,0.0,0.0,0.0,0.0,0.0,0.0,0.0,0.0,0.0,0.0,0.0,0.0,0.0,0.0,0.0,0.0,0.0,0.0,0.0,0.0,0.0,0.0,0.0,0.4867,0.4329,0.411,0.3744,0.3379,0.0,0.0,0.0,0.0,0.0,0.0,0.0,0.0,0.0,0.2653,0.2711,0.276,0.2794,0.287,0.2903,0.2938,0.2829,0.2703,0.2566,0.2033,0.1764,0.1578,0.1009,0.0723,0.0619,-0.0084,-0.0483,-0.0626,0.0,0.0,0.0,0.0,-0.1314,-0.1526,-0.192,-0.2154,-0.2262,-0.2563,0.0,0.0,0.0,0.0,0.0,0.0,0.0,-0.3524,0.0,0.0,-0.3648,-0.3779,-0.3802,-0.3841,-0.3921,-0.4579,-0.5276,-0.547,-0.5973,-0.644,-0.6668,-0.7053,0.0,0.0,0.0,-0.7783,-0.7986,-0.801,-0.812,-0.8349,-0.8545,-0.8653,-0.8664,-0.8781,-0.8737,-0.8428,-0.838,-0.8196,-0.7792,-0.7821,-0.804,0.0,0.0,0.0,0.0,0.0,0.0,0.0,0.0,0.0,0.0,0.0,0.0,0.0,0.0,0.0,0.0,0.0,0.0,0.0,0.0,0.0,0.0,0.0,0.0,0.0,0.0,0.0,0.0,0.4299,0.3926,0.3851,0.3716,0.3612,0.0,0.0,0.0,0.0,0.0,0.0,0.2647,0.2706,0.2745,0.276,0.2864,0.2918,0.2964,0.3007,0.3051,0.3097,0.3097,0.3002,0.2809,0.2702,0.2555,0.2365,0.2085,0.1934,0.1798,0.0748,0.0293,0.032,0.0636,0.0427,-0.0113,-0.0193,-0.0428,-0.0737,-0.0964,-0.127,-0.157,-0.1669,-0.2122,-0.2695,-0.3023,0.0,0.0,0.0,0.0,-0.3593,-0.3699,-0.3695,-0.3679,-0.3785,-0.3802,-0.3802,-0.3802,-0.396,-0.4196,0.0,-0.5165,-0.567,-0.5864,-0.6325,0.0,-0.6843,-0.6836,-0.6931,-0.7208,-0.7371,-0.7549,-0.7782,-0.8114,-0.8234,-0.8037,-0.8166,-0.8033,-0.7562,-0.7485,-0.7265,-0.6924,-0.6892,-0.719,-0.7787,0.0,0.0,0.0,0.0,0.0,0.0,0.0,0.0,0.0,0.0,0.0,0.0,0.0,0.0,0.0,0.0,0.0,0.0,0.0,0.0,0.0,0.0,0.0,0.0,0.0,0.0,0.0,0.0,0.0,0.3914,0.3765,0.0,0.0,0.0,0.0,0.2972,0.2812,0.2713,0.2771,0.2832,0.2935,0.2989,0.3051,0.3084,0.3087,0.309,0.3094,0.3097,0.3097,0.3097,0.3046,0.2758,0.2597,0.2548,0.2313,0.2046,0.1797,0.1386,0.1179,0.1047,0.0984,0.0608,0.0081,0.0083,0.0167,0.0208,-0.0611,-0.0566,-0.0201,-0.0919,-0.152,-0.2073,-0.2731,-0.3113,0.0,0.0,-0.3509,-0.3771,-0.3652,-0.3695,-0.3798,-0.3802,-0.3802,-0.3802,-0.3802,-0.396,-0.4155,0.0,-0.4618,-0.501,-0.5783,0.0,-0.6123,-0.6648,-0.67,-0.6677,-0.6558,-0.6996,-0.7244,-0.7065,-0.7621,-0.7735,-0.7038,-0.7152,-0.7119,-0.6786,-0.6745,-0.6802,-0.6892,-0.6892,-0.6994,-0.7237,-0.7485,0.0,0.0,0.0,0.0,0.0,0.0,0.0,0.0,0.0,0.0,0.0,0.0,0.0,0.0,0.0,0.0,0.0,0.0,0.0,0.0,0.0,0.0,0.0,0.0,0.0,0.0,0.0,0.0,0.3954,0.3982,0.0,0.3871,0.3493,0.3279,0.3305,0.304,0.2918,0.2939,0.3,0.3043,0.3063,0.3086,0.3116,0.3106,0.3108,0.3127,0.3165,0.3165,0.3165,0.3165,0.3046,0.2988,0.2983,0.2651,0.2483,0.2349,0.1836,0.1492,0.1271,0.1261,0.1109,0.0875,0.0881,0.0926,0.0925,0.0625,0.0415,0.0165,-0.0488,-0.1235,-0.1877,-0.2112,-0.2762,-0.3438,-0.3408,-0.3598,-0.3795,-0.3724,-0.3777,-0.3802,-0.3802,-0.3802,-0.3802,-0.3802,-0.3843,-0.396,-0.4155,-0.4467,-0.4776,-0.5087,-0.5246,-0.5357,-0.5448,-0.5464,-0.5531,-0.5691,-0.5902,-0.6087,-0.6265,-0.6509,-0.6547,-0.6284,-0.6408,-0.6313,-0.5888,-0.6053,-0.605,-0.5745,-0.5881,-0.6115,-0.6474,-0.6928,-0.7372,0.0,0.0,0.0,0.0,0.0,0.0,0.0,0.0,0.0,0.0,0.0,0.0,0.0,0.0,0.0,0.0,0.0,0.0,0.0,0.0,0.0,0.0,0.0,0.0,0.0,0.4539,0.4081,0.4081,0.4161,0.4204,0.413,0.3871,0.3693,0.3587,0.3313,0.3139,0.3018,0.3057,0.3089,0.311,0.311,0.3129,0.312,0.3121,0.3141,0.318,0.318,0.318,0.318,0.316,0.315,0.3144,0.2948,0.2762,0.2614,0.2177,0.1779,0.154,0.1439,0.1368,0.1334,0.1334,0.1334,0.1333,0.1323,0.1058,0.0588,0.0,-0.0582,-0.115,-0.1602,-0.2316,-0.305,-0.3371,-0.3591,-0.3728,-0.381,-0.3826,-0.3802,-0.3802,-0.3802,-0.3802,-0.3802,-0.3802,-0.3841,-0.396,-0.4272,-0.4545,-0.4659,-0.4818,-0.4858,-0.4814,-0.48,-0.4846,-0.5022,-0.5158,-0.5332,-0.5601,-0.5789,-0.5822,-0.5657,-0.5716,-0.5583,-0.516,-0.5326,-0.5326,-0.5024,-0.5359,-0.5723,-0.6017,-0.6835,-0.7545,-0.8083,0.0,0.0,0.0,0.0,0.0,0.0,0.0,0.0,0.0,0.0,0.0,0.0,0.0,0.0,0.0,0.0,0.0,0.0,0.0,0.0,0.0,0.0,0.0,0.5925,0.4903,0.4222,0.4229,0.4301,0.4342,0.4384,0.421,0.4014,0.3811,0.3628,0.3418,0.3139,0.3093,0.312,0.3179,0.318,0.318,0.318,0.318,0.318,0.318,0.318,0.318,0.3179,0.312,0.3093,0.309,0.3078,0.2908,0.2621,0.2385,0.2123,0.1803,0.1494,0.1391,0.1391,0.1391,0.1391,0.1386,0.1401,0.1373,0.1224,0.0632,0.0421,0.0168,-0.1177,-0.1724,-0.2102,-0.3109,-0.3431,-0.3575,-0.3822,-0.3838,-0.381,-0.381,-0.3808,-0.3806,-0.3806,-0.3804,-0.3802,-0.3802,-0.396,-0.4235,-0.4623,-0.4701,-0.474,-0.4777,-0.473,0.0,-0.452,-0.4836,-0.5087,-0.5087,-0.5557,-0.5657,-0.5153,-0.5087,-0.4921,-0.4625,-0.4592,-0.4661,-0.4797,-0.5491,-0.5888,-0.5921,-0.7297,-0.8196,-0.8584,0.0,0.0,0.0,0.0,0.0,0.0,0.0,0.0,0.0,0.0,0.0,0.0,0.0,0.0,0.0,0.0,0.0,0.0,0.0,0.0,0.0,0.7617,0.7254,0.7039,0.5894,0.5163,0.5317,0.4853,0.4508,0.4532,0.4353,0.4207,0.4182,0.3992,0.3735,0.3456,0.3457,0.3364,0.323,0.318,0.318,0.318,0.318,0.318,0.318,0.318,0.318,0.318,0.3162,0.3156,0.3152,0.314,0.3066,0.2965,0.2684,0.2517,0.2406,0.1711,0.1455,0.1391,0.1391,0.1391,0.1389,0.1247,0.1285,0.1323,0.1014,0.0697,0.0258,-0.0602,-0.1362,-0.2102,-0.3109,-0.3514,-0.3705,-0.3914,-0.3979,-0.3961,-0.3961,-0.391,-0.3863,-0.3863,-0.3849,-0.3802,-0.3802,-0.3843,-0.396,-0.4235,-0.4506,-0.466,-0.4586,-0.4656,0.0,-0.452,-0.4504,-0.4661,-0.5054,-0.4894,-0.4831,-0.509,-0.4761,-0.4498,-0.4398,-0.4528,-0.4625,-0.4661,-0.509,-0.5749,-0.6601,-0.7614,-0.8286,0.0,0.0,0.0,0.0,0.0,0.0,0.0,0.0,0.0,0.0,0.0,0.0,0.0,0.0,0.0,0.0,0.0,0.0,0.0,0.0,0.0,0.0,0.8044,0.8053,0.8261,0.6998,0.6037,0.5847,0.5439,0.5028,0.4728,0.4581,0.4462,0.4365,0.4209,0.3986,0.3636,0.3586,0.3484,0.323,0.318,0.318,0.318,0.318,0.318,0.318,0.318,0.318,0.318,0.318,0.318,0.3179,0.3142,0.3114,0.3087,0.2858,0.2735,0.0,0.0,0.0,0.0,0.0,0.1391,0.1391,0.1256,0.13,0.1345,0.1166,0.0934,0.0528,-0.0264,-0.1047,-0.1901,-0.2892,-0.3475,-0.3792,-0.4006,-0.4023,-0.3994,-0.3994,-0.3954,-0.3957,-0.3957,-0.3885,-0.3859,-0.3859,-0.3828,0.0,-0.396,-0.4233,-0.4484,-0.4574,-0.4617,-0.4611,-0.4597,-0.4479,-0.4487,-0.4734,-0.4498,-0.4434,-0.4728,-0.4464,0.0,0.0,0.0,-0.4628,-0.4987,-0.5415,0.0,0.0,0.0,-0.8564,-0.8768,-0.9051,0.0,0.0,-0.8656,-0.8557,0.0,0.0,0.0,0.0,0.0,0.0,0.0,0.0,0.0,0.0,0.0,0.0,0.0,0.0,0.0,0.0,0.8539,0.8865,0.9335,0.8182,0.7016,0.6265,0.6038,0.5635,0.4977,0.4834,0.4684,0.4487,0.4438,0.4237,0.3737,0.3685,0.0,0.0,0.0,0.318,0.318,0.318,0.318,0.318,0.318,0.318,0.318,0.318,0.318,0.318,0.318,0.315,0.3101,0.2903,0.2772,0.2671,0.2105,0.1905,0.1854,0.1546,0.1398,0.1395,0.1395,0.0,0.0,0.1166,0.1121,0.0897,-0.0045,-0.0852,-0.1614,-0.2598,-0.3361,-0.3879,-0.4144,-0.4126,-0.4023,-0.4023,-0.4017,-0.4008,-0.4008,-0.3979,-0.3916,-0.3916,-0.384,-0.3818,-0.3818,-0.3969,-0.4235,-0.4584,-0.4563,-0.4529,-0.465,-0.4588,-0.4465,-0.4431,0.0,0.0,-0.44,-0.4334,-0.43,-0.43,-0.43,-0.4664,-0.5451,-0.6005,-0.6699,-0.7568,-0.8317,-0.8802,-0.8985,-0.921,-0.9376,-0.9466,-0.8987,-0.8626,0.0,0.0,0.0,0.0,0.0,0.0,0.0,0.0,0.0,0.0,0.0,0.0,0.0,0.0,0.0,0.8793,0.9034,0.9286,0.9388,0.9207,0.8796,0.7987,0.6752,0.5917,0.5789,0.5188,0.4784,0.4736,0.4736,0.4585,0.4237,0.4034,0.3783,0.3534,0.3332,0.318,0.318,0.318,0.318,0.318,0.318,0.0,0.318,0.318,0.318,0.318,0.318,0.3173,0.3162,0.3162,0.2978,0.2726,0.215,0.1897,0.1849,0.1605,0.1493,0.1472,0.1242,0.1274,0.1345,0.1166,0.1121,0.0942,0.0179,-0.0718,0.0,-0.2598,-0.3352,-0.3924,-0.4231,-0.4261,-0.4249,-0.4249,-0.4195,-0.4146,-0.4146,-0.4073,-0.3968,-0.3968,-0.3934,-0.3873,-0.3873,-0.4011,-0.4118,-0.4196,-0.4373,-0.452,-0.4537,-0.4533,-0.4668,-0.5061,-0.4625,-0.4464,-0.4924,-0.4564,-0.43,-0.43,-0.43,-0.4431,-0.4791,-0.5415,-0.6112,-0.6872,-0.7722,-0.8376,-0.8835,-0.9145,-0.9306,-0.9332,-0.9111,-0.8993,0.0,0.0,0.0,0.0,0.0,0.0,0.0,0.0,0.0,0.0,0.0,0.9567,0.9207,0.0,0.9352,0.9243,0.9435,0.9577,0.9526,0.9571,0.9278,0.8482,0.7686,0.7039,0.6639,0.5889,0.5388,0.5388,0.5035,0.4686,0.4438,0.4286,0.4036,0.3636,0.3484,0.3347,0.3275,0.3195,0.3195,0.3224,0.3195,0.318,0.318,0.318,0.318,0.318,0.318,0.318,0.318,0.318,0.3112,0.2933,0.2512,0.2183,0.1861,0.1765,0.1611,0.1503,0.1362,0.1353,0.1432,0.1189,0.1093,0.1,0.0405,-0.0403,-0.1166,-0.1837,-0.2734,-0.3587,-0.3719,-0.4032,-0.43,-0.43,-0.4267,-0.4236,-0.4236,-0.4167,-0.4104,-0.4104,-0.403,-0.3952,-0.3908,-0.3943,-0.4016,-0.4086,-0.4303,-0.4477,-0.4498,-0.4578,-0.4712,-0.4868,-0.4591,-0.4495,-0.4667,-0.4464,-0.43,-0.43,-0.43,-0.4398,-0.4592,-0.515,-0.5807,-0.6535,-0.7326,-0.8047,-0.8641,-0.899,-0.921,-0.93,-0.9303,-0.9233,0.0,0.0,0.0,0.0,0.0,0.0,0.0,1.0841,1.0514,1.0075,0.9856,0.9647,0.941,0.9495,0.9607,0.9511,0.9651,0.97,0.9608,0.9579,0.9377,0.873,0.8482,0.8134,0.7487,0.6539,0.5992,0.5992,0.5236,0.4686,0.4487,0.4438,0.4187,0.3685,0.3635,0.3516,0.332,0.3211,0.3211,0.332,0.3209,0.318,0.318,0.318,0.318,0.318,0.318,0.318,0.318,0.318,0.318,0.318,0.2977,0.2527,0.2074,0.1978,0.1781,0.1583,0.1535,0.1531,0.1475,0.1263,0.1163,0.1066,0.0636,-0.0045,-0.0766,-0.0943,-0.2061,-0.3183,-0.3183,-0.3762,-0.43,-0.43,-0.43,-0.43,-0.43,-0.4244,-0.4241,-0.4241,-0.4124,-0.4038,-0.3965,-0.3922,-0.3949,-0.4014,-0.4231,-0.4392,-0.4457,-0.4618,-0.4683,-0.4561,-0.4534,-0.4457,-0.4311,-0.43,-0.43,-0.43,-0.43,-0.4367,-0.4528,-0.4951,-0.5477,-0.6166,-0.6896,-0.7591,-0.8252,-0.87,-0.9017,-0.921,-0.9382,-0.9358,1.3513,1.3227,1.2824,1.2324,1.16,1.086,0.0,1.0075,0.9756,0.9902,0.9893,0.9826,0.9602,0.9673,0.9688,0.9457,0.9521,0.9604,0.9624,0.9579,0.9579,0.948,0.8832,0.8382,0.8283,0.6889,0.5992,0.5992,0.5236,0.4784,0.4734,0.4537,0.4286,0.3984,0.3736,0.3516,0.332,0.3211,0.3211,0.332,0.3209,0.318,0.318,0.318,0.318,0.318,0.318,0.318,0.318,0.318,0.318,0.318,0.318,0.2971,0.2659,0.2159,0.1988,0.1909,0.1664,0.1549,0.1478,0.1475,0.1331,0.1183,0.1067,0.023,-0.0689,-0.0721,-0.1927,-0.3183,-0.3183,-0.3762,-0.43,-0.43,-0.43,-0.43,-0.43,-0.4291,-0.4285,-0.4285,-0.4216,-0.4155,-0.4187,-0.4008,-0.3869,-0.3855,-0.3999,-0.419,-0.4368,-0.4477,-0.4595,-0.4758,-0.4599,-0.4457,-0.4311,-0.43,-0.43,-0.43,-0.43,-0.43,-0.4334,-0.4561,-0.4918,-0.5408,-0.6133,-0.6798,-0.7335,-0.8149,-0.8673,-0.8867,-0.9183,-0.9358,1.3885,1.3639,1.3088,1.2397,1.1642,1.0914,1.0424,1.0139,1.0043,1.0257,1.0164,1.0078,1.0103,1.0027,0.9949,0.9769,0.9728,0.9701,0.9612,0.9535,0.9506,0.9616,0.9278,0.8928,0.8432,0.7388,0.6492,0.6042,0.5236,0.4784,0.4784,0.4686,0.4558,0.4356,0.405,0.3796,0.3637,0.3383,0.3313,0.3373,0.3226,0.318,0.318,0.318,0.318,0.318,0.318,0.318,0.318,0.318,0.318,0.318,0.318,0.313,0.2977,0.2625,0.2361,0.2196,0.1947,0.1838,0.1773,0.1607,0.1504,0.1402,0.1232,0.0794,0.0323,0.0183,-0.0679,-0.1613,-0.1703,-0.2598,-0.3494,-0.3628,-0.3987,-0.43,-0.43,-0.4168,-0.4078,-0.4078,-0.4053,-0.4014,-0.3962,-0.4024,-0.401,-0.3865,-0.3996,-0.4118,-0.4233,-0.4465,-0.468,-0.4804,-0.4616,-0.4484,-0.4438,-0.4338,-0.43,-0.43,-0.43,-0.43,-0.43,-0.4364,-0.4661,-0.5183,-0.5573,-0.6166,-0.7031,-0.7717,-0.8242,-0.8641,-0.9081,-0.9338,1.3777,1.3675,1.3304,1.2311,1.1773,1.1306,1.0655,1.0457,1.0438,1.0546,1.0445,1.0348,1.0459,1.032,1.0158,0.9998,0.9907,0.9755,0.9604,0.947,0.9469,0.9608,0.9579,0.9278,0.8482,0.7686,0.6889,0.6042,0.5236,0.4794,0.4871,0.4873,0.4763,0.4646,0.4386,0.4133,0.3879,0.3591,0.3404,0.3412,0.3307,0.3205,0.3205,0.3221,0.323,0.3279,0.3212,0.3205,0.3204,0.3187,0.318,0.318,0.318,0.318,0.318,0.2977,0.2725,0.2472,0.2222,0.2071,0.1967,0.179,0.1683,0.1579,0.1354,0.1233,0.1072,0.0927,0.0273,-0.0448,-0.0583,-0.1568,-0.2597,-0.3002,-0.3539,-0.3985,-0.4253,-0.4078,-0.3903,-0.3903,-0.3857,-0.3794,-0.3736,-0.3926,-0.404,-0.391,-0.3957,-0.4069,-0.4081,-0.4467,-0.4696,-0.4731,-0.4639,-0.4591,-0.4558,-0.4449,-0.4346,-0.4346,-0.4317,-0.43,-0.43,-0.43,-0.4498,-0.4858,-0.5117,-0.5708,-0.6634,-0.7186,-0.7809,-0.8414,-0.8861,-0.9145,1.2831,1.3037,1.3088,1.1858,1.1736,1.1813,1.1136,1.0786,1.058,1.0615,1.0543,1.05,1.0514,1.0427,1.0306,1.0019,0.9907,0.9755,0.9604,0.947,0.9469,0.9608,0.9579,0.9278,0.8482,0.7686,0.6889,0.6042,0.5236,0.4873,0.4963,0.5019,0.4904,0.4727,0.4676,0.4452,0.3879,0.3799,0.3662,0.3412,0.3349,0.3319,0.332,0.338,0.3407,0.3403,0.3345,0.3319,0.3315,0.3204,0.318,0.318,0.318,0.318,0.318,0.318,0.3027,0.2775,0.2472,0.2222,0.2022,0.1969,0.1817,0.161,0.1579,0.1404,0.1186,0.1117,0.0365,-0.0403,-0.0403,-0.094,-0.17,-0.2688,-0.2913,-0.3181,-0.4119,-0.4078,-0.3903,-0.3903,-0.3723,-0.3587,-0.3585,-0.3699,-0.3821,-0.3815,-0.3843,-0.3945,-0.409,-0.4467,-0.4658,-0.454,-0.4675,-0.4776,-0.4692,-0.4569,-0.4498,-0.4498,-0.436,-0.43,-0.43,-0.43,-0.43,-0.4334,-0.4824,-0.5388,-0.5921,-0.6601,-0.7381,-0.8204,-0.8441,-0.8802,1.3272,1.3198,1.2967,1.2059,1.1584,1.1324,1.1288,1.1046,1.0955,1.1278,1.1012,1.0815,1.0963,1.0569,1.018,1.0083,0.9633,0.9382,0.9587,0.9372,0.9295,0.9592,0.9579,0.9278,0.8482,0.7686,0.6889,0.6042,0.5348,0.4939,0.5021,0.5028,0.5051,0.5032,0.4872,0.4615,0.4209,0.3999,0.3697,0.3413,0.3391,0.3382,0.3383,0.3403,0.3413,0.3412,0.3391,0.3382,0.3376,0.3316,0.329,0.3288,0.3196,0.318,0.318,0.318,0.313,0.3029,0.2775,0.2624,0.2474,0.2123,0.1921,0.1817,0.1655,0.1531,0.1453,0.1377,0.1116,0.0821,0.063,0.0045,-0.0582,-0.1121,-0.1567,-0.2104,-0.291,-0.2911,-0.2911,-0.3361,-0.3361,-0.3317,-0.3317,-0.3522,-0.371,-0.3787,-0.3849,-0.3947,-0.409,-0.4235,-0.4377,-0.4609,-0.4614,-0.4627,-0.4739,-0.4698,-0.4627,-0.4627,-0.4514,-0.4449,-0.4449,-0.4341,-0.43,-0.43,-0.4827,-0.5355,-0.5892,-0.6568,-0.7223,-0.7889,-0.8475,-0.8876,1.3377,1.3126,1.282,1.1886,1.1376,1.1167,1.1425,1.1277,1.1201,1.1472,1.1189,1.0932,1.1078,1.0589,1.0121,1.0121,0.9584,0.9214,0.9482,0.9279,0.923,0.9534,0.9579,0.9377,0.8882,0.8084,0.7306,0.66,0.5858,0.5464,0.5588,0.5284,0.5198,0.529,0.5127,0.4852,0.4467,0.4221,0.386,0.3443,0.3443,0.3454,0.3474,0.3474,0.3474,0.3474,0.3451,0.3443,0.3437,0.3377,0.3353,0.3347,0.3286,0.3212,0.3209,0.3188,0.318,0.318,0.3027,0.2876,0.2725,0.2373,0.2222,0.2121,0.1919,0.1794,0.1715,0.1693,0.1607,0.1476,0.1275,0.0857,0.0359,-0.0134,-0.0582,-0.1119,-0.1925,-0.2149,-0.2329,-0.2777,-0.2959,-0.3094,-0.3094,-0.3274,-0.3517,-0.3747,-0.3817,-0.3909,-0.4029,-0.4091,-0.4235,-0.4548,-0.4594,-0.4667,-0.486,-0.479,-0.4753,-0.4753,-0.4638,-0.4569,-0.4569,-0.4457,-0.436,-0.436,-0.4692,-0.5265,-0.6007,-0.6499,-0.714,-0.7928,-0.8444,-0.8819,1.3135,1.2906,1.2729,1.1424,1.1256,1.1461,1.1668,1.1509,1.1302,1.1315,1.1081,1.092,1.0905,1.05,1.0186,1.0172,0.9616,0.9225,0.939,0.9257,0.9238,0.9575,0.962,0.9628,0.9628,0.8939,0.8256,0.7686,0.6773,0.6359,0.6586,0.5737,0.5292,0.5377,0.5382,0.5096,0.4529,0.4407,0.4102,0.3501,0.3501,0.3531,0.3587,0.3587,0.3587,0.3583,0.3526,0.3501,0.3496,0.344,0.3417,0.3412,0.335,0.3324,0.3315,0.3205,0.3183,0.318,0.318,0.3029,0.2826,0.2826,0.2623,0.2422,0.2371,0.2194,0.2016,0.1965,0.1768,0.1529,0.1481,0.1458,0.1166,0.0269,0.009,-0.0179,-0.1119,-0.1701,-0.2059,-0.2105,-0.2511,-0.2873,-0.2875,-0.305,-0.3339,-0.3709,-0.3785,-0.3813,-0.3889,-0.4065,-0.423,-0.4364,-0.4584,-0.4779,-0.4976,-0.4871,-0.4806,-0.4806,-0.473,-0.4698,-0.4698,-0.458,-0.4514,-0.4514,-0.4549,-0.5067,-0.6172,-0.6298,-0.7019,-0.8231,-0.8276,-0.8599,1.4182,1.3943,1.3573,1.254,1.2451,1.2485,1.1833,1.1634,1.1578,1.1425,1.1314,1.1149,1.0799,1.0458,1.0156,0.9997,0.9514,0.9241,0.966,0.9656,0.9706,0.9952,1.0085,1.0216,1.0216,0.9946,0.9799,0.9812,0.8206,0.7076,0.6645,0.6406,0.6021,0.5437,0.5382,0.518,0.4728,0.4271,0.3851,0.3564,0.3564,0.3572,0.3587,0.3587,0.3587,0.3587,0.3571,0.3564,0.3559,0.35,0.3474,0.3469,0.3412,0.3361,0.3319,0.3304,0.3219,0.318,0.318,0.318,0.3079,0.2876,0.2775,0.2624,0.2222,0.2214,0.2198,0.1824,0.1737,0.1746,0.1533,0.1458,0.1345,0.1121,0.1031,0.0852,0.009,-0.0179,-0.0403,-0.0986,-0.1614,-0.2243,-0.2784,-0.305,-0.3221,-0.3337,-0.3648,-0.39,-0.3982,-0.3983,-0.4053,-0.423,-0.4395,-0.4543,-0.474,-0.4872,-0.4933,-0.4933,-0.4855,-0.4787,-0.4787,-0.4706,-0.4643,-0.4643,-0.5,-0.5321,-0.5606,-0.6033,-0.669,-0.7482,-0.7771,-0.8239,1.452,1.4241,1.3905,1.2836,1.2576,1.2427,1.1735,1.1373,1.1209,1.1089,1.0986,1.0797,1.0419,1.013,0.9853,0.965,0.9393,0.9249,0.9509,0.9686,0.9884,1.0075,1.0299,1.0413,1.0413,1.0443,1.0536,1.0772,0.9222,0.8157,0.7862,0.75,0.6877,0.5993,0.5993,0.5631,0.486,0.4255,0.3889,0.3757,0.3643,0.3587,0.3587,0.3587,0.3587,0.3587,0.3587,0.3587,0.3585,0.355,0.3537,0.353,0.3471,0.3428,0.3392,0.3341,0.33,0.3216,0.3189,0.318,0.318,0.3029,0.2977,0.2928,0.2625,0.2575,0.2467,0.2093,0.1961,0.188,0.162,0.1488,0.1455,0.1455,0.14,0.13,0.0942,0.0628,0.0179,-0.0538,-0.13,-0.193,-0.2334,-0.2782,-0.3094,-0.3183,-0.3408,-0.3691,-0.3907,-0.399,-0.4072,-0.4196,-0.4254,-0.4397,-0.4548,-0.474,-0.4859,-0.4859,-0.4876,-0.4876,-0.4876,-0.4798,-0.4732,-0.4732,-0.4989,-0.5283,-0.5572,-0.5892,-0.6548,-0.7474,-0.7691,-0.8155,1.4583,1.4228,1.3883,1.285,1.2281,1.1907,1.1473,1.1008,1.0615,1.0608,1.0402,1.0162,0.9822,0.969,0.9526,0.9334,0.9336,0.931,0.9341,0.964,0.9985,1.0157,1.0347,1.0462,1.0507,1.0665,1.0813,1.1027,1.0024,0.9439,0.9464,0.864,0.7756,0.6877,0.6771,0.6156,0.5096,0.4428,0.4092,0.3982,0.3757,0.3643,0.3587,0.3587,0.3587,0.3587,0.3587,0.3587,0.3587,0.3587,0.3587,0.3582,0.3529,0.3503,0.3484,0.3383,0.3335,0.3313,0.3209,0.3187,0.318,0.318,0.318,0.318,0.318,0.3027,0.2775,0.2472,0.2241,0.2014,0.1719,0.1625,0.158,0.1533,0.1463,0.1441,0.1441,0.0944,0.0314,-0.0403,-0.1076,-0.1525,-0.1615,-0.2199,-0.2693,-0.2959,-0.3047,-0.3227,-0.3723,-0.4007,-0.4154,-0.4203,-0.4202,-0.423,-0.4376,-0.4589,-0.4701,-0.4701,-0.4898,-0.5018,-0.5018,-0.4876,-0.482,-0.482,-0.482,-0.5121,-0.5679,-0.5765,-0.6402,-0.7553,-0.7629,-0.8093,1.513,1.4408,1.3743,1.3548,1.2712,1.1894,1.151,1.104,1.0588,1.0196,1.0088,0.9867,0.9277,0.9412,0.9517,0.9331,0.9399,0.9606,1.0043,1.0273,1.0473,1.0748,1.0731,1.0806,1.1047,1.0982,1.1057,1.1295,1.1211,1.0761,0.9798,0.9357,0.8751,0.7811,0.7099,0.649,0.604,0.5208,0.4484,0.3982,0.398,0.3813,0.3587,0.3587,0.3587,0.3587,0.3587,0.0,0.3587,0.3587,0.3587,0.3586,0.3575,0.3541,0.3493,0.3473,0.3405,0.332,0.3309,0.3221,0.318,0.318,0.318,0.318,0.2927,0.2977,0.3029,0.2522,0.2538,0.2551,0.2063,0.2029,0.204,0.1613,0.1682,0.1749,0.1519,0.1362,0.1031,0.0359,0.009,-0.0179,-0.0807,-0.0987,-0.13,-0.1929,-0.224,-0.2597,-0.3227,-0.3654,-0.3943,-0.4171,-0.4198,-0.4219,-0.4241,-0.4518,-0.4701,-0.4701,-0.4898,-0.5018,-0.5018,-0.4996,-0.4947,-0.4947,-0.4947,-0.5024,-0.514,-0.516,-0.5518,-0.6247,-0.6788,-0.7399,1.4872,1.419,1.3502,1.3238,1.2458,1.1607,1.0991,1.0549,1.0236,1.0014,0.9797,0.9527,0.9217,0.9226,0.9233,0.9091,0.9359,0.9634,0.9916,1.0283,1.0585,1.0731,1.0764,1.0855,1.1002,1.1014,1.1092,1.1403,1.1509,1.1345,1.0794,1.0017,0.9412,0.8968,0.7922,0.7096,0.6487,0.5931,0.5264,0.4484,0.4148,0.3924,0.3813,0.3643,0.3587,0.3643,0.4091,0.4258,0.4314,0.4814,0.4704,0.4258,0.4258,0.3959,0.354,0.3508,0.3443,0.3364,0.3332,0.3282,0.318,0.318,0.318,0.318,0.3029,0.3079,0.313,0.2725,0.2707,0.2688,0.2291,0.2259,0.2274,0.2032,0.1939,0.1851,0.1759,0.1548,0.13,0.0987,0.0628,0.0269,-0.0045,-0.0448,-0.0807,-0.1166,-0.1659,-0.2151,-0.2642,-0.3154,-0.3606,-0.3958,-0.4136,-0.4191,-0.4101,-0.4293,-0.447,-0.4587,-0.4734,-0.4898,-0.4979,-0.5018,-0.5018,-0.5018,-0.5018,-0.5018,-0.5018,-0.5018,-0.5323,-0.5902,-0.6247,-0.6899,1.4446,1.388,1.3237,1.2868,1.211,1.1324,1.0757,1.0259,0.9923,1.0079,0.9661,0.9301,0.9238,0.9071,0.8913,0.8903,0.9252,0.9583,0.9657,1.022,1.0635,1.0636,1.0727,1.0801,1.09,1.1018,1.1196,1.1455,1.167,1.1732,1.1623,1.068,1.0186,1.0186,0.9023,0.8033,0.7376,0.6871,0.6262,0.5485,0.4983,0.4704,0.4592,0.4367,0.4255,0.4201,0.4927,0.5208,0.5264,0.5984,0.5873,0.5208,0.5208,0.476,0.4139,0.3918,0.3751,0.3689,0.3414,0.3301,0.3197,0.3184,0.318,0.318,0.318,0.318,0.318,0.2927,0.2876,0.2826,0.2573,0.2545,0.2562,0.2404,0.2156,0.1918,0.1901,0.1645,0.1443,0.1482,0.1031,0.0628,0.0628,0.0134,-0.0314,-0.0448,-0.0942,-0.1524,-0.206,-0.2643,-0.3161,-0.3636,-0.3877,-0.4013,-0.3902,-0.4066,-0.4215,-0.4374,-0.4621,-0.4802,-0.4938,-0.5014,-0.5042,-0.5018,-0.5018,-0.5018,-0.5018,-0.5042,-0.5286,-0.5749,-0.5898,-0.6535,1.4288,1.3737,1.3047,1.305,1.2067,1.1176,1.1643,1.0783,1.0079,1.0667,1.0007,0.9256,0.9047,0.8856,0.8769,0.896,0.9192,0.9493,0.9894,1.031,1.0692,1.0844,1.0819,1.0904,1.1149,1.1268,1.1455,1.1766,1.2098,1.2114,1.1623,1.1514,1.1459,1.1459,1.0237,0.9578,0.9523,0.8416,0.7697,0.7371,0.7315,0.698,0.6424,0.6424,0.6258,0.604,0.6151,0.6151,0.0,0.6262,0.6262,0.6151,0.6151,0.6096,0.5926,0.5087,0.4755,0.4566,0.3691,0.3364,0.3304,0.3197,0.318,0.318,0.318,0.318,0.318,0.318,0.318,0.3079,0.2826,0.2923,0.3007,0.2511,0.2202,0.1936,0.1819,0.1663,0.156,0.1711,0.1525,0.13,0.13,0.1256,0.0987,0.0403,0.0224,-0.0314,-0.166,-0.2106,-0.2551,-0.3173,-0.3426,-0.3557,-0.355,-0.3819,-0.4024,-0.4064,-0.464,-0.4922,-0.4819,-0.5052,-0.5124,-0.5018,-0.5018,-0.5018,-0.5018,-0.5121,-0.521,-0.5293,-0.5933,-0.6318,1.4079,1.3604,1.3021,1.3046,1.2385,1.1759,1.1881,1.141,1.0958,1.0865,1.0398,0.9879,0.9435,0.9093,0.8962,0.9159,0.9144,0.9225,0.9516,0.9828,1.014,1.048,1.0463,1.0585,1.0925,1.1065,1.1347,1.1905,1.2238,1.2222,1.1944,1.1887,1.1841,1.1841,1.1236,1.0625,1.0069,0.9409,0.8748,0.814,0.7756,0.7371,0.6927,0.6758,0.6538,0.6318,0.6871,0.7093,0.0,0.7654,0.7543,0.7093,0.7093,0.676,0.6262,0.5875,0.5702,0.5495,0.4496,0.4156,0.403,0.3401,0.318,0.318,0.318,0.318,0.318,0.318,0.318,0.318,0.3079,0.313,0.3123,0.2949,0.2671,0.2444,0.2405,0.2165,0.1893,0.1877,0.172,0.157,0.1436,0.1391,0.13,0.1031,0.0673,0.0179,-0.0403,-0.0941,-0.1569,-0.2287,-0.307,-0.3542,-0.3542,-0.3646,-0.3729,-0.3859,-0.4065,-0.4266,-0.4474,-0.4763,-0.4948,-0.4989,-0.5149,-0.5227,-0.523,-0.5276,-0.5336,-0.5339,-0.5634,-0.5945,1.3791,1.3609,1.3207,1.3138,1.2766,1.2374,1.2299,1.1971,1.1611,1.139,1.0887,1.0368,0.996,0.9337,0.8971,0.9196,0.9099,0.9052,0.9175,0.9472,0.98,1.0055,1.0189,1.0343,1.0688,1.1047,1.1467,1.2082,1.2222,1.2236,1.2095,1.2,1.1962,1.2027,1.1756,1.1344,1.0731,1.046,0.9962,0.9244,0.8861,0.8423,0.8039,0.7867,0.7593,0.7263,0.7873,0.8094,0.0,0.8657,0.8546,0.7983,0.7983,0.7595,0.7041,0.6763,0.6654,0.6456,0.5407,0.5059,0.4884,0.3861,0.353,0.3531,0.3281,0.318,0.318,0.318,0.318,0.318,0.318,0.318,0.318,0.3079,0.2947,0.2814,0.2799,0.2487,0.2192,0.2132,0.1957,0.1749,0.157,0.1436,0.1391,0.1391,0.0987,0.0628,0.0403,-0.0045,-0.0673,-0.1391,-0.2241,-0.2914,-0.3365,-0.3405,-0.3463,-0.3594,-0.3673,-0.3842,-0.4155,-0.4409,-0.4606,-0.4789,-0.5035,-0.5204,-0.5288,-0.5365,-0.5423,-0.5423,-0.5461,-0.5811,1.3404,1.3653,1.3652,1.344,1.314,1.2943,1.3041,1.235,1.1878,1.2476,1.1484,1.0513,1.0475,0.9498,0.8766,0.8984,0.8983,0.899,0.8998,0.954,0.9812,0.9611,1.0022,1.0403,1.056,1.1331,1.194,1.2354,1.2198,1.209,1.2085,1.1888,1.1869,1.2085,1.1824,1.1809,1.2001,1.1732,1.1404,1.1072,1.1072,1.0802,1.0257,1.0257,0.9926,0.9379,0.9379,0.9213,0.0,0.8881,0.8881,0.8881,0.8881,0.8881,0.8771,0.7928,0.7593,0.7442,0.6282,0.5888,0.5748,0.4735,0.4379,0.423,0.343,0.318,0.318,0.318,0.318,0.318,0.318,0.318,0.313,0.2876,0.2825,0.276,0.2709,0.2465,0.2371,0.2558,0.2185,0.1794,0.1794,0.157,0.1391,0.1391,0.1391,0.1166,0.0493,0.0403,0.009,-0.0628,-0.0718,-0.13,-0.2784,-0.3094,-0.3226,-0.3226,-0.3624,-0.3857,-0.3824,-0.399,-0.4161,-0.4323,-0.4576,-0.4787,-0.5001,-0.532,-0.5505,-0.5508,-0.5629,-0.608,1.3333,1.3554,1.3588,1.3662,1.3438,1.3226,1.34,1.3068,1.2709,1.262,1.2065,1.1384,1.0633,0.985,0.93,0.9218,0.9037,0.901,0.9164,0.9369,0.9637,1.0051,1.0565,1.0986,1.1198,1.1458,1.1723,1.1992,1.1902,1.1808,1.1723,1.1652,1.1709,1.1912,1.1812,1.1863,1.2072,1.1804,1.1657,1.1728,1.1514,1.1131,1.0582,1.0582,1.0147,0.9379,0.9379,0.9213,0.8885,0.8885,0.8885,0.8885,0.8885,0.8885,0.8881,0.8602,0.8488,0.8339,0.7251,0.6846,0.6702,0.5599,0.483,0.4329,0.4079,0.363,0.318,0.318,0.318,0.318,0.318,0.318,0.318,0.3079,0.3079,0.3074,0.3056,0.2927,0.2806,0.2694,0.2435,0.2199,0.1839,0.1749,0.1615,0.1436,0.1391,0.13,0.1121,0.1076,0.0807,0.0134,0.0045,-0.0538,-0.2019,-0.2198,-0.2467,-0.2962,-0.3141,-0.3264,-0.3374,-0.3638,-0.3846,-0.4035,-0.4478,-0.4743,-0.4789,-0.5215,-0.5497,-0.5634,-0.5672,-0.5822,1.3138,1.3452,1.3653,1.3777,1.3624,1.3469,1.3589,1.3459,1.32,1.2818,1.2385,1.1899,1.1228,1.0278,0.9581,0.9622,0.9273,0.9036,0.9142,0.9311,0.9624,1.0152,1.0631,1.1075,1.1368,1.1472,1.16,1.1803,1.1746,1.1652,1.1524,1.1439,1.1453,1.1576,1.1661,1.1803,1.1963,1.1889,1.1884,1.1896,1.1805,1.1514,1.1021,1.0911,1.0527,0.9871,0.9651,0.9379,0.0,0.8937,0.8885,0.8885,0.8885,0.8885,0.8885,0.8885,0.8885,0.8783,0.8002,0.7747,0.7543,0.6412,0.5532,0.483,0.483,0.4081,0.318,0.318,0.318,0.318,0.318,0.318,0.318,0.318,0.318,0.318,0.318,0.3135,0.3049,0.2905,0.2676,0.2424,0.2109,0.2019,0.1839,0.157,0.157,0.1525,0.1436,0.1391,0.1256,0.0807,0.0762,0.0314,-0.0852,-0.1211,-0.1705,-0.2424,-0.2469,-0.2648,-0.305,-0.323,-0.3408,-0.3626,-0.4076,-0.4393,-0.4569,-0.5104,-0.5463,-0.5597,-0.5644,-0.5688,0.0,1.3307,1.3684,1.3684,1.3589,1.352,1.361,1.3491,0.0,1.3038,1.2487,1.2086,1.2071,1.0776,0.9833,1.0094,0.9683,0.9234,0.9045,0.9381,0.9795,1.0077,1.0417,1.0815,1.1205,1.1378,1.1572,1.1761,1.16,1.1496,1.1496,1.1302,1.1194,1.1194,1.1392,1.1595,1.1794,1.1954,1.1965,1.1718,1.1909,1.1896,1.1623,1.1295,1.1017,1.0692,1.0143,0.9706,0.9379,0.9051,0.8937,0.8937,0.8885,0.894,0.8937,0.8885,0.8875,0.8824,0.8584,0.8476,0.8314,0.7163,0.6282,0.5684,0.5636,0.4533,0.3281,0.3281,0.323,0.318,0.318,0.318,0.318,0.318,0.318,0.318,0.318,0.3135,0.3097,0.3097,0.2769,0.2513,0.2513,0.2334,0.2154,0.1884,0.1794,0.1705,0.148,0.1391,0.1391,0.1391,0.1391,0.1166,0.0538,-0.0179,-0.0942,-0.166,-0.1749,-0.2109,-0.2784,-0.2873,-0.3006,-0.3183,-0.3452,-0.381,-0.4253,-0.4968,-0.5327,-0.5371,-0.5597,-0.5688,1.236,0.0,1.241,1.241,1.2494,1.2549,0.0,1.2562,1.2517,1.2616,1.2296,1.2002,1.1875,1.1337,1.0849,1.0726,1.0557,1.0353,1.0078,1.0233,1.0505,1.0961,1.1039,1.1187,1.1477,1.1339,1.1288,1.1335,1.1298,1.1274,1.1274,1.1222,1.1194,1.1194,1.1246,1.1373,1.1586,1.1794,1.1926,1.2037,1.2234,1.2169,1.1896,1.1841,1.1509,1.0966,1.0637,1.0198,0.9706,0.9379,0.9268,0.9268,0.8992,0.9047,0.9268,0.8992,0.8811,0.8737,0.8547,0.8411,0.8186,0.7133,0.6681,0.6381,0.5784,0.4883,0.413,0.413,0.3681,0.318,0.318,0.318,0.318,0.318,0.318,0.318,0.318,0.3135,0.3097,0.3097,0.2954,0.2739,0.2513,0.2469,0.2334,0.2154,0.193,0.1794,0.1705,0.1525,0.1391,0.1391,0.1391,0.1345,0.1166,0.0538,-0.0179,-0.0897,-0.148,-0.1885,-0.2064,-0.2604,-0.2918,-0.2963,-0.3184,-0.3539,-0.3983,-0.4387,-0.4659,-0.4884,-0.5282,-0.5463,1.2033,1.2107,1.2221,1.2112,1.2214,1.2316,1.2282,1.2282,1.2306,1.2295,1.2127,1.204,1.213,1.1664,1.1383,1.168,1.1223,1.0722,1.0536,1.0651,1.0881,1.1096,1.1168,1.124,1.138,1.1292,1.1194,1.1194,1.1194,1.1194,1.1194,1.1194,1.1194,1.1194,1.1194,1.125,1.1368,1.1576,1.1784,1.194,1.2151,1.2243,1.2169,1.206,1.1841,1.1509,1.1072,1.0692,1.0363,0.9981,0.9816,0.9761,0.943,0.9323,0.9379,0.9213,0.8951,0.8689,0.8533,0.8343,0.8049,0.7509,0.7332,0.7285,0.6836,0.6132,0.5429,0.5031,0.4381,0.3731,0.3731,0.3481,0.318,0.318,0.318,0.318,0.318,0.3135,0.3097,0.3097,0.3001,0.2873,0.2694,0.2694,0.2604,0.2379,0.2199,0.2064,0.1839,0.166,0.1525,0.1436,0.1391,0.1391,0.1391,0.1076,0.0538,-0.0134,-0.0583,-0.1076,-0.1794,-0.2199,-0.2558,-0.2875,-0.3094,-0.3315,-0.3583,-0.3941,-0.4208,-0.4344,-0.4837,-0.5149,1.1833,1.2108,1.2371,1.2112,1.2241,1.2364,1.2112,1.2241,1.2332,1.2062,1.204,1.2178,1.2499,1.2047,1.1888,1.2708,1.1895,1.1095,1.091,1.1012,1.1081,1.1008,1.1109,1.1197,1.1277,1.1243,1.1194,1.1194,1.1194,1.1194,1.1194,1.1194,1.1194,1.1194,1.1194,1.1194,1.1194,1.1411,1.1605,1.1775,1.1935,1.2142,1.234,1.2122,1.2032,1.2005,1.1459,0.0,1.1131,1.0582,1.0363,1.0312,0.9926,0.9691,0.9504,0.9395,0.9063,0.8675,0.8469,0.8248,0.7988,0.7988,0.7988,0.7988,0.7988,0.7534,0.683,0.6134,0.5284,0.458,0.458,0.4081,0.3531,0.343,0.338,0.3331,0.323,0.3135,0.3097,0.3097,0.3001,0.292,0.292,0.292,0.2829,0.2604,0.2513,0.2334,0.1974,0.1885,0.1749,0.148,0.148,0.1436,0.1391,0.1391,0.1166,0.0583,0.0448,-0.0224,-0.157,-0.1749,-0.2109,-0.2739,-0.3005,-0.3138,-0.3138,-0.3583,-0.3805,-0.3805,-0.4344,-0.4656,1.1898,1.2007,1.1945,1.139,1.1686,1.1971,1.1542,1.1783,1.2062,1.201,1.2222,1.2548,1.2877,1.3048,1.3208,1.3361,1.3023,1.2578,1.2098,1.189,1.1683,1.1486,1.1322,1.1307,1.1536,1.134,1.1194,1.1194,1.1194,1.1194,1.1194,1.1194,1.1194,1.1194,1.1194,1.1194,1.1194,1.1411,1.1534,1.1567,1.177,1.1926,1.2133,1.2079,1.2173,1.2332,0.0,1.1728,1.1459,1.0857,1.0637,1.0582,1.0033,0.9836,0.9869,0.9392,0.8994,0.8621,0.8211,0.8029,0.7988,0.7988,0.7988,0.7988,0.7988,0.7889,0.7789,0.769,0.6587,0.5434,0.5434,0.5334,0.5083,0.4381,0.423,0.4029,0.3331,0.3135,0.3097,0.3097,0.3001,0.292,0.292,0.292,0.2875,0.2829,0.2649,0.2469,0.2424,0.2243,0.2019,0.1749,0.1749,0.166,0.1436,0.1391,0.1345,0.1256,0.0718,0.0,-0.0852,-0.148,-0.1839,-0.1974,-0.2603,-0.2963,-0.2963,-0.3184,-0.3315,-0.3315,-0.3807,-0.4028,1.1736,1.2036,1.2196,1.192,1.2188,1.2485,1.2272,1.2524,1.2775,1.2565,1.2645,1.2884,1.3214,1.3397,1.3549,1.368,1.3773,1.3644,1.3238,1.3061,1.2797,1.231,1.2129,1.1887,1.1429,1.1292,1.1194,1.1194,1.1194,1.1194,1.1194,1.1194,1.1194,1.1194,1.1194,1.1194,1.1194,1.1293,1.1401,1.152,1.1609,1.1765,1.1964,1.1964,1.2016,1.2048,0.0,1.1836,1.1681,1.1256,1.1097,1.1039,1.0457,1.0142,1.0002,0.9388,0.895,0.8653,0.8339,0.8137,0.7988,0.7988,0.7988,0.7988,0.7988,0.7988,0.7988,0.7988,0.7135,0.6232,0.6232,0.5934,0.5484,0.5133,0.5033,0.4832,0.4031,0.3816,0.362,0.3192,0.3001,0.292,0.292,0.292,0.292,0.292,0.2784,0.2649,0.2513,0.2424,0.2289,0.2019,0.1885,0.1749,0.1615,0.148,0.1391,0.1391,0.0762,0.0269,-0.009,-0.0807,-0.1391,-0.1794,-0.2154,-0.2513,-0.292,-0.3006,-0.3051,-0.3051,-0.3361,-0.3583,1.1687,1.2087,1.2507,1.2614,1.2819,1.3031,1.3104,1.3316,1.3448,1.3272,1.3294,1.3426,1.3675,1.3784,1.3908,1.421,1.4518,1.461,1.4169,1.4185,1.3955,1.3221,1.3131,1.2777,1.1907,1.1824,1.1824,1.1727,1.1585,1.1487,1.1487,1.1292,1.1194,1.1194,1.1194,1.1194,1.1194,1.1194,1.1279,1.1444,1.1444,1.1553,1.1746,1.1746,1.1775,1.1817,1.1817,1.1817,1.1766,1.1507,1.1403,1.1351,1.0884,1.0443,0.9971,0.9337,0.8972,0.87,0.8475,0.8283,0.8187,0.8038,0.8038,0.8088,0.8041,0.7988,0.7988,0.7988,0.7537,0.7083,0.7083,0.6634,0.6134,0.5934,0.5884,0.5684,0.483,0.4594,0.4282,0.3525,0.323,0.3096,0.2918,0.292,0.292,0.292,0.292,0.2829,0.2604,0.2604,0.2513,0.2289,0.2064,0.193,0.1794,0.157,0.1391,0.1391,0.0897,0.0628,0.0628,-0.0045,-0.0718,-0.1256,-0.1615,-0.2064,-0.2649,-0.2829,-0.292,-0.292,-0.3051,-0.3229,1.1886,1.2222,1.2558,1.2899,1.2994,1.3089,1.3389,1.3477,1.3579,1.3857,1.4188,1.4408,1.4438,1.464,1.4922,1.5245,1.558,1.554,1.4843,1.4981,1.4948,1.4255,1.419,1.4064,1.3757,1.3709,1.3613,1.3366,1.27,1.2322,1.2322,1.159,1.1194,1.1194,1.1194,1.1194,1.1194,1.1194,1.1203,1.1217,1.1217,1.1331,1.1539,1.1539,1.1638,1.1817,1.1817,1.1817,1.1766,1.1507,1.1403,1.1351,1.0984,1.0463,0.9833,0.9364,0.9,0.8741,0.8485,0.8528,0.8676,0.8187,0.8187,0.8333,0.8088,0.7988,0.7988,0.7988,0.7939,0.7889,0.7889,0.7889,0.7637,0.688,0.6728,0.6481,0.5684,0.537,0.5034,0.433,0.4007,0.3628,0.3008,0.292,0.292,0.292,0.292,0.2875,0.2873,0.2873,0.2784,0.2513,0.2469,0.2289,0.1839,0.157,0.1391,0.1391,0.1345,0.1345,0.1345,0.0673,0.0314,0.0224,-0.1121,-0.1839,-0.1885,-0.2558,-0.292,-0.292,-0.292,-0.2918,1.1706,1.227,1.2855,1.298,1.3309,1.3697,1.4064,1.4253,1.4397,1.4513,1.4677,1.4765,1.4765,1.4988,1.5243,1.5367,1.5659,1.5886,1.5779,1.609,1.6033,1.5332,1.5222,1.4937,1.4226,1.413,1.413,1.4034,1.3746,1.327,1.264,1.2301,1.1868,1.1243,1.1194,1.1194,1.1194,1.1194,1.1194,1.1194,1.1194,1.1236,1.1316,1.1316,1.1359,1.143,1.143,1.143,1.143,1.133,1.128,1.123,1.0929,1.0584,1.0162,0.9846,0.9624,0.9521,0.9229,0.908,0.9031,0.8836,0.8584,0.8432,0.8482,0.8382,0.8237,0.8237,0.8237,0.8187,0.8038,0.7988,0.7939,0.7637,0.7534,0.7335,0.6534,0.6195,0.5839,0.5083,0.4739,0.4518,0.4253,0.3808,0.354,0.354,0.3186,0.292,0.292,0.292,0.2873,0.2739,0.2604,0.2289,0.1839,0.1705,0.157,0.1391,0.1391,0.1391,0.1391,0.1166,0.0807,0.0403,-0.0134,-0.0897,-0.1794,-0.2064,-0.2469,-0.292,-0.292,-0.292,1.1745,1.235,1.3031,1.314,1.3579,1.4092,1.4523,1.4706,1.4812,1.5009,1.5053,1.5053,1.5053,1.5236,1.5389,1.5389,1.5782,1.6133,1.6382,1.6778,1.6846,1.6344,1.6271,1.5994,1.5235,1.514,1.514,1.5038,1.48,1.4322,1.3601,1.3264,1.2737,1.2068,1.1731,1.159,1.159,1.134,1.1194,1.1194,1.1194,1.1194,1.1194,1.1194,1.1194,1.1194,1.1194,1.1194,1.1194,1.1194,1.1194,1.1145,1.09,1.0708,1.0511,1.0216,1.0117,1.0068,0.9826,0.9677,0.9529,0.9381,0.9133,0.8928,0.9027,0.8928,0.8779,0.8684,0.8634,0.8584,0.8333,0.8137,0.7988,0.7988,0.7988,0.7826,0.7226,0.6994,0.6588,0.579,0.5448,0.5277,0.5055,0.4563,0.4251,0.4251,0.3674,0.323,0.332,0.3097,0.292,0.292,0.2649,0.2379,0.2064,0.1974,0.1794,0.1525,0.1525,0.148,0.1391,0.1391,0.1166,0.0718,0.0493,-0.009,-0.1121,-0.157,-0.2064,-0.2558,-0.2784,-0.292,1.1996,1.2477,1.3089,1.3411,1.374,1.4157,1.4754,1.4699,1.4655,1.5299,1.5389,1.5389,1.5389,1.5389,1.5389,1.5389,1.5957,1.6411,1.6411,1.6923,1.7279,1.7279,1.7279,1.7239,1.7026,1.6979,1.6885,1.6636,1.5866,1.5432,1.5384,1.4478,1.3908,1.3902,1.2948,1.2419,1.2419,1.1634,1.1243,1.1243,1.1243,1.1194,1.1194,1.1194,1.1194,1.1194,1.1194,1.1194,1.1194,1.1194,1.1194,1.1145,1.09,1.0806,1.0801,1.0507,1.0413,1.0364,1.0117,1.0167,1.0314,0.9772,0.9772,0.9969,0.9677,0.9628,0.9529,0.9286,0.9187,0.9133,0.8874,0.8382,0.7988,0.7988,0.7988,0.7944,0.7845,0.7699,0.7363,0.6471,0.6211,0.5858,0.5144,0.501,0.501,0.501,0.4385,0.4028,0.4253,0.3499,0.292,0.292,0.2649,0.2513,0.2513,0.2334,0.2109,0.1839,0.1794,0.166,0.1391,0.1391,0.1391,0.1391,0.0762,0.0403,0.0403,-0.1076,-0.1794,-0.1839,-0.2558,-0.2875,1.1765,1.2511,1.3323,1.3184,1.3916,1.4666,1.4856,1.4834,1.4878,1.5301,1.5389,1.5389,1.5389,1.5389,1.5389,1.5389,1.5957,1.6411,1.6411,1.6923,1.7279,1.7279,1.7279,1.7286,1.72,1.7192,1.7192,1.7099,1.6857,1.6426,1.571,1.5235,1.4621,1.3902,1.342,1.3178,1.3178,1.2937,1.284,1.284,1.284,1.2257,1.1194,1.1194,1.1194,1.1194,1.1194,1.1194,1.1194,1.1194,1.1194,1.1243,1.1736,1.1932,1.1883,1.1634,1.1634,1.1688,1.0855,1.0609,1.0659,1.0511,1.0216,1.0019,1.0117,1.0019,0.9821,0.9579,0.948,0.9381,0.8924,0.8676,0.8531,0.8333,0.8206,0.8067,0.7873,0.7614,0.7378,0.7103,0.693,0.6745,0.652,0.6077,0.5769,0.5769,0.5319,0.4872,0.4605,0.3898,0.3409,0.3409,0.3139,0.2914,0.278,0.2557,0.2334,0.2109,0.1885,0.166,0.1391,0.1391,0.1391,0.1391,0.1211,0.0852,0.0403,-0.0045,-0.0807,-0.1794,-0.2019,-0.2424,1.2153,1.2892,1.3675,1.3601,1.4229,1.4936,1.5061,1.5097,1.5148,1.5345,1.5389,1.5389,1.5389,1.5389,1.5389,1.5389,1.5957,1.6411,1.6411,1.6923,1.7279,1.7279,1.7279,1.7279,1.7279,1.7279,1.7279,1.7279,1.7279,1.7044,1.6419,1.615,1.5724,1.501,1.4424,1.4094,1.4004,1.3661,1.3511,1.3511,1.3511,1.3028,1.2111,1.2111,1.2111,1.2116,1.178,1.1683,1.1639,1.134,1.1389,1.1731,1.2224,1.2419,1.2419,1.2559,1.2511,1.2322,1.1639,1.1243,1.0949,1.0949,1.0752,1.0507,1.0654,1.0609,1.0408,1.0167,1.0068,0.9969,0.9422,0.9219,0.9071,0.8585,0.8418,0.8268,0.7997,0.7777,0.7675,0.7611,0.7519,0.7408,0.7408,0.7013,0.6659,0.6659,0.6254,0.5672,0.4828,0.4387,0.4032,0.3631,0.3452,0.3317,0.3183,0.2915,0.2691,0.2511,0.2243,0.193,0.157,0.1436,0.1391,0.1391,0.1391,0.1211,0.0807,0.0538,-0.0045,-0.0942,-0.1525,-0.2019,1.2848,1.3418,1.4011,1.4379,1.4706,1.5024,1.5316,1.5389,1.5389,1.5389,1.5389,1.5389,1.5389,1.5389,1.5389,1.5389,1.5935,1.6382,1.6411,1.6894,1.725,1.7279,1.7279,1.7279,1.7279,1.7279,1.7279,1.7279,1.7279,1.7279,1.7279,1.7113,1.6864,1.6593,1.5684,1.5013,1.4762,1.4023,1.364,1.364,1.3657,1.3669,1.3669,1.3553,1.3511,1.3463,1.2802,1.2516,1.2419,1.1731,1.1829,1.2516,1.2565,1.2613,1.271,1.3372,1.3184,1.2613,1.2516,1.2024,1.1389,1.1389,1.134,1.1292,1.1292,1.1247,1.1145,1.09,1.0801,1.0699,1.0145,0.9915,0.9636,0.8841,0.8641,0.8515,0.8169,0.8094,0.8039,0.7926,0.79,0.79,0.79,0.768,0.7551,0.7547,0.7149,0.639,0.5139,0.5008,0.4699,0.3855,0.3676,0.3631,0.3631,0.3406,0.3136,0.2957,0.2691,0.2333,0.1885,0.157,0.1436,0.1391,0.1391,0.1391,0.1391,0.0807,0.0448,0.0359,-0.1031,-0.1749,1.2259,1.2906,1.3675,1.4004,1.4706,1.5301,1.5374,1.5389,1.5389,1.5389,1.5389,1.5389,1.5389,1.5389,1.5389,1.5389,1.576,1.6096,1.6382,1.6756,1.7047,1.725,1.7279,1.7279,1.7279,1.7279,1.7279,1.7279,1.7279,1.7279,1.7279,1.7113,1.6865,1.6515,1.5954,1.5476,1.5157,1.4826,1.4689,1.4689,1.4909,1.4973,1.4973,1.3951,1.3511,1.3511,1.3323,1.3275,1.3227,1.3076,1.313,1.3323,1.3962,1.4208,1.4202,1.44,1.4346,1.4106,1.3468,1.3125,1.3028,1.3028,1.2603,1.2127,1.2127,1.1683,1.1145,1.09,1.0801,1.0672,1.0184,1.0066,0.9862,0.9234,0.88,0.8463,0.8166,0.8001,0.7941,0.7908,0.79,0.79,0.79,0.7856,0.7852,0.8025,0.7452,0.7007,0.6912,0.5988,0.5238,0.5015,0.4304,0.3812,0.3812,0.3631,0.3406,0.3136,0.2913,0.269,0.2379,0.193,0.1615,0.1391,0.1391,0.1391,0.1391,0.1256,0.0897,0.0359,-0.0538,-0.1256,1.2426,1.2987,1.3645,1.4282,1.494,1.5389,1.5389,1.5389,1.5389,1.5389,1.5389,1.5389,1.5389,1.5389,1.5389,1.5389,1.5659,1.5972,1.6133,1.647,1.6727,1.685,1.6872,1.6872,1.6872,1.6872,1.6872,1.6872,1.6872,1.6872,1.6872,1.6788,1.6579,1.6285,1.6007,1.5711,1.5284,1.5187,1.5098,1.5015,1.5117,1.5264,1.5358,1.4836,1.443,1.4052,1.4052,1.4052,1.4052,1.3661,1.3709,1.41,1.4544,1.4688,1.4736,1.5118,1.5022,1.464,1.4202,1.3806,1.3511,1.3511,1.3227,1.2845,1.2516,1.2127,1.1683,1.1149,1.0928,1.0738,1.0398,1.0137,0.9895,0.9459,0.9096,0.8755,0.8539,0.8448,0.8424,0.8556,0.8556,0.8516,0.8384,0.8204,0.8069,0.8201,0.7889,0.758,0.7533,0.6871,0.6166,0.546,0.4926,0.4482,0.4123,0.3857,0.3678,0.3542,0.3227,0.2959,0.269,0.2333,0.2019,0.1794,0.1794,0.1705,0.157,0.157,0.1345,0.0852,0.0134,-0.0359,1.2694,1.3206,1.3784,1.4608,1.5104,1.5389,1.5389,1.5389,1.5389,1.5389,1.5389,1.5389,1.5389,1.5389,1.5389,1.5389,1.5615,1.5848,1.5906,1.6133,1.6353,1.6404,1.6411,1.6411,1.6411,1.6411,1.6411,1.6411,1.6411,1.6411,1.6411,1.6411,1.6257,1.5993,1.5948,1.5706,1.526,1.5215,1.5076,1.4898,1.4908,1.5037,1.5331,1.5625,1.5406,1.4879,1.4879,1.4879,1.4831,1.419,1.4292,1.4879,1.4879,1.4879,1.4975,1.5588,1.5404,1.4879,1.4879,1.4436,1.3896,1.3896,1.3806,1.3613,1.2996,1.2684,1.2356,1.1726,1.1284,1.0972,1.0844,1.0481,1.0083,0.9912,0.9759,0.9486,0.9073,0.8955,0.9043,0.9262,0.9305,0.9218,0.8999,0.86,0.8332,0.8332,0.8288,0.8113,0.7757,0.7577,0.7048,0.5902,0.5549,0.5149,0.4523,0.4168,0.3946,0.3903,0.3542,0.3227,0.3047,0.2781,0.2557,0.2423,0.2333,0.2154,0.193,0.193,0.1749,0.1436,0.0762,0.0448,1.2236,1.3023,1.4011,1.4428,1.4984,1.5389,1.5389,1.5389,1.5389,1.5389,1.5389,1.5389,1.5389,1.5389,1.5389,1.5389,1.5425,1.5549,1.5877,1.595,1.6074,1.6382,1.6411,1.6411,1.6411,1.6411,1.6411,1.6411,1.6411,1.6411,1.6411,1.6411,1.625,1.59,1.5756,1.5498,1.5134,1.474,1.4521,1.4479,1.4536,1.4736,1.5075,1.5317,1.5545,1.5635,1.5635,1.5635,1.5642,1.554,1.554,1.5635,1.5635,1.5635,1.5689,1.5778,1.573,1.5635,1.5635,1.5588,1.5493,1.5493,1.5064,1.4544,1.44,1.3755,1.2961,1.2867,1.2222,1.1584,1.1973,1.1607,1.1156,1.1342,1.1375,1.0975,0.9568,0.9262,0.9262,0.9305,0.9305,0.9301,0.9262,0.8999,0.8823,0.8823,0.8648,0.852,0.8476,0.7893,0.7445,0.7224,0.6121,0.5371,0.5282,0.4656,0.4168,0.3903,0.3857,0.3723,0.3497,0.3227,0.3183,0.3408,0.2782,0.2424,0.2424,0.2424,0.2199,0.1749,0.0987,0.0583,1.231,1.2994,1.3836,1.4379,1.4816,1.5163,1.5345,1.5389,1.5389,1.5389,1.5389,1.5389,1.5389,1.5389,1.5389,1.5389,1.5389,1.5433,1.5579,1.56,1.5652,1.5826,1.584,1.584,1.584,1.584,1.584,1.584,1.584,1.584,1.584,1.584,1.5782,1.5608,1.5516,1.5359,1.509,1.4915,1.4657,1.4398,1.4336,1.4429,1.4716,1.4843,1.5157,1.5591,1.5711,1.5784,1.5784,1.5784,1.5784,1.5784,1.5784,1.5784,1.5784,1.5784,1.5784,1.5784,1.5784,1.5784,1.5784,1.5784,1.5594,1.5181,1.4603,1.409,1.3584,1.2968,1.2432,1.2047,1.2254,1.1987,1.1723,1.1828,1.1886,1.1671,1.0982,1.0381,0.9951,0.9733,0.9563,0.9476,0.9476,0.9257,0.9087,0.8911,0.8828,0.874,0.8612,0.8296,0.7937,0.7533,0.6959,0.6254,0.546,0.5104,0.4701,0.4168,0.3991,0.3857,0.3767,0.3542,0.3542,0.3767,0.3184,0.2825,0.2735,0.2735,0.2466,0.2019,0.1705,0.1436,1.2347,1.2811,1.3404,1.41,1.4457,1.4761,1.517,1.5265,1.5287,1.5374,1.5389,1.5389,1.5389,1.5389,1.5389,1.5389,1.5389,1.5389,1.5389,1.5389,1.5389,1.5389,1.5389,1.5389,1.5389,1.5389,1.5389,1.5389,1.5389,1.5389,1.5389,1.5389,1.5389,1.5389,1.5389,1.534,1.5173,1.5048,1.4824,1.4482,1.4286,1.4323,1.4538,1.4576,1.4851,1.5288,1.5558,1.5718,1.5678,1.5751,1.5784,1.5784,1.5784,1.5784,1.5784,1.5784,1.5784,1.5784,1.5784,1.5784,1.5784,1.5784,1.5731,1.5537,1.4761,1.441,1.4116,1.3312,1.2806,1.2525,1.27,1.251,1.2314,1.2491,1.2534,1.24,1.1843,1.1198,1.0549,1.0081,0.982,0.9689,0.9689,0.9519,0.9301,0.9126,0.8955,0.8823,0.8696,0.8612,0.8388,0.7848,0.7621,0.7092,0.6035,0.5594,0.5149,0.4612,0.4212,0.3991,0.3991,0.3812,0.3767,0.3991,0.3587,0.3317,0.3136,0.3092,0.2825,0.2377,0.2288,0.2154,1.2067,1.2273,1.2696,1.3382,1.3792,1.4201,1.4783,1.4929,1.5017,1.5323,1.5389,1.5389,1.5389,1.5389,1.5389,1.5389,1.5389,1.5389,1.5389,1.5389,1.5389,1.5389,1.5389,1.5389,1.5389,1.5389,1.5389,1.5389,1.5389,1.5389,1.5389,1.5389,1.5389,1.5389,1.5389,1.5389,1.5389,1.495,1.4692,1.4692,1.4482,1.4489,1.4685,1.4826,1.4897,1.4959,1.5261,1.5418,1.5438,1.5718,1.5784,1.5784,1.5784,1.5784,1.5784,1.5784,1.5784,1.5784,1.5784,1.5784,1.5784,1.5784,1.5645,1.5418,1.5351,1.492,1.4475,1.4412,1.3719,1.3113,1.3805,1.3489,1.313,1.3828,1.3997,1.344,1.1499,1.1025,1.0809,1.0125,0.9994,0.9994,0.9994,0.9777,0.9559,0.9559,0.917,0.8911,0.8867,0.8696,0.8568,0.8564,0.7937,0.7489,0.7401,0.6166,0.5371,0.5327,0.4656,0.43,0.43,0.4036,0.3991,0.4255,0.3991,0.3857,0.3857,0.3678,0.3317,0.2868,0.2602,0.2379,1.2558,1.2352,1.2332,1.3023,1.3426,1.3784,1.4223,1.4487,1.4728,1.5009,1.5075,1.5141,1.5345,1.5389,1.5389,1.5389,1.5389,1.5389,1.5389,1.5389,1.5389,1.5389,1.5389,1.5389,1.5389,1.5389,1.5389,1.5389,1.5389,1.5389,1.5389,1.5389,1.5389,1.5389,1.5389,1.5389,1.5389,1.5242,1.5151,1.5151,1.5061,1.5061,1.5151,1.4902,1.4781,1.4767,1.497,1.5084,1.5137,1.5431,1.5551,1.5571,1.5711,1.5784,1.5784,1.5784,1.5784,1.5784,1.5784,1.5784,1.5751,1.5611,1.5478,1.5324,1.495,1.4689,1.4482,1.4295,1.3992,1.3779,1.4046,1.3913,1.3779,1.4046,1.4088,1.3779,1.2528,1.1929,1.1456,1.0771,1.0641,1.0511,1.0081,0.9907,0.9777,0.9646,0.9471,0.9301,0.9174,0.8955,0.8784,0.8784,0.8428,0.8025,0.7533,0.7048,0.6343,0.546,0.5149,0.479,0.43,0.421,0.421,0.43,0.421,0.4078,0.3903,0.3812,0.3542,0.3092,0.3004,0.2736,1.3104,1.2759,1.2604,1.3106,1.3454,1.3741,1.4014,1.4276,1.456,1.4731,1.4787,1.4853,1.5072,1.5155,1.5265,1.5374,1.5389,1.5389,1.5389,1.5389,1.5389,1.5389,1.5389,1.5389,1.5389,1.5389,1.5389,1.5389,1.5465,1.5465,1.5389,1.5465,1.5465,1.5389,1.5389,1.5389,1.5389,1.5401,1.5436,1.5484,1.5484,1.5567,1.5609,1.5235,1.5026,1.5041,1.4972,1.4984,1.4976,1.535,1.5427,1.5362,1.5557,1.5584,1.5538,1.5538,1.5538,1.5538,1.5538,1.5538,1.5504,1.5311,1.5184,1.503,1.4636,1.4449,1.4335,1.4142,1.4088,1.4088,1.4088,1.4088,1.4088,1.4088,1.4088,1.3962,1.3476,1.2833,1.2143,1.1456,1.1154,1.0852,1.0424,1.0168,0.9951,0.9777,0.9646,0.9563,0.9432,0.917,0.8999,0.8911,0.8784,0.8472,0.7937,0.7625,0.7003,0.5813,0.5505,0.506,0.4344,0.43,0.43,0.43,0.43,0.421,0.4036,0.3946,0.3723,0.3452,0.3272,0.3005,0.0,0.0,0.0,1.3674,1.3838,1.4036,1.4155,1.4363,1.4509,1.4497,1.4513,1.4482,1.4504,1.4721,1.4995,1.5309,1.5374,1.5389,1.5389,1.5389,1.5389,1.5389,1.5389,1.5389,1.5389,1.5389,1.5389,1.5389,1.5582,1.5616,1.5431,1.5616,1.5616,1.5431,1.5431,1.5431,1.5431,1.545,1.5526,1.5733,1.5733,1.5865,1.6128,1.5824,1.5692,1.5692,1.5291,1.5057,1.4934,1.5385,1.5473,1.5315,1.5277,1.5187,1.5008,1.5008,1.5008,1.5008,1.5008,1.5008,1.5008,1.4995,1.4756,1.4522,1.4509,1.4309,1.4088,1.4088,1.4088,1.4088,1.4088,1.4088,1.4088,1.4088,1.4088,1.4088,1.4088,1.3519,1.2833,1.2143,1.1499,1.1068,1.1025,1.0467,1.0038,0.9994,0.9777,0.9602,0.9602,0.9432,0.9218,0.8955,0.8911,0.8823,0.8612,0.7981,0.7224,0.6473,0.5813,0.5102,0.4342,0.43,0.43,0.43,0.43,0.43,0.43,0.4036,0.3903,0.3903,0.3406,0.3094,1.4034,0.0,0.0,0.0,0.0,0.0,1.4047,1.4289,1.4516,1.4631,1.4553,1.4529,1.4648,1.4695,1.4744,1.4761,1.5123,1.5389,1.5389,1.5389,1.5389,1.5389,1.5389,1.5389,1.5389,1.5389,1.5389,0.0,1.5582,1.5699,1.5616,1.5873,1.5955,1.5922,1.5922,1.5922,1.5922,1.6031,1.6147,1.6229,1.6353,1.6443,1.6533,1.6162,1.6004,1.5955,1.5658,1.5418,1.5268,1.5289,1.5285,1.5226,1.5277,1.5284,1.5187,1.5053,1.5008,1.5008,1.5008,1.5008,1.4975,1.471,1.4589,1.4482,1.4269,1.4155,1.4088,1.4088,1.4088,1.4088,1.4088,1.4088,1.4088,1.4088,1.4088,1.4088,1.4088,1.3955,1.3568,1.2875,1.2571,1.2143,1.1154,1.0857,1.0554,1.0081,0.9951,0.9907,0.9907,0.9694,0.9432,0.9218,0.9174,0.9087,0.8823,0.8819,0.8416,0.7482,0.6779,0.603,0.5146,0.4567,0.43,0.43,0.43,0.43,0.43,0.421,0.4078,0.3903,0.3406,0.3094,1.4688,1.451,1.4282,1.4231,0.0,0.0,1.4346,1.4647,1.4936,1.4884,1.477,1.4672,1.4763,1.4729,1.4637,1.4567,1.4922,1.5227,1.5204,1.5301,1.5389,1.5389,1.5389,1.5423,1.5499,1.5541,1.5582,1.568,1.5865,1.5982,1.5982,1.6079,1.6087,1.6087,1.6087,1.6087,1.6087,1.6278,1.6394,1.6394,1.6607,1.6689,1.6689,1.6451,1.6368,1.6335,1.6113,1.5858,1.5673,1.548,1.5305,1.5163,1.5224,1.512,1.4895,1.4808,1.4764,1.4764,1.4764,1.4764,1.473,1.4511,1.4415,1.4309,1.4135,1.4088,1.4088,1.4088,1.4088,1.4088,1.4088,1.4088,1.4088,1.4088,1.4088,1.4088,1.4088,1.4088,1.3955,1.3519,1.3215,1.2741,1.1972,1.137,1.0852,1.0467,1.0168,0.9994,0.9994,0.9864,0.9689,0.9432,0.9432,0.9345,0.9087,0.9218,0.8903,0.8013,0.7482,0.6868,0.6033,0.5188,0.4746,0.4746,0.4478,0.43,0.43,0.43,0.4166,0.3903,0.3542,0.3229,1.542,1.541,1.5362,1.5264,1.5274,0.0,1.4815,1.5082,1.5364,1.509,1.4924,1.4825,1.4871,1.4724,1.4615,1.4578,1.4895,1.508,1.4911,1.5179,1.5369,1.5413,1.5413,1.5504,1.5733,1.5733,1.5824,1.6087,1.6278,1.6394,1.6435,1.6245,1.617,1.617,1.617,1.617,1.617,1.6319,1.6435,1.6435,1.6607,1.6689,1.6689,1.6689,1.6689,1.6689,1.6517,1.6319,1.6128,1.5865,1.5533,1.5173,1.5131,1.4866,1.4517,1.444,1.4398,1.444,1.4398,1.4398,1.444,1.4398,1.4279,1.4124,1.413,1.4088,1.4088,1.4088,1.4088,1.4088,1.4088,1.4088,1.4088,1.4088,1.4088,1.4088,1.4088,1.4088,1.4088,1.4088,1.3561,1.3088,1.3003,1.2015,1.1154,1.1025,1.0511,1.0081,0.9994,0.9994,0.9907,0.9646,0.9646,0.9563,0.9345,0.9345,0.9082,0.842,0.8057,0.757,0.6953,0.6033,0.5505,0.5416,0.4656,0.43,0.43,0.43,0.4166,0.3903,0.3723,0.3497,1.5508,1.541,1.5381,1.5362,1.5128,0.0,1.4811,1.4571,1.4459,1.465,1.4554,1.4505,1.4768,1.4806,1.4723,1.4538,1.5218,1.5544,1.5033,1.5021,1.5212,1.5531,1.5562,1.5668,1.5974,1.6004,1.6046,1.6087,1.6278,1.6476,1.6648,1.6607,1.6574,1.6574,1.6574,1.6574,1.6574,1.6607,1.6648,1.6648,1.6697,1.6689,1.6689,1.6689,1.6689,1.6689,1.6648,1.6525,1.636,1.627,1.5982,1.5533,1.5208,1.5159,1.5144,1.4601,1.4482,1.4608,1.4482,1.4524,1.4608,1.444,1.4356,1.4321,1.4166,1.4088,1.4088,1.4088,1.4088,1.4088,1.4088,1.4088,1.4088,1.4088,1.4088,1.4088,1.4088,1.4088,1.4088,1.4088,1.3997,1.3695,1.3088,1.279,1.2229,1.1154,1.0895,1.0598,1.0081,0.9994,0.9907,0.9646,0.9777,0.982,0.9559,0.9733,0.9689,0.934,0.8719,0.8145,0.7614,0.6912,0.6163,0.5416,0.4656,0.43,0.43,0.43,0.4166,0.3903,0.3857,0.3631,1.5527,1.541,1.541,1.541,1.5254,0.0,0.0,1.4932,1.4808,1.4954,1.4715,1.4571,1.4944,1.4766,1.4635,1.4737,1.5339,1.5601,1.5092,1.5266,1.5505,1.5725,1.5474,1.5432,1.5728,1.5743,1.5853,1.6145,1.6226,1.6418,1.6681,1.6689,1.6689,1.6689,1.6689,1.6689,1.6689,1.6689,1.6689,1.6689,1.6689,1.6689,1.6689,1.6689,1.6689,1.6689,1.6689,1.6607,1.6394,1.6394,1.627,1.6023,1.5707,1.5582,1.5484,1.5061,1.4977,1.5019,1.4824,1.4824,1.4873,1.4783,1.465,1.4524,1.4321,1.4166,1.4088,1.4088,1.4088,1.4088,1.4088,1.4088,1.4088,1.4088,1.4088,1.4088,1.4088,1.4088,1.4088,1.4088,1.4088,1.3997,1.361,1.3258,1.279,1.21,1.1413,1.0901,1.0554,1.0212,0.9951,0.982,0.9907,0.9951,0.982,0.9907,0.9951,0.982,0.9336,0.8942,0.8715,0.7925,0.7048,0.6121,0.5589,0.5364,0.5364,0.5013,0.4612,0.4078,0.3946,0.3723,1.5576,1.541,0.0,0.0,1.5352,1.5293,0.0,0.0,0.0,1.5273,1.4859,1.4642,1.5044,1.469,1.4403,1.4675,1.5177,1.5398,1.5011,1.5445,1.577,1.5843,1.5559,1.5418,1.5632,1.5632,1.5776,1.6079,1.6118,1.6269,1.657,1.6594,1.6699,1.6894,1.6779,1.6812,1.7098,1.6976,1.6894,1.6894,1.7017,1.6935,1.6689,1.6812,1.6812,1.6697,1.6853,1.673,1.6476,1.6755,1.6763,1.6599,1.6245,1.5997,1.5816,1.5567,1.5477,1.5443,1.5284,1.5208,1.5208,1.5166,1.495,1.465,1.4524,1.4321,1.4166,1.4208,1.4166,1.413,1.4166,1.4124,1.4088,1.4088,1.4088,1.4088,1.4088,1.4088,1.4088,1.4088,1.4088,1.4088,1.4088,1.361,1.3173,1.3003,1.21,1.1284,1.1025,1.0511,1.0125,0.9994,0.9994,0.9994,0.9994,0.9994,0.9994,0.9994,0.9777,0.9646,0.9602,0.8679,0.7845,0.7088,0.6694,0.6473,0.6473,0.5899,0.5235,0.4523,0.4123,0.3857,1.5743,0.0,0.0,0.0,1.5127,1.4882,1.4882,0.0,1.4367,1.4775,0.0,1.4305,1.4769,0.0,0.0,1.3705,1.4348,1.4878,1.4839,1.5098,1.5366,1.5591,1.6191,1.6598,1.6579,1.6543,1.6328,1.579,1.5866,1.6019,1.623,1.6269,1.6685,1.7561,1.7017,1.7253,1.8456,1.7893,1.7578,1.7578,1.8184,1.7853,1.673,1.7335,1.7253,1.673,1.7335,1.7253,1.6771,1.7934,1.8095,1.7456,1.6492,1.6203,1.627,1.5816,1.565,1.565,1.565,1.5609,1.5609,1.5436,1.5068,1.4692,1.465,1.4524,1.4398,1.4566,1.437,1.4124,1.4321,1.4243,1.4088,1.4088,1.4088,1.4088,1.4088,1.4088,1.4088,1.4088,1.4088,1.4088,1.4088,1.4046,1.3737,1.3088,1.2875,1.2357,1.1154,1.0939,1.0641,1.0081,0.9994,0.9994,0.9994,0.9994,0.9994,0.9994,0.9951,0.9864,0.9602,0.8679,0.8157,0.8021,0.718,0.6735,0.6735,0.6428,0.5944,0.5238,0.4567,0.4123,0.0,0.0,0.0,0.0,0.0,0.0,1.5291,0.0,1.4561,0.0,0.0,0.0,0.0,0.0,0.0,0.0,1.4551,1.4697,1.4443,1.4946,1.5428,1.5747,1.5762,0.0,1.6105,1.6122,1.6165,1.6323,1.6171,1.6291,1.686,1.7105,1.7448,1.7838,1.7863,1.8135,1.8696,1.8416,1.8296,1.8296,1.8585,1.8416,1.7853,1.774,1.7538,1.7253,1.718,1.7172,1.7335,1.7902,1.8175,1.8256,1.7781,1.7416,1.7082,1.6353,1.6105,1.6105,1.5989,1.5914,1.5906,1.565,1.536,1.5068,1.495,1.4741,1.4608,1.4692,1.4573,1.4447,1.4566,1.4398,1.4279,1.4279,1.4159,1.4088,1.4088,1.4088,1.4088,1.4088,1.4088,1.4088,1.4088,1.4088,1.3997,1.3695,1.3264,1.279,1.2229,1.1843,1.1327,1.0641,1.0598,1.0424,1.0038,0.9994,0.9994,0.9994,0.9994,0.9951,0.982,0.9297,0.9034,0.9034,0.8372,0.8021,0.8021,0.7356,0.6915,0.6605,0.5458,0.4569,1.8134,0.0,0.0,0.0,0.0,0.0,0.0,0.0,0.0,0.0,0.0,0.0,0.0,0.0,0.0,1.4248,0.0,1.4287,1.3821,1.4424,1.5022,1.5374,1.5142,1.5124,0.0,1.5617,1.5848,1.644,1.6261,1.643,1.7217,1.7526,1.7849,1.8255,1.8424,1.8748,1.9213,1.9054,1.8935,1.8935,1.9134,1.9054,1.8705,1.8376,1.8135,1.7974,1.761,1.7691,1.8014,1.8336,1.8656,1.8935,1.8935,1.8656,1.8086,1.7123,1.6599,1.6394,1.6286,1.6252,1.6162,1.5948,1.585,1.5809,1.5616,1.5526,1.547,1.5318,1.5151,1.5019,1.4936,1.4692,1.4482,1.4482,1.4321,1.4166,1.4166,1.4166,1.4166,1.4166,1.425,1.4292,1.4377,1.425,1.4166,1.413,1.3688,1.33,1.3045,1.2571,1.1929,1.1068,1.0982,1.0727,1.0081,0.9994,0.9994,0.9994,0.9994,0.9994,0.9994,0.982,0.9689,0.9689,0.9301,0.9087,0.9087,0.8372,0.7841,0.7529,0.6077,0.5015,0.0,0.0,0.0,1.8367,0.0,0.0,0.0,0.0,1.6065,0.0,0.0,0.0,0.0,0.0,0.0,0.0,0.0,0.0,0.0,1.3301,1.3704,1.4116,1.4535,1.4917,0.0,1.5325,1.551,0.0,1.5847,1.6172,1.6775,1.6818,1.7503,1.8936,1.835,1.882,2.0518,1.9883,1.9559,1.9559,2.0245,1.9883,1.8736,1.9292,1.9204,1.8696,1.9244,1.9173,1.8776,2.001,2.0118,1.9559,1.9559,1.9559,1.9402,1.8135,1.7131,1.6435,1.6607,1.6566,1.6394,1.6394,1.6632,1.6919,1.673,1.7115,1.7464,1.6804,1.6304,1.5876,1.5477,1.5026,1.4692,1.4692,1.4524,1.4398,1.4398,1.4398,1.4398,1.4398,1.4566,1.4741,1.4999,1.4699,1.4321,1.4124,1.4243,1.4013,1.313,1.296,1.2443,1.1154,1.0982,1.0727,1.0081,0.9994,0.9994,0.9994,0.9994,0.9994,0.9994,0.9994,0.9994,0.9994,0.9733,0.9559,0.9559,0.9345,0.8723,0.7746,0.6163,0.5371,0.0,0.0,2.0664,1.9501,0.0,0.0,0.0,0.0,0.0,0.0,0.0,0.0,0.0,0.0,0.0,0.0,0.0,0.0,0.0,1.3184,1.3145,1.3281,1.418,1.4846,1.4927,0.0,0.0,0.0,1.6392,0.0,1.7568,1.7835,1.8349,1.9178,1.9231,1.9698,2.0605,2.0362,2.0245,2.0245,2.0479,2.0362,1.9971,1.9726,1.9481,1.9292,1.9094,1.9134,1.9323,1.9766,2.0079,2.0245,2.0245,2.0001,1.9481,1.8656,1.8175,1.7853,1.7497,1.7009,1.664,1.696,1.7155,1.7318,1.748,1.7715,1.7827,1.7602,1.7432,1.718,1.6624,1.6139,1.5726,1.5269,1.4859,1.465,1.4824,1.4873,1.4873,1.4873,1.4915,1.4999,1.5082,1.5075,1.4943,1.4531,1.444,1.423,1.3779,1.3737,1.3349,1.24,1.21,1.1757,1.137,1.0939,1.0467,1.0038,0.9994,0.9994,0.9994,0.9994,0.9994,0.9994,0.9733,0.9602,0.9602,0.9388,0.9038,0.8508,0.7489,0.6428,2.2498,2.2441,0.0,2.113,2.0797,0.0,1.9645,0.0,1.817,0.0,0.0,0.0,0.0,0.0,0.0,0.0,0.0,0.0,0.0,1.3357,1.3041,1.2905,1.3629,1.4255,1.4521,1.4668,0.0,0.0,0.0,0.0,0.0,1.8071,1.8682,1.9268,1.9551,1.9971,2.0595,2.0605,2.0605,2.0605,2.0605,2.0605,2.0605,2.0157,1.9962,1.9923,1.9529,1.9608,1.9962,1.9962,2.0196,2.0605,2.0605,2.0323,1.9883,1.9253,1.8895,1.8656,1.8224,1.7772,1.7456,1.7764,1.8006,1.8238,1.8407,1.8687,1.8877,1.8567,1.8447,1.8327,1.7642,1.7041,1.6509,1.6049,1.5436,1.4985,1.5159,1.5208,1.5208,1.5131,1.5298,1.5465,1.5465,1.5582,1.5484,1.5026,1.4852,1.4692,1.4461,1.4292,1.3948,1.3215,1.2918,1.2577,1.2186,1.1499,1.0895,1.0381,1.0125,0.9994,0.9994,0.9994,0.9994,0.9994,0.982,0.9733,0.9733,0.9607,0.9432,0.9126,0.8675,0.7661]}]]